<?xml version='1.0' encoding='UTF-8'?><gpx version="1.1" creator="JPX - https://github.com/jenetics/jpx" xmlns="http://www.topografix.com/GPX/1/1"><trk><trkseg><trkpt lat="42.03870717363425" lon="11.87919173878792"><ele>4.166666666666666</ele><time>2026-05-03T10:17:38Z</time></trkpt><trkpt lat="42.03874122718342" lon="11.879302880904932"><ele>4.333333333333333</ele><time>2026-05-03T10:17:46Z</time></trkpt><trkpt lat="42.03874082961303" lon="11.879429812731349"><ele>4.5</ele><time>2026-05-03T10:17:48Z</time></trkpt><trkpt lat="42.03874275910071" lon="11.879538135754748"><ele>4.666666666666667</ele><time>2026-05-03T10:17:50Z</time></trkpt><trkpt lat="42.03876838629361" lon="11.879650244372806"><ele>4.833333333333334</ele><time>2026-05-03T10:17:53Z</time></trkpt><trkpt lat="42.03883701561837" lon="11.87968636785276"><ele>5.0</ele><time>2026-05-03T10:17:57Z</time></trkpt><trkpt lat="42.03889865085312" lon="11.879708747738364"><ele>5.0</ele><time>2026-05-03T10:17:59Z</time></trkpt><trkpt lat="42.03897901096959" lon="11.879707043468828"><ele>5.0</ele><time>2026-05-03T10:18:02Z</time></trkpt><trkpt lat="42.039041063942356" lon="11.879667883746617"><ele>5.0</ele><time>2026-05-03T10:18:15.999Z</time></trkpt><trkpt lat="42.039137469562505" lon="11.879666181500241"><ele>5.0</ele><time>2026-05-03T10:18:17.999Z</time></trkpt><trkpt lat="42.039243667334006" lon="11.879759590641612"><ele>5.0</ele><time>2026-05-03T10:18:19.999Z</time></trkpt><trkpt lat="42.039309425008874" lon="11.87989219538579"><ele>5.6</ele><time>2026-05-03T10:18:21.999Z</time></trkpt><trkpt lat="42.039312035384555" lon="11.879981788614083"><ele>6.2</ele><time>2026-05-03T10:18:22.999Z</time></trkpt><trkpt lat="42.039341537050305" lon="11.880143346172423"><ele>6.800000000000001</ele><time>2026-05-03T10:18:24.999Z</time></trkpt><trkpt lat="42.03937180231328" lon="11.880281810274987"><ele>7.4</ele><time>2026-05-03T10:18:26.999Z</time></trkpt><trkpt lat="42.03940009487756" lon="11.880410835696352"><ele>8.0</ele><time>2026-05-03T10:18:28.999Z</time></trkpt><trkpt lat="42.039433966028604" lon="11.880498577012837"><ele>7.999999999999999</ele><time>2026-05-03T10:18:30.999Z</time></trkpt><trkpt lat="42.039533766260874" lon="11.880474318428961"><ele>8.0</ele><time>2026-05-03T10:18:31.999Z</time></trkpt><trkpt lat="42.03959551410527" lon="11.88045232847455"><ele>8.0</ele><time>2026-05-03T10:18:32.999Z</time></trkpt><trkpt lat="42.03966057318566" lon="11.880423467839883"><ele>8.0</ele><time>2026-05-03T10:18:33.999Z</time></trkpt><trkpt lat="42.03973165259555" lon="11.880389622115912"><ele>7.999999999999999</ele><time>2026-05-03T10:18:34.999Z</time></trkpt><trkpt lat="42.03982005351803" lon="11.880356510011842"><ele>8.0</ele><time>2026-05-03T10:18:35.999Z</time></trkpt><trkpt lat="42.03990788657224" lon="11.880333607821761"><ele>8.333333333333332</ele><time>2026-05-03T10:18:36.999Z</time></trkpt><trkpt lat="42.03998754569896" lon="11.880312688075165"><ele>8.666666666666666</ele><time>2026-05-03T10:18:37.999Z</time></trkpt><trkpt lat="42.04007020566999" lon="11.88029011611399"><ele>9.0</ele><time>2026-05-03T10:18:38.999Z</time></trkpt><trkpt lat="42.04016210706588" lon="11.88026305427205"><ele>9.333333333333334</ele><time>2026-05-03T10:18:39.999Z</time></trkpt><trkpt lat="42.04025060876194" lon="11.880230828667726"><ele>9.666666666666668</ele><time>2026-05-03T10:18:40.999Z</time></trkpt><trkpt lat="42.04034330877878" lon="11.880197300173839"><ele>10.0</ele><time>2026-05-03T10:18:41.999Z</time></trkpt><trkpt lat="42.04043884163699" lon="11.880163149666348"><ele>10.0</ele><time>2026-05-03T10:18:42.999Z</time></trkpt><trkpt lat="42.04053616483057" lon="11.880125238707043"><ele>10.0</ele><time>2026-05-03T10:18:43.999Z</time></trkpt><trkpt lat="42.04062413113203" lon="11.880085827597783"><ele>10.0</ele><time>2026-05-03T10:18:44.999Z</time></trkpt><trkpt lat="42.04070232364422" lon="11.880055376062584"><ele>10.0</ele><time>2026-05-03T10:18:45.999Z</time></trkpt><trkpt lat="42.040810586220964" lon="11.880022660164311"><ele>10.0</ele><time>2026-05-03T10:18:47.999Z</time></trkpt><trkpt lat="42.04088138514679" lon="11.879998603895292"><ele>10.833333333333334</ele><time>2026-05-03T10:18:49.999Z</time></trkpt><trkpt lat="42.04096194311347" lon="11.879960627682278"><ele>11.666666666666668</ele><time>2026-05-03T10:18:52.999Z</time></trkpt><trkpt lat="42.04103053520348" lon="11.879936428977324"><ele>12.5</ele><time>2026-05-03T10:18:54.999Z</time></trkpt><trkpt lat="42.04111015951404" lon="11.879914371728217"><ele>13.333333333333334</ele><time>2026-05-03T10:18:57.999Z</time></trkpt><trkpt lat="42.04117768581863" lon="11.879903910826126"><ele>14.166666666666666</ele><time>2026-05-03T10:19:00.999Z</time></trkpt><trkpt lat="42.04124835255295" lon="11.87988940383243"><ele>15.0</ele><time>2026-05-03T10:19:02.999Z</time></trkpt><trkpt lat="42.041327617175774" lon="11.879870381909942"><ele>15.0</ele><time>2026-05-03T10:19:04.999Z</time></trkpt><trkpt lat="42.041406333926005" lon="11.879851633440301"><ele>15.0</ele><time>2026-05-03T10:19:07Z</time></trkpt><trkpt lat="42.041471682288055" lon="11.879837463781422"><ele>15.0</ele><time>2026-05-03T10:19:09Z</time></trkpt><trkpt lat="42.04154541590512" lon="11.879822959272571"><ele>15.0</ele><time>2026-05-03T10:19:11Z</time></trkpt><trkpt lat="42.04165665236844" lon="11.879806643054836"><ele>15.0</ele><time>2026-05-03T10:19:13Z</time></trkpt><trkpt lat="42.04171894014377" lon="11.87979377672282"><ele>15.0</ele><time>2026-05-03T10:19:14Z</time></trkpt><trkpt lat="42.04179551448016" lon="11.879782481899207"><ele>15.8</ele><time>2026-05-03T10:19:15Z</time></trkpt><trkpt lat="42.04189278829641" lon="11.879772292671529"><ele>16.6</ele><time>2026-05-03T10:19:16Z</time></trkpt><trkpt lat="42.041981081990826" lon="11.87976314361264"><ele>17.4</ele><time>2026-05-03T10:19:17Z</time></trkpt><trkpt lat="42.04207096571854" lon="11.879750644716298"><ele>18.2</ele><time>2026-05-03T10:19:18Z</time></trkpt><trkpt lat="42.042166068436316" lon="11.879730799857445"><ele>19.0</ele><time>2026-05-03T10:19:19Z</time></trkpt><trkpt lat="42.042261054035045" lon="11.879704766618852"><ele>19.0</ele><time>2026-05-03T10:19:20Z</time></trkpt><trkpt lat="42.04235997343685" lon="11.879688066590468"><ele>19.0</ele><time>2026-05-03T10:19:21Z</time></trkpt><trkpt lat="42.04245965065085" lon="11.87966932284217"><ele>19.0</ele><time>2026-05-03T10:19:22Z</time></trkpt><trkpt lat="42.04256462041007" lon="11.879647736111298"><ele>19.0</ele><time>2026-05-03T10:19:23Z</time></trkpt><trkpt lat="42.04266662819251" lon="11.879629898048082"><ele>19.0</ele><time>2026-05-03T10:19:24Z</time></trkpt><trkpt lat="42.0427747388488" lon="11.87961222858235"><ele>19.6</ele><time>2026-05-03T10:19:25Z</time></trkpt><trkpt lat="42.04287615550423" lon="11.879591916541461"><ele>20.2</ele><time>2026-05-03T10:19:26Z</time></trkpt><trkpt lat="42.04297518751025" lon="11.87957263813481"><ele>20.8</ele><time>2026-05-03T10:19:27Z</time></trkpt><trkpt lat="42.04307799735301" lon="11.87955633939807"><ele>21.400000000000002</ele><time>2026-05-03T10:19:28Z</time></trkpt><trkpt lat="42.043180495710565" lon="11.8795418261715"><ele>22.0</ele><time>2026-05-03T10:19:29Z</time></trkpt><trkpt lat="42.04328451912482" lon="11.879521210714033"><ele>22.8</ele><time>2026-05-03T10:19:30Z</time></trkpt><trkpt lat="42.04339593349152" lon="11.879500609927632"><ele>23.6</ele><time>2026-05-03T10:19:31Z</time></trkpt><trkpt lat="42.043507277456165" lon="11.879476260854855"><ele>24.400000000000002</ele><time>2026-05-03T10:19:32Z</time></trkpt><trkpt lat="42.04361604730317" lon="11.879454323450476"><ele>25.200000000000003</ele><time>2026-05-03T10:19:33Z</time></trkpt><trkpt lat="42.04372141585658" lon="11.87943243792533"><ele>26.0</ele><time>2026-05-03T10:19:34Z</time></trkpt><trkpt lat="42.04382011894243" lon="11.879413833333048"><ele>26.0</ele><time>2026-05-03T10:19:35Z</time></trkpt><trkpt lat="42.043926171413425" lon="11.879399539582655"><ele>26.0</ele><time>2026-05-03T10:19:36Z</time></trkpt><trkpt lat="42.044034657538795" lon="11.879379187786013"><ele>26.0</ele><time>2026-05-03T10:19:37Z</time></trkpt><trkpt lat="42.0441445750844" lon="11.879361414738666"><ele>26.0</ele><time>2026-05-03T10:19:38Z</time></trkpt><trkpt lat="42.04425131730724" lon="11.879345569944322"><ele>26.0</ele><time>2026-05-03T10:19:39Z</time></trkpt><trkpt lat="42.04435539454564" lon="11.879332489887872"><ele>26.4</ele><time>2026-05-03T10:19:40Z</time></trkpt><trkpt lat="42.04445789570734" lon="11.879321545280867"><ele>26.8</ele><time>2026-05-03T10:19:41Z</time></trkpt><trkpt lat="42.044558748575206" lon="11.879311594429392"><ele>27.199999999999996</ele><time>2026-05-03T10:19:42Z</time></trkpt><trkpt lat="42.044655802970325" lon="11.879302942186763"><ele>27.599999999999998</ele><time>2026-05-03T10:19:43Z</time></trkpt><trkpt lat="42.044747465941015" lon="11.879296522700711"><ele>28.0</ele><time>2026-05-03T10:19:44Z</time></trkpt><trkpt lat="42.04489167947546" lon="11.879295943207886"><ele>28.0</ele><time>2026-05-03T10:19:46Z</time></trkpt><trkpt lat="42.04493831185047" lon="11.879500160406291"><ele>27.999999999999996</ele><time>2026-05-03T10:19:49Z</time></trkpt><trkpt lat="42.044921930427805" lon="11.87959382726479"><ele>27.999999999999996</ele><time>2026-05-03T10:19:50Z</time></trkpt><trkpt lat="42.04490885586932" lon="11.8797031374208"><ele>28.0</ele><time>2026-05-03T10:19:51Z</time></trkpt><trkpt lat="42.04490063793658" lon="11.87983566647697"><ele>28.0</ele><time>2026-05-03T10:19:52Z</time></trkpt><trkpt lat="42.04490287849226" lon="11.879967935915072"><ele>27.0</ele><time>2026-05-03T10:19:53Z</time></trkpt><trkpt lat="42.04491434964551" lon="11.880100112187776"><ele>25.999999999999996</ele><time>2026-05-03T10:19:54Z</time></trkpt><trkpt lat="42.04491962248661" lon="11.880242811463926"><ele>25.0</ele><time>2026-05-03T10:19:55Z</time></trkpt><trkpt lat="42.044915170719335" lon="11.880387959343711"><ele>24.0</ele><time>2026-05-03T10:19:56Z</time></trkpt><trkpt lat="42.0449071293355" lon="11.880537429300999"><ele>23.0</ele><time>2026-05-03T10:19:57Z</time></trkpt><trkpt lat="42.044896646125636" lon="11.88068064937011"><ele>23.0</ele><time>2026-05-03T10:19:58Z</time></trkpt><trkpt lat="42.04488810372658" lon="11.880830803509603"><ele>23.0</ele><time>2026-05-03T10:19:59Z</time></trkpt><trkpt lat="42.044878901499025" lon="11.880987760477923"><ele>23.0</ele><time>2026-05-03T10:20:00Z</time></trkpt><trkpt lat="42.04486982070055" lon="11.881139968111102"><ele>23.0</ele><time>2026-05-03T10:20:01Z</time></trkpt><trkpt lat="42.04486765925852" lon="11.881293745805182"><ele>21.799999999999997</ele><time>2026-05-03T10:20:02Z</time></trkpt><trkpt lat="42.0448767299154" lon="11.88144230021434"><ele>20.599999999999998</ele><time>2026-05-03T10:20:03Z</time></trkpt><trkpt lat="42.04490141588826" lon="11.881588138079701"><ele>19.4</ele><time>2026-05-03T10:20:04Z</time></trkpt><trkpt lat="42.04494229573097" lon="11.881708405281849"><ele>18.2</ele><time>2026-05-03T10:20:05Z</time></trkpt><trkpt lat="42.04496511559257" lon="11.881834189722237"><ele>17.0</ele><time>2026-05-03T10:20:06Z</time></trkpt><trkpt lat="42.04500284444359" lon="11.881947967018379"><ele>17.0</ele><time>2026-05-03T10:20:07Z</time></trkpt><trkpt lat="42.04503974467623" lon="11.88206467798471"><ele>17.0</ele><time>2026-05-03T10:20:08Z</time></trkpt><trkpt lat="42.04508348858706" lon="11.882203034710246"><ele>17.0</ele><time>2026-05-03T10:20:09Z</time></trkpt><trkpt lat="42.045135492073804" lon="11.882359212023438"><ele>17.0</ele><time>2026-05-03T10:20:10Z</time></trkpt><trkpt lat="42.04518543705621" lon="11.88251062782657"><ele>16.4</ele><time>2026-05-03T10:20:10.999Z</time></trkpt><trkpt lat="42.045235536134385" lon="11.882662510793171"><ele>15.799999999999999</ele><time>2026-05-03T10:20:11.999Z</time></trkpt><trkpt lat="42.045295463207694" lon="11.882793937093016"><ele>15.2</ele><time>2026-05-03T10:20:12.999Z</time></trkpt><trkpt lat="42.04533799140648" lon="11.882926050973602"><ele>14.6</ele><time>2026-05-03T10:20:13.999Z</time></trkpt><trkpt lat="42.045376451733354" lon="11.883052499954294"><ele>14.0</ele><time>2026-05-03T10:20:14.999Z</time></trkpt><trkpt lat="42.045415576008516" lon="11.883173477191734"><ele>14.000000000000002</ele><time>2026-05-03T10:20:15.999Z</time></trkpt><trkpt lat="42.0454458130158" lon="11.883286395773888"><ele>14.0</ele><time>2026-05-03T10:20:16.999Z</time></trkpt><trkpt lat="42.045483593810644" lon="11.883387309455886"><ele>14.0</ele><time>2026-05-03T10:20:17.999Z</time></trkpt><trkpt lat="42.04550374019984" lon="11.883475659647411"><ele>14.0</ele><time>2026-05-03T10:20:18.999Z</time></trkpt><trkpt lat="42.045576457155455" lon="11.883611843332147"><ele>14.000000000000002</ele><time>2026-05-03T10:20:20.999Z</time></trkpt><trkpt lat="42.04565424082998" lon="11.883646848726059"><ele>14.0</ele><time>2026-05-03T10:20:21.999Z</time></trkpt><trkpt lat="42.045734589593664" lon="11.88369778348739"><ele>13.75</ele><time>2026-05-03T10:20:22.999Z</time></trkpt><trkpt lat="42.045826542087305" lon="11.8837538342386"><ele>13.5</ele><time>2026-05-03T10:20:23.999Z</time></trkpt><trkpt lat="42.045930726123345" lon="11.883811260580668"><ele>13.25</ele><time>2026-05-03T10:20:24.999Z</time></trkpt><trkpt lat="42.04604640583764" lon="11.88388075588629"><ele>13.0</ele><time>2026-05-03T10:20:25.999Z</time></trkpt><trkpt lat="42.04616686168059" lon="11.883959555175842"><ele>13.0</ele><time>2026-05-03T10:20:26.999Z</time></trkpt><trkpt lat="42.0462884138703" lon="11.884029422710988"><ele>13.0</ele><time>2026-05-03T10:20:27.999Z</time></trkpt><trkpt lat="42.04639684652362" lon="11.88408609348479"><ele>13.0</ele><time>2026-05-03T10:20:28.999Z</time></trkpt><trkpt lat="42.04649974975952" lon="11.88412531545869"><ele>13.0</ele><time>2026-05-03T10:20:29.999Z</time></trkpt><trkpt lat="42.046600339850556" lon="11.884140537264388"><ele>13.600000000000001</ele><time>2026-05-03T10:20:30.999Z</time></trkpt><trkpt lat="42.0467141671376" lon="11.88413261245936"><ele>14.200000000000001</ele><time>2026-05-03T10:20:31.999Z</time></trkpt><trkpt lat="42.04681971305671" lon="11.884112817148551"><ele>14.8</ele><time>2026-05-03T10:20:32.999Z</time></trkpt><trkpt lat="42.046924976095205" lon="11.88408819596379"><ele>15.4</ele><time>2026-05-03T10:20:33.999Z</time></trkpt><trkpt lat="42.04703514922843" lon="11.884081416421138"><ele>16.0</ele><time>2026-05-03T10:20:34.999Z</time></trkpt><trkpt lat="42.04714388658395" lon="11.884090170996531"><ele>16.0</ele><time>2026-05-03T10:20:35.999Z</time></trkpt><trkpt lat="42.047252653341886" lon="11.884137261034939"><ele>16.0</ele><time>2026-05-03T10:20:36.999Z</time></trkpt><trkpt lat="42.047365038159526" lon="11.88417026441218"><ele>16.0</ele><time>2026-05-03T10:20:37.999Z</time></trkpt><trkpt lat="42.047485071290346" lon="11.884191334249962"><ele>16.0</ele><time>2026-05-03T10:20:38.999Z</time></trkpt><trkpt lat="42.04760051553964" lon="11.88423105126303"><ele>16.0</ele><time>2026-05-03T10:20:39.999Z</time></trkpt><trkpt lat="42.04771893418599" lon="11.884271898680675"><ele>16.0</ele><time>2026-05-03T10:20:40.999Z</time></trkpt><trkpt lat="42.047837579672084" lon="11.884312451229825"><ele>16.0</ele><time>2026-05-03T10:20:41.999Z</time></trkpt><trkpt lat="42.04795915811585" lon="11.884350674593193"><ele>16.0</ele><time>2026-05-03T10:20:42.999Z</time></trkpt><trkpt lat="42.048080170420164" lon="11.884382589933743"><ele>16.0</ele><time>2026-05-03T10:20:43.999Z</time></trkpt><trkpt lat="42.048198933238936" lon="11.884415362316108"><ele>16.0</ele><time>2026-05-03T10:20:44.999Z</time></trkpt><trkpt lat="42.0483047218596" lon="11.884453405065711"><ele>16.0</ele><time>2026-05-03T10:20:45.999Z</time></trkpt><trkpt lat="42.04840249457816" lon="11.884491633828715"><ele>16.0</ele><time>2026-05-03T10:20:46.999Z</time></trkpt><trkpt lat="42.048495369130485" lon="11.884521248731552"><ele>16.0</ele><time>2026-05-03T10:20:47.999Z</time></trkpt><trkpt lat="42.04859021545075" lon="11.88454919815292"><ele>16.142857142857142</ele><time>2026-05-03T10:20:48.999Z</time></trkpt><trkpt lat="42.04867946472338" lon="11.884577208868416"><ele>16.285714285714285</ele><time>2026-05-03T10:20:49.999Z</time></trkpt><trkpt lat="42.048755747357724" lon="11.884602336117252"><ele>16.428571428571427</ele><time>2026-05-03T10:20:50.999Z</time></trkpt><trkpt lat="42.04882867402535" lon="11.884628946004975"><ele>16.57142857142857</ele><time>2026-05-03T10:20:51.999Z</time></trkpt><trkpt lat="42.04889008165545" lon="11.884652388548776"><ele>16.714285714285715</ele><time>2026-05-03T10:20:52.999Z</time></trkpt><trkpt lat="42.048951538122964" lon="11.88467668890426"><ele>16.857142857142854</ele><time>2026-05-03T10:20:53.999Z</time></trkpt><trkpt lat="42.04901686282666" lon="11.884695255880452"><ele>17.0</ele><time>2026-05-03T10:20:54.999Z</time></trkpt><trkpt lat="42.04908758183233" lon="11.884718272008012"><ele>17.4</ele><time>2026-05-03T10:20:55.999Z</time></trkpt><trkpt lat="42.04916955754522" lon="11.884744536050817"><ele>17.799999999999997</ele><time>2026-05-03T10:20:56.999Z</time></trkpt><trkpt lat="42.04925436258726" lon="11.884770203722638"><ele>18.2</ele><time>2026-05-03T10:20:57.999Z</time></trkpt><trkpt lat="42.04934119224871" lon="11.884798170679463"><ele>18.599999999999998</ele><time>2026-05-03T10:20:58.999Z</time></trkpt><trkpt lat="42.04943717426591" lon="11.884824729707741"><ele>19.0</ele><time>2026-05-03T10:20:59.999Z</time></trkpt><trkpt lat="42.04954559355809" lon="11.884859139992628"><ele>19.0</ele><time>2026-05-03T10:21:00.999Z</time></trkpt><trkpt lat="42.049653372097076" lon="11.88489973008141"><ele>19.0</ele><time>2026-05-03T10:21:01.999Z</time></trkpt><trkpt lat="42.04978087177368" lon="11.884942760525883"><ele>19.0</ele><time>2026-05-03T10:21:02.999Z</time></trkpt><trkpt lat="42.04990749701817" lon="11.884982984386454"><ele>19.0</ele><time>2026-05-03T10:21:03.999Z</time></trkpt><trkpt lat="42.05002274204818" lon="11.885019625939577"><ele>19.799999999999997</ele><time>2026-05-03T10:21:04.999Z</time></trkpt><trkpt lat="42.05012617780951" lon="11.88505580156721"><ele>20.599999999999998</ele><time>2026-05-03T10:21:05.999Z</time></trkpt><trkpt lat="42.05024010993652" lon="11.885086082145607"><ele>21.4</ele><time>2026-05-03T10:21:06.999Z</time></trkpt><trkpt lat="42.05035190168637" lon="11.885123028026786"><ele>22.2</ele><time>2026-05-03T10:21:07.999Z</time></trkpt><trkpt lat="42.05045913131511" lon="11.885157873808536"><ele>23.0</ele><time>2026-05-03T10:21:08.999Z</time></trkpt><trkpt lat="42.05057103192756" lon="11.885191140527725"><ele>23.0</ele><time>2026-05-03T10:21:09.999Z</time></trkpt><trkpt lat="42.05068229876936" lon="11.885207755079357"><ele>23.0</ele><time>2026-05-03T10:21:10.999Z</time></trkpt><trkpt lat="42.05080067186245" lon="11.885206848141719"><ele>23.0</ele><time>2026-05-03T10:21:11.999Z</time></trkpt><trkpt lat="42.0509232304849" lon="11.885194331648847"><ele>23.0</ele><time>2026-05-03T10:21:12.999Z</time></trkpt><trkpt lat="42.051047780207476" lon="11.8851707633624"><ele>23.0</ele><time>2026-05-03T10:21:13.999Z</time></trkpt><trkpt lat="42.051171411964376" lon="11.885144058380426"><ele>23.0</ele><time>2026-05-03T10:21:14.999Z</time></trkpt><trkpt lat="42.051296460138396" lon="11.885120374896061"><ele>23.0</ele><time>2026-05-03T10:21:15.999Z</time></trkpt><trkpt lat="42.05142339925086" lon="11.885095731345777"><ele>23.0</ele><time>2026-05-03T10:21:16.999Z</time></trkpt><trkpt lat="42.05155284901848" lon="11.885073371314018"><ele>23.5</ele><time>2026-05-03T10:21:17.999Z</time></trkpt><trkpt lat="42.05168515179065" lon="11.885053398619515"><ele>24.0</ele><time>2026-05-03T10:21:18.999Z</time></trkpt><trkpt lat="42.051810477973355" lon="11.885036823309036"><ele>24.5</ele><time>2026-05-03T10:21:19.999Z</time></trkpt><trkpt lat="42.05193128936592" lon="11.885016719934619"><ele>25.0</ele><time>2026-05-03T10:21:20.999Z</time></trkpt><trkpt lat="42.0520479298726" lon="11.8850002709639"><ele>25.0</ele><time>2026-05-03T10:21:21.999Z</time></trkpt><trkpt lat="42.052164040221946" lon="11.884976347980874"><ele>25.0</ele><time>2026-05-03T10:21:22.999Z</time></trkpt><trkpt lat="42.0522742661702" lon="11.884962273380818"><ele>25.0</ele><time>2026-05-03T10:21:23.999Z</time></trkpt><trkpt lat="42.052374522730915" lon="11.884959389633785"><ele>25.0</ele><time>2026-05-03T10:21:24.999Z</time></trkpt><trkpt lat="42.052465887045514" lon="11.884971761848146"><ele>25.0</ele><time>2026-05-03T10:21:25.999Z</time></trkpt><trkpt lat="42.0525586919891" lon="11.884995595313521"><ele>25.0</ele><time>2026-05-03T10:21:26.999Z</time></trkpt><trkpt lat="42.052657334819635" lon="11.88502763569411"><ele>25.0</ele><time>2026-05-03T10:21:27.999Z</time></trkpt><trkpt lat="42.05275978553886" lon="11.88505941448059"><ele>25.0</ele><time>2026-05-03T10:21:28.999Z</time></trkpt><trkpt lat="42.05285853766698" lon="11.885117428140488"><ele>25.0</ele><time>2026-05-03T10:21:29.999Z</time></trkpt><trkpt lat="42.05296739960232" lon="11.8851340912051"><ele>25.0</ele><time>2026-05-03T10:21:30.999Z</time></trkpt><trkpt lat="42.0530738021626" lon="11.885175504598754"><ele>25.0</ele><time>2026-05-03T10:21:31.999Z</time></trkpt><trkpt lat="42.05317885244387" lon="11.885211498098538"><ele>25.0</ele><time>2026-05-03T10:21:32.999Z</time></trkpt><trkpt lat="42.05327562860553" lon="11.885241775330067"><ele>25.0</ele><time>2026-05-03T10:21:33.999Z</time></trkpt><trkpt lat="42.05338232478666" lon="11.88525331991374"><ele>25.0</ele><time>2026-05-03T10:21:34.999Z</time></trkpt><trkpt lat="42.053482567503615" lon="11.88525097050386"><ele>25.0</ele><time>2026-05-03T10:21:35.999Z</time></trkpt><trkpt lat="42.053584742481675" lon="11.88523959823292"><ele>25.4</ele><time>2026-05-03T10:21:36.999Z</time></trkpt><trkpt lat="42.05368961338552" lon="11.885216080540497"><ele>25.8</ele><time>2026-05-03T10:21:37.999Z</time></trkpt><trkpt lat="42.05379256424725" lon="11.885175494638494"><ele>26.200000000000003</ele><time>2026-05-03T10:21:38.999Z</time></trkpt><trkpt lat="42.05390488041621" lon="11.885145463916533"><ele>26.6</ele><time>2026-05-03T10:21:39.999Z</time></trkpt><trkpt lat="42.05402195172293" lon="11.8851028139019"><ele>27.0</ele><time>2026-05-03T10:21:40.999Z</time></trkpt><trkpt lat="42.05414354615628" lon="11.885058278462923"><ele>27.75</ele><time>2026-05-03T10:21:41.999Z</time></trkpt><trkpt lat="42.054274637325136" lon="11.885034638862326"><ele>28.5</ele><time>2026-05-03T10:21:42.999Z</time></trkpt><trkpt lat="42.054407877989185" lon="11.884990529388565"><ele>29.25</ele><time>2026-05-03T10:21:43.999Z</time></trkpt><trkpt lat="42.054541804964906" lon="11.884930206352422"><ele>30.0</ele><time>2026-05-03T10:21:44.999Z</time></trkpt><trkpt lat="42.054677380789" lon="11.884888712875549"><ele>30.0</ele><time>2026-05-03T10:21:45.999Z</time></trkpt><trkpt lat="42.054815016579425" lon="11.884839084511768"><ele>30.0</ele><time>2026-05-03T10:21:46.999Z</time></trkpt><trkpt lat="42.05495053469883" lon="11.884793095991522"><ele>30.0</ele><time>2026-05-03T10:21:47.999Z</time></trkpt><trkpt lat="42.055080614767576" lon="11.884749717447379"><ele>30.0</ele><time>2026-05-03T10:21:48.999Z</time></trkpt><trkpt lat="42.05521301858528" lon="11.88470574568995"><ele>30.25</ele><time>2026-05-03T10:21:49.999Z</time></trkpt><trkpt lat="42.055346177092275" lon="11.884662633773589"><ele>30.5</ele><time>2026-05-03T10:21:50.999Z</time></trkpt><trkpt lat="42.0554858822503" lon="11.884622696695013"><ele>30.75</ele><time>2026-05-03T10:21:51.999Z</time></trkpt><trkpt lat="42.05561524617457" lon="11.88458170325512"><ele>31.0</ele><time>2026-05-03T10:21:52.999Z</time></trkpt><trkpt lat="42.055739218555175" lon="11.884536870657623"><ele>31.0</ele><time>2026-05-03T10:21:53.999Z</time></trkpt><trkpt lat="42.055881922373885" lon="11.884491621961967"><ele>31.0</ele><time>2026-05-03T10:21:54.999Z</time></trkpt><trkpt lat="42.05602854292392" lon="11.884444657339033"><ele>31.0</ele><time>2026-05-03T10:21:55.999Z</time></trkpt><trkpt lat="42.056178458106146" lon="11.884399623598622"><ele>31.0</ele><time>2026-05-03T10:21:56.999Z</time></trkpt><trkpt lat="42.05631659319017" lon="11.884351487680116"><ele>31.0</ele><time>2026-05-03T10:21:57.999Z</time></trkpt><trkpt lat="42.05643520304813" lon="11.884308637429434"><ele>31.0</ele><time>2026-05-03T10:21:58.999Z</time></trkpt><trkpt lat="42.05656911715281" lon="11.884266752810515"><ele>31.0</ele><time>2026-05-03T10:21:59.999Z</time></trkpt><trkpt lat="42.0567127768592" lon="11.884220584317399"><ele>31.0</ele><time>2026-05-03T10:22:00.999Z</time></trkpt><trkpt lat="42.05685415257041" lon="11.884170581359884"><ele>31.0</ele><time>2026-05-03T10:22:01.999Z</time></trkpt><trkpt lat="42.05698381122115" lon="11.884127386575152"><ele>31.0</ele><time>2026-05-03T10:22:02.999Z</time></trkpt><trkpt lat="42.05709970318132" lon="11.884088643197007"><ele>31.0</ele><time>2026-05-03T10:22:03.999Z</time></trkpt><trkpt lat="42.05722373900021" lon="11.88404215868199"><ele>31.0</ele><time>2026-05-03T10:22:04.999Z</time></trkpt><trkpt lat="42.057353830250435" lon="11.88399805727619"><ele>31.0</ele><time>2026-05-03T10:22:05.999Z</time></trkpt><trkpt lat="42.057489751377794" lon="11.883957032123782"><ele>31.0</ele><time>2026-05-03T10:22:06.999Z</time></trkpt><trkpt lat="42.057617821725245" lon="11.883913639856164"><ele>31.0</ele><time>2026-05-03T10:22:07.999Z</time></trkpt><trkpt lat="42.057748152293364" lon="11.883867854369564"><ele>31.5</ele><time>2026-05-03T10:22:08.999Z</time></trkpt><trkpt lat="42.05788661449217" lon="11.883826003163804"><ele>32.0</ele><time>2026-05-03T10:22:09.999Z</time></trkpt><trkpt lat="42.058023037200414" lon="11.883779085968616"><ele>32.5</ele><time>2026-05-03T10:22:10.999Z</time></trkpt><trkpt lat="42.05816134989465" lon="11.883734941673653"><ele>33.0</ele><time>2026-05-03T10:22:11.999Z</time></trkpt><trkpt lat="42.058298546793615" lon="11.883692083753502"><ele>33.75</ele><time>2026-05-03T10:22:12.999Z</time></trkpt><trkpt lat="42.05843996817705" lon="11.883648347264062"><ele>34.5</ele><time>2026-05-03T10:22:13.999Z</time></trkpt><trkpt lat="42.05857770269092" lon="11.883598580749275"><ele>35.25</ele><time>2026-05-03T10:22:14.999Z</time></trkpt><trkpt lat="42.058719941997225" lon="11.883549447538316"><ele>36.0</ele><time>2026-05-03T10:22:15.999Z</time></trkpt><trkpt lat="42.05886624406359" lon="11.883498208119146"><ele>36.0</ele><time>2026-05-03T10:22:16.999Z</time></trkpt><trkpt lat="42.05901498769675" lon="11.883448700351817"><ele>36.0</ele><time>2026-05-03T10:22:17.999Z</time></trkpt><trkpt lat="42.059163331797386" lon="11.883396775895553"><ele>36.0</ele><time>2026-05-03T10:22:18.999Z</time></trkpt><trkpt lat="42.05930157175493" lon="11.88335295305737"><ele>36.0</ele><time>2026-05-03T10:22:19.999Z</time></trkpt><trkpt lat="42.05942621455157" lon="11.883312320231894"><ele>36.4</ele><time>2026-05-03T10:22:20.999Z</time></trkpt><trkpt lat="42.05954025326867" lon="11.88327863673011"><ele>36.8</ele><time>2026-05-03T10:22:21.999Z</time></trkpt><trkpt lat="42.059645177730374" lon="11.883270648593845"><ele>37.199999999999996</ele><time>2026-05-03T10:22:22.999Z</time></trkpt><trkpt lat="42.05974649040995" lon="11.883268006217252"><ele>37.6</ele><time>2026-05-03T10:22:23.999Z</time></trkpt><trkpt lat="42.05984456226054" lon="11.883297630942911"><ele>38.0</ele><time>2026-05-03T10:22:24.999Z</time></trkpt><trkpt lat="42.05994566780502" lon="11.883342645934858"><ele>38.25</ele><time>2026-05-03T10:22:25.999Z</time></trkpt><trkpt lat="42.06005990106284" lon="11.883380157527686"><ele>38.5</ele><time>2026-05-03T10:22:26.999Z</time></trkpt><trkpt lat="42.0601696685596" lon="11.883437052350702"><ele>38.75</ele><time>2026-05-03T10:22:27.999Z</time></trkpt><trkpt lat="42.06028234669942" lon="11.883496915397545"><ele>39.0</ele><time>2026-05-03T10:22:28.999Z</time></trkpt><trkpt lat="42.06039105870834" lon="11.883560601196148"><ele>39.25</ele><time>2026-05-03T10:22:29.999Z</time></trkpt><trkpt lat="42.060503760692235" lon="11.883619637476244"><ele>39.5</ele><time>2026-05-03T10:22:30.999Z</time></trkpt><trkpt lat="42.06061792416445" lon="11.883669289800665"><ele>39.75</ele><time>2026-05-03T10:22:31.999Z</time></trkpt><trkpt lat="42.060726809825205" lon="11.88372827897428"><ele>40.0</ele><time>2026-05-03T10:22:32.999Z</time></trkpt><trkpt lat="42.06084154475265" lon="11.883785388066423"><ele>40.25</ele><time>2026-05-03T10:22:33.999Z</time></trkpt><trkpt lat="42.060962582579634" lon="11.883839537987674"><ele>40.5</ele><time>2026-05-03T10:22:34.999Z</time></trkpt><trkpt lat="42.06108243951712" lon="11.883903533571962"><ele>40.75</ele><time>2026-05-03T10:22:35.999Z</time></trkpt><trkpt lat="42.061201726931415" lon="11.883964374689393"><ele>41.0</ele><time>2026-05-03T10:22:36.999Z</time></trkpt><trkpt lat="42.061317204998204" lon="11.884057324301669"><ele>41.0</ele><time>2026-05-03T10:22:37.999Z</time></trkpt><trkpt lat="42.06143346852927" lon="11.88413733821841"><ele>41.0</ele><time>2026-05-03T10:22:38.999Z</time></trkpt><trkpt lat="42.061557655405636" lon="11.884208557567362"><ele>41.0</ele><time>2026-05-03T10:22:39.999Z</time></trkpt><trkpt lat="42.061682868795494" lon="11.884308530813241"><ele>41.0</ele><time>2026-05-03T10:22:40.999Z</time></trkpt><trkpt lat="42.06180693399429" lon="11.884408062578496"><ele>43.5</ele><time>2026-05-03T10:22:41.999Z</time></trkpt><trkpt lat="42.06192717821612" lon="11.884507890077556"><ele>46.0</ele><time>2026-05-03T10:22:42.999Z</time></trkpt><trkpt lat="42.06204186360936" lon="11.88459854718409"><ele>48.5</ele><time>2026-05-03T10:22:43.999Z</time></trkpt><trkpt lat="42.06215552044545" lon="11.884674996869396"><ele>51.0</ele><time>2026-05-03T10:22:44.999Z</time></trkpt><trkpt lat="42.062277189885904" lon="11.884736434891467"><ele>51.0</ele><time>2026-05-03T10:22:45.999Z</time></trkpt><trkpt lat="42.06240924948026" lon="11.88478083110966"><ele>51.0</ele><time>2026-05-03T10:22:46.999Z</time></trkpt><trkpt lat="42.06253708274081" lon="11.884806420475654"><ele>51.0</ele><time>2026-05-03T10:22:47.999Z</time></trkpt><trkpt lat="42.06268152711041" lon="11.88483116942677"><ele>51.0</ele><time>2026-05-03T10:22:48.999Z</time></trkpt><trkpt lat="42.062817819172565" lon="11.884859191814586"><ele>50.0</ele><time>2026-05-03T10:22:49.999Z</time></trkpt><trkpt lat="42.06295236713513" lon="11.884888498027763"><ele>49.0</ele><time>2026-05-03T10:22:50.999Z</time></trkpt><trkpt lat="42.06309156559247" lon="11.884917454551237"><ele>48.0</ele><time>2026-05-03T10:22:51.999Z</time></trkpt><trkpt lat="42.06322863119816" lon="11.88493803208286"><ele>47.0</ele><time>2026-05-03T10:22:52.999Z</time></trkpt><trkpt lat="42.06336660429776" lon="11.884944937642985"><ele>47.0</ele><time>2026-05-03T10:22:53.999Z</time></trkpt><trkpt lat="42.0635070652738" lon="11.884930378478305"><ele>47.0</ele><time>2026-05-03T10:22:54.999Z</time></trkpt><trkpt lat="42.06365394206696" lon="11.884912358825284"><ele>47.0</ele><time>2026-05-03T10:22:55.999Z</time></trkpt><trkpt lat="42.063802022255125" lon="11.884887270559956"><ele>47.0</ele><time>2026-05-03T10:22:56.999Z</time></trkpt><trkpt lat="42.06393996455496" lon="11.884860147695518"><ele>47.0</ele><time>2026-05-03T10:22:57.999Z</time></trkpt><trkpt lat="42.064081724226746" lon="11.884826757989554"><ele>47.0</ele><time>2026-05-03T10:22:58.999Z</time></trkpt><trkpt lat="42.06422143848204" lon="11.884788986347923"><ele>47.0</ele><time>2026-05-03T10:22:59.999Z</time></trkpt><trkpt lat="42.064357808811806" lon="11.884751311264457"><ele>47.0</ele><time>2026-05-03T10:23:00.999Z</time></trkpt><trkpt lat="42.06449378320724" lon="11.884736387820762"><ele>47.0</ele><time>2026-05-03T10:23:01.999Z</time></trkpt><trkpt lat="42.06462669923603" lon="11.884700199258367"><ele>47.0</ele><time>2026-05-03T10:23:02.999Z</time></trkpt><trkpt lat="42.06476436388246" lon="11.884657823228352"><ele>47.0</ele><time>2026-05-03T10:23:03.999Z</time></trkpt><trkpt lat="42.06489285950506" lon="11.884596007481179"><ele>47.0</ele><time>2026-05-03T10:23:04.999Z</time></trkpt><trkpt lat="42.06503724720661" lon="11.884562536168362"><ele>48.0</ele><time>2026-05-03T10:23:05.999Z</time></trkpt><trkpt lat="42.0651789162624" lon="11.884512052848798"><ele>49.0</ele><time>2026-05-03T10:23:06.999Z</time></trkpt><trkpt lat="42.06532098609705" lon="11.884441620333696"><ele>50.0</ele><time>2026-05-03T10:23:07.999Z</time></trkpt><trkpt lat="42.06546337667937" lon="11.884397813910955"><ele>51.0</ele><time>2026-05-03T10:23:08.999Z</time></trkpt><trkpt lat="42.065606243240836" lon="11.88433353753889"><ele>51.0</ele><time>2026-05-03T10:23:09.999Z</time></trkpt><trkpt lat="42.06576053621171" lon="11.884283165303838"><ele>51.0</ele><time>2026-05-03T10:23:10.999Z</time></trkpt><trkpt lat="42.06590500399499" lon="11.884239503706226"><ele>51.0</ele><time>2026-05-03T10:23:11.999Z</time></trkpt><trkpt lat="42.06604706883692" lon="11.884180829437025"><ele>52.0</ele><time>2026-05-03T10:23:12.999Z</time></trkpt><trkpt lat="42.066185283789615" lon="11.884128663370927"><ele>53.0</ele><time>2026-05-03T10:23:13.999Z</time></trkpt><trkpt lat="42.06632386297709" lon="11.884081931809128"><ele>54.0</ele><time>2026-05-03T10:23:14.999Z</time></trkpt><trkpt lat="42.066454881416846" lon="11.884038365003253"><ele>55.0</ele><time>2026-05-03T10:23:15.999Z</time></trkpt><trkpt lat="42.06657977513666" lon="11.883993193998991"><ele>54.8</ele><time>2026-05-03T10:23:16.999Z</time></trkpt><trkpt lat="42.06668974315733" lon="11.883958935352112"><ele>54.6</ele><time>2026-05-03T10:23:17.999Z</time></trkpt><trkpt lat="42.06679754338183" lon="11.883960106964162"><ele>54.400000000000006</ele><time>2026-05-03T10:23:18.999Z</time></trkpt><trkpt lat="42.066895427808625" lon="11.88395400556456"><ele>54.2</ele><time>2026-05-03T10:23:19.999Z</time></trkpt><trkpt lat="42.06698716936027" lon="11.883962719727768"><ele>54.0</ele><time>2026-05-03T10:23:20.999Z</time></trkpt><trkpt lat="42.06709065386327" lon="11.883959350206718"><ele>54.0</ele><time>2026-05-03T10:23:21.999Z</time></trkpt><trkpt lat="42.0672061497953" lon="11.883989160499167"><ele>54.0</ele><time>2026-05-03T10:23:22.999Z</time></trkpt><trkpt lat="42.06732825683603" lon="11.884013498585512"><ele>54.0</ele><time>2026-05-03T10:23:23.999Z</time></trkpt><trkpt lat="42.06745225472348" lon="11.884033228592758"><ele>54.0</ele><time>2026-05-03T10:23:24.999Z</time></trkpt><trkpt lat="42.06757580305787" lon="11.884056541333473"><ele>54.5</ele><time>2026-05-03T10:23:25.999Z</time></trkpt><trkpt lat="42.06769534252584" lon="11.884089126933956"><ele>55.0</ele><time>2026-05-03T10:23:26.999Z</time></trkpt><trkpt lat="42.06782074440631" lon="11.884125344258337"><ele>55.5</ele><time>2026-05-03T10:23:27.999Z</time></trkpt><trkpt lat="42.067938936388735" lon="11.884162596964504"><ele>56.0</ele><time>2026-05-03T10:23:28.999Z</time></trkpt><trkpt lat="42.06805944016986" lon="11.884201805471612"><ele>56.0</ele><time>2026-05-03T10:23:29.999Z</time></trkpt><trkpt lat="42.06818185733851" lon="11.884236769927181"><ele>56.0</ele><time>2026-05-03T10:23:30.999Z</time></trkpt><trkpt lat="42.068300577672545" lon="11.884267441347163"><ele>56.0</ele><time>2026-05-03T10:23:31.999Z</time></trkpt><trkpt lat="42.06841349040879" lon="11.884302239394314"><ele>56.0</ele><time>2026-05-03T10:23:32.999Z</time></trkpt><trkpt lat="42.06850759923949" lon="11.884327189369595"><ele>55.8</ele><time>2026-05-03T10:23:33.999Z</time></trkpt><trkpt lat="42.06861229646855" lon="11.88434676969726"><ele>55.599999999999994</ele><time>2026-05-03T10:23:34.999Z</time></trkpt><trkpt lat="42.06872555618577" lon="11.884353191393881"><ele>55.4</ele><time>2026-05-03T10:23:35.999Z</time></trkpt><trkpt lat="42.06883192195679" lon="11.88435278519213"><ele>55.2</ele><time>2026-05-03T10:23:36.999Z</time></trkpt><trkpt lat="42.06892966746951" lon="11.884351336541286"><ele>55.0</ele><time>2026-05-03T10:23:37.999Z</time></trkpt><trkpt lat="42.06901928845791" lon="11.884339726971776"><ele>55.49999999999999</ele><time>2026-05-03T10:23:38.999Z</time></trkpt><trkpt lat="42.06911304844285" lon="11.884329201880794"><ele>56.0</ele><time>2026-05-03T10:23:39.999Z</time></trkpt><trkpt lat="42.06919539007048" lon="11.884344122777915"><ele>56.5</ele><time>2026-05-03T10:23:40.999Z</time></trkpt><trkpt lat="42.06927836588135" lon="11.884377427455025"><ele>57.0</ele><time>2026-05-03T10:23:41.999Z</time></trkpt><trkpt lat="42.069334336334656" lon="11.884447158508106"><ele>57.49999999999999</ele><time>2026-05-03T10:23:42.999Z</time></trkpt><trkpt lat="42.06939980469991" lon="11.884516016016546"><ele>58.0</ele><time>2026-05-03T10:23:43.999Z</time></trkpt><trkpt lat="42.06947385852806" lon="11.88455096115256"><ele>57.99999999999999</ele><time>2026-05-03T10:23:44.999Z</time></trkpt><trkpt lat="42.069536964033645" lon="11.884602434842556"><ele>58.0</ele><time>2026-05-03T10:23:45.999Z</time></trkpt><trkpt lat="42.069598908252935" lon="11.88462681224185"><ele>58.0</ele><time>2026-05-03T10:23:46.999Z</time></trkpt><trkpt lat="42.06968057064007" lon="11.884639145717552"><ele>58.0</ele><time>2026-05-03T10:23:47.999Z</time></trkpt><trkpt lat="42.06977257513549" lon="11.884654006006588"><ele>57.99999999999999</ele><time>2026-05-03T10:23:48.999Z</time></trkpt><trkpt lat="42.0698639287592" lon="11.884658358797777"><ele>58.0</ele><time>2026-05-03T10:23:49.999Z</time></trkpt><trkpt lat="42.06996211525027" lon="11.884658719983138"><ele>58.666666666666664</ele><time>2026-05-03T10:23:50.999Z</time></trkpt><trkpt lat="42.07005262249105" lon="11.884661742456963"><ele>59.33333333333333</ele><time>2026-05-03T10:23:51.999Z</time></trkpt><trkpt lat="42.07014178920633" lon="11.884657387335677"><ele>60.0</ele><time>2026-05-03T10:23:52.999Z</time></trkpt><trkpt lat="42.0702138787369" lon="11.884664876106523"><ele>60.66666666666667</ele><time>2026-05-03T10:23:53.999Z</time></trkpt><trkpt lat="42.070276346386045" lon="11.884679197845793"><ele>61.333333333333336</ele><time>2026-05-03T10:23:54.999Z</time></trkpt><trkpt lat="42.07034809514914" lon="11.884694202124603"><ele>62.0</ele><time>2026-05-03T10:23:55.999Z</time></trkpt><trkpt lat="42.070428477044864" lon="11.884703349713666"><ele>62.00000000000001</ele><time>2026-05-03T10:23:56.999Z</time></trkpt><trkpt lat="42.07050146767167" lon="11.88470906953284"><ele>62.0</ele><time>2026-05-03T10:23:57.999Z</time></trkpt><trkpt lat="42.07057694555712" lon="11.884717185665027"><ele>62.0</ele><time>2026-05-03T10:23:58.999Z</time></trkpt><trkpt lat="42.070658776385" lon="11.884725087122556"><ele>62.0</ele><time>2026-05-03T10:23:59.999Z</time></trkpt><trkpt lat="42.07074200317539" lon="11.884731528118666"><ele>62.00000000000001</ele><time>2026-05-03T10:24:00.999Z</time></trkpt><trkpt lat="42.070806265425" lon="11.88472927973561"><ele>62.0</ele><time>2026-05-03T10:24:01.999Z</time></trkpt><trkpt lat="42.07092268280833" lon="11.884713430157808"><ele>62.0</ele><time>2026-05-03T10:24:03.999Z</time></trkpt><trkpt lat="42.070988808313764" lon="11.884692635795334"><ele>62.0</ele><time>2026-05-03T10:24:04.999Z</time></trkpt><trkpt lat="42.07111192166861" lon="11.88463728470844"><ele>62.0</ele><time>2026-05-03T10:24:06.999Z</time></trkpt><trkpt lat="42.07117120438045" lon="11.884600437840316"><ele>62.0</ele><time>2026-05-03T10:24:07.999Z</time></trkpt><trkpt lat="42.071278275412155" lon="11.884589498684013"><ele>62.0</ele><time>2026-05-03T10:24:09.999Z</time></trkpt><trkpt lat="42.07139864403779" lon="11.884600019928493"><ele>62.00000000000001</ele><time>2026-05-03T10:24:11.999Z</time></trkpt><trkpt lat="42.071496419928955" lon="11.884610338514918"><ele>62.0</ele><time>2026-05-03T10:24:13.999Z</time></trkpt><trkpt lat="42.07156000539764" lon="11.884610152209367"><ele>62.0</ele><time>2026-05-03T10:24:15.999Z</time></trkpt><trkpt lat="42.07164682122713" lon="11.884611287456353"><ele>62.0</ele><time>2026-05-03T10:24:18.999Z</time></trkpt><trkpt lat="42.071718227541176" lon="11.884576285824814"><ele>62.00000000000001</ele><time>2026-05-03T10:24:48.999Z</time></trkpt><trkpt lat="42.07176876161467" lon="11.884498662149246"><ele>62.0</ele><time>2026-05-03T10:24:52.999Z</time></trkpt><trkpt lat="42.071822020996535" lon="11.88444095320807"><ele>62.400000000000006</ele><time>2026-05-03T10:26:05.999Z</time></trkpt><trkpt lat="42.07191833567897" lon="11.884368904148689"><ele>62.800000000000004</ele><time>2026-05-03T10:26:07.999Z</time></trkpt><trkpt lat="42.071999056708435" lon="11.884329515516935"><ele>63.2</ele><time>2026-05-03T10:26:09.999Z</time></trkpt><trkpt lat="42.07209734331378" lon="11.884310867248171"><ele>63.6</ele><time>2026-05-03T10:26:24.999Z</time></trkpt><trkpt lat="42.072192560756804" lon="11.884286930968466"><ele>64.0</ele><time>2026-05-03T10:26:26.999Z</time></trkpt><trkpt lat="42.072299414272784" lon="11.884263186102784"><ele>63.99999999999999</ele><time>2026-05-03T10:26:28.999Z</time></trkpt><trkpt lat="42.07236587889026" lon="11.884266736053938"><ele>64.0</ele><time>2026-05-03T10:26:29.999Z</time></trkpt><trkpt lat="42.07243006599514" lon="11.884269943923863"><ele>64.0</ele><time>2026-05-03T10:26:30.999Z</time></trkpt><trkpt lat="42.07250045875437" lon="11.884270755300745"><ele>64.0</ele><time>2026-05-03T10:26:31.999Z</time></trkpt><trkpt lat="42.07258836107118" lon="11.884272454027618"><ele>63.99999999999999</ele><time>2026-05-03T10:26:32.999Z</time></trkpt><trkpt lat="42.07268574631218" lon="11.884272521434838"><ele>64.0</ele><time>2026-05-03T10:26:33.999Z</time></trkpt><trkpt lat="42.07277349657711" lon="11.884287238835505"><ele>65.0</ele><time>2026-05-03T10:26:34.999Z</time></trkpt><trkpt lat="42.07285662419816" lon="11.884302229967936"><ele>66.0</ele><time>2026-05-03T10:26:35.999Z</time></trkpt><trkpt lat="42.07294036473658" lon="11.884311920842336"><ele>67.0</ele><time>2026-05-03T10:26:36.999Z</time></trkpt><trkpt lat="42.07302611320078" lon="11.884308810059718"><ele>68.0</ele><time>2026-05-03T10:26:37.999Z</time></trkpt><trkpt lat="42.07311164121109" lon="11.884280726653804"><ele>69.0</ele><time>2026-05-03T10:26:38.999Z</time></trkpt><trkpt lat="42.073203655777824" lon="11.884242908135887"><ele>70.0</ele><time>2026-05-03T10:26:39.999Z</time></trkpt><trkpt lat="42.073297887429504" lon="11.884202587866094"><ele>70.33333333333333</ele><time>2026-05-03T10:26:40.999Z</time></trkpt><trkpt lat="42.07339840887834" lon="11.884173371952738"><ele>70.66666666666666</ele><time>2026-05-03T10:26:41.999Z</time></trkpt><trkpt lat="42.07348664535749" lon="11.88416663843975"><ele>71.0</ele><time>2026-05-03T10:26:42.999Z</time></trkpt><trkpt lat="42.07355813842666" lon="11.88417926755856"><ele>71.33333333333333</ele><time>2026-05-03T10:26:43.999Z</time></trkpt><trkpt lat="42.073632665185414" lon="11.884190329860402"><ele>71.66666666666667</ele><time>2026-05-03T10:26:44.999Z</time></trkpt><trkpt lat="42.07370980287569" lon="11.884189841538834"><ele>72.0</ele><time>2026-05-03T10:26:45.999Z</time></trkpt><trkpt lat="42.073805045080725" lon="11.884172762506394"><ele>72.0</ele><time>2026-05-03T10:26:46.999Z</time></trkpt><trkpt lat="42.073914294307144" lon="11.884172544491882"><ele>72.0</ele><time>2026-05-03T10:26:47.999Z</time></trkpt><trkpt lat="42.0740149155374" lon="11.884202022280988"><ele>72.0</ele><time>2026-05-03T10:26:48.999Z</time></trkpt><trkpt lat="42.074109889099546" lon="11.884245181601608"><ele>72.0</ele><time>2026-05-03T10:26:49.999Z</time></trkpt><trkpt lat="42.07420364593615" lon="11.884282324523635"><ele>72.0</ele><time>2026-05-03T10:26:50.999Z</time></trkpt><trkpt lat="42.074297619559495" lon="11.884308093242224"><ele>73.6</ele><time>2026-05-03T10:26:51.999Z</time></trkpt><trkpt lat="42.074394075219104" lon="11.884327869400183"><ele>75.2</ele><time>2026-05-03T10:26:52.999Z</time></trkpt><trkpt lat="42.074488787242096" lon="11.884343875599495"><ele>76.8</ele><time>2026-05-03T10:26:53.999Z</time></trkpt><trkpt lat="42.07458053584163" lon="11.884373573755724"><ele>78.4</ele><time>2026-05-03T10:26:54.999Z</time></trkpt><trkpt lat="42.07465378154888" lon="11.88441751793355"><ele>80.0</ele><time>2026-05-03T10:26:55.999Z</time></trkpt><trkpt lat="42.07474414768669" lon="11.884462768847964"><ele>80.0</ele><time>2026-05-03T10:26:56.999Z</time></trkpt><trkpt lat="42.07482854709138" lon="11.884491920213467"><ele>80.0</ele><time>2026-05-03T10:26:57.999Z</time></trkpt><trkpt lat="42.074911865228145" lon="11.88450413313128"><ele>80.0</ele><time>2026-05-03T10:26:58.999Z</time></trkpt><trkpt lat="42.075002415623416" lon="11.884514153305224"><ele>80.0</ele><time>2026-05-03T10:26:59.999Z</time></trkpt><trkpt lat="42.07508637702272" lon="11.88451099174448"><ele>80.0</ele><time>2026-05-03T10:27:00.999Z</time></trkpt><trkpt lat="42.07517776802895" lon="11.884507583590311"><ele>80.0</ele><time>2026-05-03T10:27:01.999Z</time></trkpt><trkpt lat="42.07526654663368" lon="11.884503653952414"><ele>79.83333333333334</ele><time>2026-05-03T10:27:02.999Z</time></trkpt><trkpt lat="42.07535199659572" lon="11.88449714421166"><ele>79.66666666666667</ele><time>2026-05-03T10:27:03.999Z</time></trkpt><trkpt lat="42.07541890032411" lon="11.88451008998364"><ele>79.5</ele><time>2026-05-03T10:27:04.999Z</time></trkpt><trkpt lat="42.07550655369629" lon="11.884528930315525"><ele>79.33333333333333</ele><time>2026-05-03T10:27:05.999Z</time></trkpt><trkpt lat="42.07558925453854" lon="11.884550105248126"><ele>79.16666666666666</ele><time>2026-05-03T10:27:06.999Z</time></trkpt><trkpt lat="42.075667354434806" lon="11.88457245856019"><ele>79.0</ele><time>2026-05-03T10:27:07.999Z</time></trkpt><trkpt lat="42.07578567645792" lon="11.884583982683433"><ele>78.5</ele><time>2026-05-03T10:27:08.999Z</time></trkpt><trkpt lat="42.07588624462758" lon="11.884583652829297"><ele>78.0</ele><time>2026-05-03T10:27:09.999Z</time></trkpt><trkpt lat="42.07596488346844" lon="11.884579403479831"><ele>77.5</ele><time>2026-05-03T10:27:10.999Z</time></trkpt><trkpt lat="42.076045396065034" lon="11.884594748755832"><ele>77.0</ele><time>2026-05-03T10:27:11.999Z</time></trkpt><trkpt lat="42.07611964495871" lon="11.884629899979403"><ele>76.5</ele><time>2026-05-03T10:27:12.999Z</time></trkpt><trkpt lat="42.07618934159949" lon="11.884661079431181"><ele>76.0</ele><time>2026-05-03T10:27:13.999Z</time></trkpt><trkpt lat="42.07627191278231" lon="11.884683325091467"><ele>76.0</ele><time>2026-05-03T10:27:14.999Z</time></trkpt><trkpt lat="42.076352256935856" lon="11.884708671568168"><ele>76.0</ele><time>2026-05-03T10:27:15.999Z</time></trkpt><trkpt lat="42.076418303232884" lon="11.884724478417073"><ele>76.0</ele><time>2026-05-03T10:27:16.999Z</time></trkpt><trkpt lat="42.07653350052685" lon="11.884758475789269"><ele>76.0</ele><time>2026-05-03T10:27:18.999Z</time></trkpt><trkpt lat="42.07667960198994" lon="11.884815730869075"><ele>76.0</ele><time>2026-05-03T10:27:20.999Z</time></trkpt><trkpt lat="42.076761877801744" lon="11.884841867985632"><ele>76.16666666666666</ele><time>2026-05-03T10:27:21.999Z</time></trkpt><trkpt lat="42.0768264205955" lon="11.884858395744752"><ele>76.33333333333333</ele><time>2026-05-03T10:27:22.999Z</time></trkpt><trkpt lat="42.07695302696664" lon="11.88483991269043"><ele>76.5</ele><time>2026-05-03T10:27:24.999Z</time></trkpt><trkpt lat="42.07703094995619" lon="11.884810955788826"><ele>76.66666666666667</ele><time>2026-05-03T10:27:25.999Z</time></trkpt><trkpt lat="42.07710810912541" lon="11.884777922683812"><ele>76.83333333333334</ele><time>2026-05-03T10:27:26.999Z</time></trkpt><trkpt lat="42.07718541910966" lon="11.884760167450043"><ele>77.0</ele><time>2026-05-03T10:27:27.999Z</time></trkpt><trkpt lat="42.077260398749345" lon="11.884760628641985"><ele>77.0</ele><time>2026-05-03T10:27:28.999Z</time></trkpt><trkpt lat="42.0773276206024" lon="11.884779619993706"><ele>77.0</ele><time>2026-05-03T10:27:29.999Z</time></trkpt><trkpt lat="42.07739564711555" lon="11.884812858959982"><ele>77.0</ele><time>2026-05-03T10:27:30.999Z</time></trkpt><trkpt lat="42.07745961992507" lon="11.884849144983795"><ele>77.0</ele><time>2026-05-03T10:27:31.999Z</time></trkpt><trkpt lat="42.07753262795752" lon="11.884889768185838"><ele>77.0</ele><time>2026-05-03T10:27:32.999Z</time></trkpt><trkpt lat="42.07760514578274" lon="11.884926714443704"><ele>77.0</ele><time>2026-05-03T10:27:33.999Z</time></trkpt><trkpt lat="42.07768467580626" lon="11.884961618085425"><ele>77.0</ele><time>2026-05-03T10:27:34.999Z</time></trkpt><trkpt lat="42.077774656658114" lon="11.885002650673524"><ele>77.0</ele><time>2026-05-03T10:27:35.999Z</time></trkpt><trkpt lat="42.07785949552176" lon="11.885057087030578"><ele>77.0</ele><time>2026-05-03T10:27:36.999Z</time></trkpt><trkpt lat="42.07792642869304" lon="11.885109502877489"><ele>77.0</ele><time>2026-05-03T10:27:37.999Z</time></trkpt><trkpt lat="42.07800021347704" lon="11.885175433431755"><ele>77.0</ele><time>2026-05-03T10:27:38.999Z</time></trkpt><trkpt lat="42.07807196509796" lon="11.8852482250213"><ele>77.0</ele><time>2026-05-03T10:27:39.999Z</time></trkpt><trkpt lat="42.07813981751427" lon="11.88531958436392"><ele>76.83333333333334</ele><time>2026-05-03T10:27:40.999Z</time></trkpt><trkpt lat="42.078211566197034" lon="11.885378326013036"><ele>76.66666666666667</ele><time>2026-05-03T10:27:41.999Z</time></trkpt><trkpt lat="42.07827879299777" lon="11.885448211767766"><ele>76.5</ele><time>2026-05-03T10:27:42.999Z</time></trkpt><trkpt lat="42.07835432505057" lon="11.88552682533199"><ele>76.33333333333333</ele><time>2026-05-03T10:27:43.999Z</time></trkpt><trkpt lat="42.078425445634686" lon="11.885601523918485"><ele>76.16666666666666</ele><time>2026-05-03T10:27:44.999Z</time></trkpt><trkpt lat="42.07850125627199" lon="11.885674792610516"><ele>76.0</ele><time>2026-05-03T10:27:45.999Z</time></trkpt><trkpt lat="42.078570871620535" lon="11.885753815496292"><ele>76.39999999999999</ele><time>2026-05-03T10:27:46.999Z</time></trkpt><trkpt lat="42.07863793803087" lon="11.885853843287336"><ele>76.8</ele><time>2026-05-03T10:27:47.999Z</time></trkpt><trkpt lat="42.07870998840476" lon="11.885953698258692"><ele>77.19999999999999</ele><time>2026-05-03T10:27:48.999Z</time></trkpt><trkpt lat="42.07877490281756" lon="11.88603888108055"><ele>77.6</ele><time>2026-05-03T10:27:49.999Z</time></trkpt><trkpt lat="42.07883832917673" lon="11.886140020412288"><ele>78.0</ele><time>2026-05-03T10:27:50.999Z</time></trkpt><trkpt lat="42.078900052017936" lon="11.886231838923772"><ele>78.0</ele><time>2026-05-03T10:27:51.999Z</time></trkpt><trkpt lat="42.07895807256429" lon="11.886316149589996"><ele>78.0</ele><time>2026-05-03T10:27:52.999Z</time></trkpt><trkpt lat="42.079015086598524" lon="11.886397602973634"><ele>78.0</ele><time>2026-05-03T10:27:53.999Z</time></trkpt><trkpt lat="42.07907281613952" lon="11.886470305260971"><ele>78.0</ele><time>2026-05-03T10:27:54.999Z</time></trkpt><trkpt lat="42.079136307843164" lon="11.886513107531416"><ele>78.0</ele><time>2026-05-03T10:27:55.999Z</time></trkpt><trkpt lat="42.07920316929536" lon="11.886551617476389"><ele>78.0</ele><time>2026-05-03T10:27:56.999Z</time></trkpt><trkpt lat="42.07926442357579" lon="11.886585383366178"><ele>77.6</ele><time>2026-05-03T10:27:57.999Z</time></trkpt><trkpt lat="42.07939653547972" lon="11.886619783031842"><ele>77.19999999999999</ele><time>2026-05-03T10:27:59.999Z</time></trkpt><trkpt lat="42.0794821347305" lon="11.886627381295405"><ele>76.8</ele><time>2026-05-03T10:28:00.999Z</time></trkpt><trkpt lat="42.079551901982896" lon="11.886633611485827"><ele>76.39999999999999</ele><time>2026-05-03T10:28:01.999Z</time></trkpt><trkpt lat="42.079621124066755" lon="11.886632958353816"><ele>76.0</ele><time>2026-05-03T10:28:02.999Z</time></trkpt><trkpt lat="42.07971473454034" lon="11.886680318142291"><ele>76.0</ele><time>2026-05-03T10:28:04.999Z</time></trkpt><trkpt lat="42.07976522517745" lon="11.886747531327666"><ele>76.0</ele><time>2026-05-03T10:28:05.999Z</time></trkpt><trkpt lat="42.07981927387408" lon="11.886813413162647"><ele>76.0</ele><time>2026-05-03T10:28:06.999Z</time></trkpt><trkpt lat="42.0798700619675" lon="11.886874867764211"><ele>76.0</ele><time>2026-05-03T10:28:07.999Z</time></trkpt><trkpt lat="42.079967733904695" lon="11.886918464564634"><ele>76.0</ele><time>2026-05-03T10:28:09.999Z</time></trkpt><trkpt lat="42.08006432337539" lon="11.886900197515759"><ele>76.0</ele><time>2026-05-03T10:28:11.999Z</time></trkpt><trkpt lat="42.080128407203865" lon="11.886872960208503"><ele>76.5</ele><time>2026-05-03T10:28:12.999Z</time></trkpt><trkpt lat="42.08020561952284" lon="11.886845175991196"><ele>77.0</ele><time>2026-05-03T10:28:13.999Z</time></trkpt><trkpt lat="42.08028894411277" lon="11.886835609808891"><ele>77.5</ele><time>2026-05-03T10:28:14.999Z</time></trkpt><trkpt lat="42.08037243771103" lon="11.88683604049866"><ele>78.0</ele><time>2026-05-03T10:28:15.999Z</time></trkpt><trkpt lat="42.08044526396348" lon="11.886830909130644"><ele>78.5</ele><time>2026-05-03T10:28:16.999Z</time></trkpt><trkpt lat="42.080549677523635" lon="11.886785189729833"><ele>79.0</ele><time>2026-05-03T10:28:18.999Z</time></trkpt><trkpt lat="42.08058882069376" lon="11.886695763495325"><ele>79.0</ele><time>2026-05-03T10:28:21.999Z</time></trkpt><trkpt lat="42.080645310596346" lon="11.886651716714878"><ele>79.0</ele><time>2026-05-03T10:28:33.999Z</time></trkpt><trkpt lat="42.08072893809839" lon="11.886632529294086"><ele>79.0</ele><time>2026-05-03T10:28:35.999Z</time></trkpt><trkpt lat="42.08079739116167" lon="11.886600580807839"><ele>79.0</ele><time>2026-05-03T10:28:38.999Z</time></trkpt><trkpt lat="42.08084817686578" lon="11.88654039504857"><ele>79.0</ele><time>2026-05-03T10:28:40.999Z</time></trkpt><trkpt lat="42.08089384986961" lon="11.88646334105671"><ele>79.0</ele><time>2026-05-03T10:28:42.999Z</time></trkpt><trkpt lat="42.08091486730281" lon="11.886348296250537"><ele>79.5</ele><time>2026-05-03T10:28:59.999Z</time></trkpt><trkpt lat="42.080952543843495" lon="11.886228916357968"><ele>80.0</ele><time>2026-05-03T10:29:01.999Z</time></trkpt><trkpt lat="42.08100377475068" lon="11.886107257418397"><ele>80.5</ele><time>2026-05-03T10:29:03.999Z</time></trkpt><trkpt lat="42.08108724075938" lon="11.886012567483574"><ele>81.0</ele><time>2026-05-03T10:29:05.999Z</time></trkpt><trkpt lat="42.08121030420479" lon="11.885896920414396"><ele>81.5</ele><time>2026-05-03T10:29:07.999Z</time></trkpt><trkpt lat="42.08126829230425" lon="11.885823100039822"><ele>82.0</ele><time>2026-05-03T10:29:08.999Z</time></trkpt><trkpt lat="42.0813136163115" lon="11.88575927143751"><ele>82.5</ele><time>2026-05-03T10:29:09.999Z</time></trkpt><trkpt lat="42.08136228566842" lon="11.885703768142232"><ele>83.0</ele><time>2026-05-03T10:29:10.999Z</time></trkpt><trkpt lat="42.081461247484654" lon="11.885598970788477"><ele>83.5</ele><time>2026-05-03T10:29:12.999Z</time></trkpt><trkpt lat="42.08154884742064" lon="11.885513076473138"><ele>84.0</ele><time>2026-05-03T10:29:14.999Z</time></trkpt><trkpt lat="42.0816145018088" lon="11.88546038636269"><ele>84.0</ele><time>2026-05-03T10:29:15.999Z</time></trkpt><trkpt lat="42.081695336518386" lon="11.885406419321988"><ele>84.0</ele><time>2026-05-03T10:29:16.999Z</time></trkpt><trkpt lat="42.08179182665744" lon="11.885350004513292"><ele>84.0</ele><time>2026-05-03T10:29:17.999Z</time></trkpt><trkpt lat="42.08188593040597" lon="11.885301381301964"><ele>84.0</ele><time>2026-05-03T10:29:18.999Z</time></trkpt><trkpt lat="42.08198338637305" lon="11.885257469316736"><ele>84.0</ele><time>2026-05-03T10:29:19.999Z</time></trkpt><trkpt lat="42.082087743709806" lon="11.885211417581182"><ele>84.0</ele><time>2026-05-03T10:29:20.999Z</time></trkpt><trkpt lat="42.08218626746385" lon="11.88517718180154"><ele>84.0</ele><time>2026-05-03T10:29:21.999Z</time></trkpt><trkpt lat="42.08227821170799" lon="11.885163315271864"><ele>84.0</ele><time>2026-05-03T10:29:22.999Z</time></trkpt><trkpt lat="42.08235056808161" lon="11.885160143344859"><ele>84.0</ele><time>2026-05-03T10:29:23.999Z</time></trkpt><trkpt lat="42.08244384906017" lon="11.885169602342692"><ele>84.0</ele><time>2026-05-03T10:29:25.999Z</time></trkpt><trkpt lat="42.08251084249698" lon="11.88512360054899"><ele>84.0</ele><time>2026-05-03T10:29:27.999Z</time></trkpt><trkpt lat="42.08255883363308" lon="11.885050806588296"><ele>84.4</ele><time>2026-05-03T10:29:29.999Z</time></trkpt><trkpt lat="42.08263764194438" lon="11.884943161674734"><ele>84.80000000000001</ele><time>2026-05-03T10:29:31.999Z</time></trkpt><trkpt lat="42.08269549000492" lon="11.884842112758593"><ele>85.19999999999999</ele><time>2026-05-03T10:29:33.999Z</time></trkpt><trkpt lat="42.0827645166641" lon="11.884761745387797"><ele>85.6</ele><time>2026-05-03T10:29:35.999Z</time></trkpt><trkpt lat="42.08282498871487" lon="11.884721165989312"><ele>86.0</ele><time>2026-05-03T10:29:36.999Z</time></trkpt><trkpt lat="42.082900373030924" lon="11.884662048292228"><ele>86.0</ele><time>2026-05-03T10:29:37.999Z</time></trkpt><trkpt lat="42.0829828115625" lon="11.88460187307698"><ele>86.0</ele><time>2026-05-03T10:29:38.999Z</time></trkpt><trkpt lat="42.08306066455185" lon="11.884540779116602"><ele>86.0</ele><time>2026-05-03T10:29:39.999Z</time></trkpt><trkpt lat="42.08314952201431" lon="11.884485371103459"><ele>86.0</ele><time>2026-05-03T10:29:40.999Z</time></trkpt><trkpt lat="42.083226618535825" lon="11.884431869005402"><ele>86.0</ele><time>2026-05-03T10:29:41.999Z</time></trkpt><trkpt lat="42.08330834710713" lon="11.884382491885567"><ele>86.6</ele><time>2026-05-03T10:29:42.999Z</time></trkpt><trkpt lat="42.083394307534036" lon="11.884326797868813"><ele>87.19999999999999</ele><time>2026-05-03T10:29:43.999Z</time></trkpt><trkpt lat="42.08347448987815" lon="11.884267879802575"><ele>87.80000000000001</ele><time>2026-05-03T10:29:44.999Z</time></trkpt><trkpt lat="42.08356131034257" lon="11.884207799445988"><ele>88.4</ele><time>2026-05-03T10:29:45.999Z</time></trkpt><trkpt lat="42.08364222368056" lon="11.88415184573829"><ele>89.0</ele><time>2026-05-03T10:29:46.999Z</time></trkpt><trkpt lat="42.08372408786423" lon="11.884093710552792"><ele>89.0</ele><time>2026-05-03T10:29:47.999Z</time></trkpt><trkpt lat="42.08379659682166" lon="11.88403199012443"><ele>89.0</ele><time>2026-05-03T10:29:48.999Z</time></trkpt><trkpt lat="42.08385389616778" lon="11.88398767833628"><ele>89.0</ele><time>2026-05-03T10:29:49.999Z</time></trkpt><trkpt lat="42.0839670677367" lon="11.88394544674464"><ele>89.0</ele><time>2026-05-03T10:29:51.999Z</time></trkpt><trkpt lat="42.08405106942614" lon="11.883937629169731"><ele>89.0</ele><time>2026-05-03T10:29:52.999Z</time></trkpt><trkpt lat="42.084152654928374" lon="11.883917999685504"><ele>89.83333333333334</ele><time>2026-05-03T10:29:53.999Z</time></trkpt><trkpt lat="42.08424392820945" lon="11.883887941199491"><ele>90.66666666666667</ele><time>2026-05-03T10:29:54.999Z</time></trkpt><trkpt lat="42.08432325537003" lon="11.883858760519251"><ele>91.5</ele><time>2026-05-03T10:29:55.999Z</time></trkpt><trkpt lat="42.084386484815084" lon="11.883839344530957"><ele>92.33333333333333</ele><time>2026-05-03T10:29:56.999Z</time></trkpt><trkpt lat="42.084459486497515" lon="11.883837571360322"><ele>93.16666666666666</ele><time>2026-05-03T10:29:57.999Z</time></trkpt><trkpt lat="42.084535870822755" lon="11.883848014241181"><ele>94.0</ele><time>2026-05-03T10:29:58.999Z</time></trkpt><trkpt lat="42.08461715548087" lon="11.883868287507193"><ele>94.0</ele><time>2026-05-03T10:29:59.999Z</time></trkpt><trkpt lat="42.08468379604016" lon="11.883886433031847"><ele>94.0</ele><time>2026-05-03T10:30:00.999Z</time></trkpt><trkpt lat="42.08478635655253" lon="11.883919398831416"><ele>94.0</ele><time>2026-05-03T10:30:02.999Z</time></trkpt><trkpt lat="42.08484657875342" lon="11.883991602286141"><ele>94.0</ele><time>2026-05-03T10:30:12.999Z</time></trkpt><trkpt lat="42.084922785396316" lon="11.884063287820776"><ele>94.0</ele><time>2026-05-03T10:30:14.999Z</time></trkpt><trkpt lat="42.08497667306847" lon="11.884119378502486"><ele>94.0</ele><time>2026-05-03T10:30:15.999Z</time></trkpt><trkpt lat="42.08506584706746" lon="11.88422825446206"><ele>97.0</ele><time>2026-05-03T10:30:17.999Z</time></trkpt><trkpt lat="42.085137103530045" lon="11.884342645363311"><ele>100.0</ele><time>2026-05-03T10:30:19.999Z</time></trkpt><trkpt lat="42.085211916150236" lon="11.884461229806268"><ele>103.0</ele><time>2026-05-03T10:30:21.999Z</time></trkpt><trkpt lat="42.08525925896" lon="11.884552304667334"><ele>106.0</ele><time>2026-05-03T10:30:23.999Z</time></trkpt><trkpt lat="42.08528573082026" lon="11.884701605401453"><ele>109.0</ele><time>2026-05-03T10:30:25.999Z</time></trkpt><trkpt lat="42.08529115765768" lon="11.88486139805151"><ele>109.00000000000001</ele><time>2026-05-03T10:30:27.999Z</time></trkpt><trkpt lat="42.08524299519514" lon="11.884977233540177"><ele>109.0</ele><time>2026-05-03T10:30:29.999Z</time></trkpt><trkpt lat="42.085225399841796" lon="11.885083703851077"><ele>109.0</ele><time>2026-05-03T10:30:31.999Z</time></trkpt><trkpt lat="42.0852284234988" lon="11.885176453447295"><ele>109.0</ele><time>2026-05-03T10:30:33.999Z</time></trkpt><trkpt lat="42.085181174955416" lon="11.88530518732523"><ele>109.00000000000001</ele><time>2026-05-03T10:30:35.999Z</time></trkpt><trkpt lat="42.08516366881286" lon="11.885386694939584"><ele>109.0</ele><time>2026-05-03T10:30:36.999Z</time></trkpt><trkpt lat="42.08516022144215" lon="11.88548119906191"><ele>110.66666666666667</ele><time>2026-05-03T10:30:37.999Z</time></trkpt><trkpt lat="42.08514470864709" lon="11.885582024674806"><ele>112.33333333333334</ele><time>2026-05-03T10:30:38.999Z</time></trkpt><trkpt lat="42.08512552484332" lon="11.885686474496781"><ele>114.0</ele><time>2026-05-03T10:30:39.999Z</time></trkpt><trkpt lat="42.085108524806444" lon="11.885799018298217"><ele>115.66666666666666</ele><time>2026-05-03T10:30:40.999Z</time></trkpt><trkpt lat="42.08510173232936" lon="11.885907422020084"><ele>117.33333333333333</ele><time>2026-05-03T10:30:41.999Z</time></trkpt><trkpt lat="42.085097116187605" lon="11.886022121634129"><ele>119.0</ele><time>2026-05-03T10:30:42.999Z</time></trkpt><trkpt lat="42.08509859123586" lon="11.886131639914222"><ele>119.80000000000001</ele><time>2026-05-03T10:30:43.999Z</time></trkpt><trkpt lat="42.085116600015496" lon="11.886218712928946"><ele>120.60000000000001</ele><time>2026-05-03T10:30:44.999Z</time></trkpt><trkpt lat="42.08514559990168" lon="11.886333254365212"><ele>121.4</ele><time>2026-05-03T10:30:45.999Z</time></trkpt><trkpt lat="42.08517227478913" lon="11.886453563314836"><ele>122.2</ele><time>2026-05-03T10:30:46.999Z</time></trkpt><trkpt lat="42.085194610502725" lon="11.886599960722071"><ele>123.0</ele><time>2026-05-03T10:30:47.999Z</time></trkpt><trkpt lat="42.08522092758356" lon="11.886748715001662"><ele>123.80000000000001</ele><time>2026-05-03T10:30:48.999Z</time></trkpt><trkpt lat="42.08524854753992" lon="11.886869348744538"><ele>124.60000000000001</ele><time>2026-05-03T10:30:49.999Z</time></trkpt><trkpt lat="42.085284309051104" lon="11.886984748271159"><ele>125.39999999999999</ele><time>2026-05-03T10:30:50.999Z</time></trkpt><trkpt lat="42.08533155029513" lon="11.887107794541047"><ele>126.19999999999999</ele><time>2026-05-03T10:30:51.999Z</time></trkpt><trkpt lat="42.085379644913914" lon="11.88722806935344"><ele>127.0</ele><time>2026-05-03T10:30:52.999Z</time></trkpt><trkpt lat="42.085421295827565" lon="11.887345630017741"><ele>127.0</ele><time>2026-05-03T10:30:53.999Z</time></trkpt><trkpt lat="42.085469453378096" lon="11.887461551134631"><ele>126.99999999999999</ele><time>2026-05-03T10:30:54.999Z</time></trkpt><trkpt lat="42.08551643283374" lon="11.88758395066512"><ele>126.99999999999999</ele><time>2026-05-03T10:30:55.999Z</time></trkpt><trkpt lat="42.085561528468354" lon="11.887698230310031"><ele>127.0</ele><time>2026-05-03T10:30:56.999Z</time></trkpt><trkpt lat="42.08559945035209" lon="11.88777550680912"><ele>127.0</ele><time>2026-05-03T10:30:57.999Z</time></trkpt><trkpt lat="42.08565930426414" lon="11.887882309135241"><ele>127.8</ele><time>2026-05-03T10:30:59.999Z</time></trkpt><trkpt lat="42.08571893376742" lon="11.88795476014288"><ele>128.6</ele><time>2026-05-03T10:31:01.999Z</time></trkpt><trkpt lat="42.08581620787331" lon="11.888049338632646"><ele>129.39999999999998</ele><time>2026-05-03T10:31:03.999Z</time></trkpt><trkpt lat="42.085871882982765" lon="11.888110812826573"><ele>130.2</ele><time>2026-05-03T10:31:04.999Z</time></trkpt><trkpt lat="42.085933680848065" lon="11.888220367472572"><ele>131.0</ele><time>2026-05-03T10:31:06.999Z</time></trkpt><trkpt lat="42.08599421255862" lon="11.888355105937213"><ele>134.4</ele><time>2026-05-03T10:31:09.999Z</time></trkpt><trkpt lat="42.086021629664" lon="11.888439748395152"><ele>137.8</ele><time>2026-05-03T10:31:10.999Z</time></trkpt><trkpt lat="42.08604453777174" lon="11.888543101566357"><ele>141.20000000000002</ele><time>2026-05-03T10:31:11.999Z</time></trkpt><trkpt lat="42.086073633489235" lon="11.8886349279409"><ele>144.6</ele><time>2026-05-03T10:31:12.999Z</time></trkpt><trkpt lat="42.08613358018105" lon="11.888761454388165"><ele>148.0</ele><time>2026-05-03T10:31:14.999Z</time></trkpt><trkpt lat="42.08619596874191" lon="11.888895805210915"><ele>148.0</ele><time>2026-05-03T10:31:16.999Z</time></trkpt><trkpt lat="42.08627348995292" lon="11.889042002105619"><ele>148.0</ele><time>2026-05-03T10:31:18.999Z</time></trkpt><trkpt lat="42.08632058772793" lon="11.88911406607846"><ele>148.0</ele><time>2026-05-03T10:31:19.999Z</time></trkpt><trkpt lat="42.0864219901421" lon="11.889187237978105"><ele>148.0</ele><time>2026-05-03T10:31:21.999Z</time></trkpt><trkpt lat="42.086495477550805" lon="11.889209933518748"><ele>148.0</ele><time>2026-05-03T10:31:22.999Z</time></trkpt><trkpt lat="42.08658365113539" lon="11.889235598966614"><ele>151.4</ele><time>2026-05-03T10:31:23.999Z</time></trkpt><trkpt lat="42.086668442519006" lon="11.889278410467314"><ele>154.8</ele><time>2026-05-03T10:31:24.999Z</time></trkpt><trkpt lat="42.086753758836245" lon="11.889342704748179"><ele>158.2</ele><time>2026-05-03T10:31:25.999Z</time></trkpt><trkpt lat="42.08683752552772" lon="11.889431304555295"><ele>161.6</ele><time>2026-05-03T10:31:26.999Z</time></trkpt><trkpt lat="42.0869267246709" lon="11.889519160393391"><ele>165.0</ele><time>2026-05-03T10:31:27.999Z</time></trkpt><trkpt lat="42.08700166396275" lon="11.889590150589166"><ele>165.0</ele><time>2026-05-03T10:31:28.999Z</time></trkpt><trkpt lat="42.08706813533441" lon="11.889653074300695"><ele>165.0</ele><time>2026-05-03T10:31:29.999Z</time></trkpt><trkpt lat="42.087129397699414" lon="11.889715006018285"><ele>165.0</ele><time>2026-05-03T10:31:30.999Z</time></trkpt><trkpt lat="42.08722604852621" lon="11.889794064861478"><ele>165.0</ele><time>2026-05-03T10:31:32.999Z</time></trkpt><trkpt lat="42.08726388208298" lon="11.88993382252408"><ele>165.0</ele><time>2026-05-03T10:31:34.999Z</time></trkpt><trkpt lat="42.08726249573759" lon="11.890020053230922"><ele>165.0</ele><time>2026-05-03T10:31:35.999Z</time></trkpt><trkpt lat="42.0872695435776" lon="11.890180303388016"><ele>166.6</ele><time>2026-05-03T10:31:37.999Z</time></trkpt><trkpt lat="42.08723359866356" lon="11.890324337431093"><ele>168.2</ele><time>2026-05-03T10:31:39.999Z</time></trkpt><trkpt lat="42.087190376159775" lon="11.890390601174232"><ele>169.8</ele><time>2026-05-03T10:31:40.999Z</time></trkpt><trkpt lat="42.08712089136132" lon="11.89051021664493"><ele>171.4</ele><time>2026-05-03T10:31:43Z</time></trkpt><trkpt lat="42.087096211829504" lon="11.89065485436431"><ele>173.0</ele><time>2026-05-03T10:31:44.999Z</time></trkpt><trkpt lat="42.08709105331262" lon="11.890745166285427"><ele>173.0</ele><time>2026-05-03T10:31:45.999Z</time></trkpt><trkpt lat="42.08708663825078" lon="11.890839586325392"><ele>173.0</ele><time>2026-05-03T10:31:46.999Z</time></trkpt><trkpt lat="42.08708787892099" lon="11.890935199804616"><ele>173.0</ele><time>2026-05-03T10:31:47.999Z</time></trkpt><trkpt lat="42.08710790252172" lon="11.891105467073132"><ele>173.0</ele><time>2026-05-03T10:31:50Z</time></trkpt><trkpt lat="42.087114207382456" lon="11.891204108569315"><ele>173.0</ele><time>2026-05-03T10:31:51Z</time></trkpt><trkpt lat="42.087116848669666" lon="11.891311743154201"><ele>173.0</ele><time>2026-05-03T10:31:52Z</time></trkpt><trkpt lat="42.08712105238352" lon="11.891414495697052"><ele>174.0</ele><time>2026-05-03T10:31:53Z</time></trkpt><trkpt lat="42.08712846829571" lon="11.89151224691198"><ele>175.0</ele><time>2026-05-03T10:31:54Z</time></trkpt><trkpt lat="42.087140205132066" lon="11.891619710418967"><ele>176.0</ele><time>2026-05-03T10:31:55Z</time></trkpt><trkpt lat="42.087154172207086" lon="11.891720954938789"><ele>177.0</ele><time>2026-05-03T10:31:56Z</time></trkpt><trkpt lat="42.08718487660767" lon="11.891822955927427"><ele>178.0</ele><time>2026-05-03T10:31:57Z</time></trkpt><trkpt lat="42.087224848419076" lon="11.891916393655556"><ele>179.0</ele><time>2026-05-03T10:31:58Z</time></trkpt><trkpt lat="42.08726458645799" lon="11.891985216610745"><ele>180.33333333333331</ele><time>2026-05-03T10:31:59Z</time></trkpt><trkpt lat="42.087332632277324" lon="11.892076613862463"><ele>181.66666666666666</ele><time>2026-05-03T10:32:01Z</time></trkpt><trkpt lat="42.08743054044056" lon="11.892138571578279"><ele>183.0</ele><time>2026-05-03T10:32:03Z</time></trkpt><trkpt lat="42.08747231454663" lon="11.892222417042035"><ele>184.33333333333334</ele><time>2026-05-03T10:32:05Z</time></trkpt><trkpt lat="42.08755156003296" lon="11.892261067677785"><ele>185.66666666666669</ele><time>2026-05-03T10:32:07Z</time></trkpt><trkpt lat="42.087614029282584" lon="11.89230405289267"><ele>187.0</ele><time>2026-05-03T10:32:09Z</time></trkpt><trkpt lat="42.087655637665996" lon="11.892384601296357"><ele>188.0</ele><time>2026-05-03T10:32:11Z</time></trkpt><trkpt lat="42.08762930785043" lon="11.892464034568771"><ele>189.0</ele><time>2026-05-03T10:32:13Z</time></trkpt><trkpt lat="42.087601936778924" lon="11.892563260171363"><ele>190.0</ele><time>2026-05-03T10:32:15Z</time></trkpt><trkpt lat="42.087599314280624" lon="11.892665374630015"><ele>191.0</ele><time>2026-05-03T10:32:17Z</time></trkpt><trkpt lat="42.08763043100653" lon="11.892754207824588"><ele>192.0</ele><time>2026-05-03T10:33:42.999Z</time></trkpt><trkpt lat="42.087652390759075" lon="11.892862424678475"><ele>193.0</ele><time>2026-05-03T10:33:47Z</time></trkpt><trkpt lat="42.08768083074437" lon="11.892951467076593"><ele>194.0</ele><time>2026-05-03T10:33:48Z</time></trkpt><trkpt lat="42.087728666581015" lon="11.89304687964739"><ele>195.33333333333334</ele><time>2026-05-03T10:33:49Z</time></trkpt><trkpt lat="42.087782222490546" lon="11.893137449785721"><ele>196.66666666666669</ele><time>2026-05-03T10:33:50Z</time></trkpt><trkpt lat="42.08782904421394" lon="11.893224792148594"><ele>198.0</ele><time>2026-05-03T10:33:51Z</time></trkpt><trkpt lat="42.087869240418094" lon="11.89332727562367"><ele>199.33333333333331</ele><time>2026-05-03T10:33:52Z</time></trkpt><trkpt lat="42.08790734518696" lon="11.893429923902493"><ele>200.66666666666666</ele><time>2026-05-03T10:33:53Z</time></trkpt><trkpt lat="42.08794582821026" lon="11.893526153999419"><ele>202.0</ele><time>2026-05-03T10:33:54Z</time></trkpt><trkpt lat="42.087984385014195" lon="11.893621659589819"><ele>203.2</ele><time>2026-05-03T10:33:55Z</time></trkpt><trkpt lat="42.088017997611914" lon="11.893718596389764"><ele>204.39999999999998</ele><time>2026-05-03T10:33:56Z</time></trkpt><trkpt lat="42.08806567661044" lon="11.893912690385484"><ele>205.60000000000002</ele><time>2026-05-03T10:33:58Z</time></trkpt><trkpt lat="42.08807755478413" lon="11.894007849995013"><ele>206.8</ele><time>2026-05-03T10:33:59Z</time></trkpt><trkpt lat="42.08810341826949" lon="11.894164249452242"><ele>208.0</ele><time>2026-05-03T10:34:01Z</time></trkpt><trkpt lat="42.08814311817878" lon="11.89428742991027"><ele>209.2</ele><time>2026-05-03T10:34:03Z</time></trkpt><trkpt lat="42.08817399159937" lon="11.894452350798852"><ele>210.4</ele><time>2026-05-03T10:34:05Z</time></trkpt><trkpt lat="42.088194359534626" lon="11.894575421600447"><ele>211.59999999999997</ele><time>2026-05-03T10:34:06Z</time></trkpt><trkpt lat="42.08821427408678" lon="11.894693532043844"><ele>212.79999999999998</ele><time>2026-05-03T10:34:07Z</time></trkpt><trkpt lat="42.08823145253816" lon="11.894797876190143"><ele>214.0</ele><time>2026-05-03T10:34:08Z</time></trkpt><trkpt lat="42.08824489442994" lon="11.894906797169515"><ele>214.0</ele><time>2026-05-03T10:34:10Z</time></trkpt><trkpt lat="42.088219905206955" lon="11.895030669095704"><ele>213.99999999999997</ele><time>2026-05-03T10:34:12Z</time></trkpt><trkpt lat="42.088162172858894" lon="11.89511206808513"><ele>213.99999999999997</ele><time>2026-05-03T10:34:14Z</time></trkpt><trkpt lat="42.08811025682714" lon="11.895206683852427"><ele>214.0</ele><time>2026-05-03T10:34:16Z</time></trkpt><trkpt lat="42.08804658534332" lon="11.895322871998248"><ele>214.0</ele><time>2026-05-03T10:34:18Z</time></trkpt><trkpt lat="42.08798208398052" lon="11.895458662453326"><ele>215.33333333333331</ele><time>2026-05-03T10:34:20Z</time></trkpt><trkpt lat="42.08795894154309" lon="11.895543730456318"><ele>216.66666666666666</ele><time>2026-05-03T10:34:21Z</time></trkpt><trkpt lat="42.087936342793945" lon="11.89565480375195"><ele>218.0</ele><time>2026-05-03T10:34:22Z</time></trkpt><trkpt lat="42.08790691580559" lon="11.895776346748868"><ele>219.33333333333331</ele><time>2026-05-03T10:34:23Z</time></trkpt><trkpt lat="42.087881195792846" lon="11.895898906059907"><ele>220.66666666666666</ele><time>2026-05-03T10:34:24Z</time></trkpt><trkpt lat="42.087860716884855" lon="11.896004764171778"><ele>222.0</ele><time>2026-05-03T10:34:25Z</time></trkpt><trkpt lat="42.08784606805161" lon="11.896105635115088"><ele>224.6</ele><time>2026-05-03T10:34:26Z</time></trkpt><trkpt lat="42.08783013731757" lon="11.896192626520326"><ele>227.2</ele><time>2026-05-03T10:34:27Z</time></trkpt><trkpt lat="42.08774555080227" lon="11.896330321655874"><ele>229.8</ele><time>2026-05-03T10:34:29Z</time></trkpt><trkpt lat="42.087689228414696" lon="11.896395167929931"><ele>232.4</ele><time>2026-05-03T10:34:30Z</time></trkpt><trkpt lat="42.08763979245037" lon="11.896462148091473"><ele>235.0</ele><time>2026-05-03T10:34:31Z</time></trkpt><trkpt lat="42.087536848016846" lon="11.896594789157236"><ele>234.99999999999997</ele><time>2026-05-03T10:34:33Z</time></trkpt><trkpt lat="42.08747763813887" lon="11.896667718743679"><ele>235.0</ele><time>2026-05-03T10:34:34Z</time></trkpt><trkpt lat="42.087421379833295" lon="11.896732111155732"><ele>235.0</ele><time>2026-05-03T10:34:35Z</time></trkpt><trkpt lat="42.087369675665315" lon="11.89678469253693"><ele>235.0</ele><time>2026-05-03T10:34:36Z</time></trkpt><trkpt lat="42.08730869276742" lon="11.896875445488988"><ele>234.99999999999997</ele><time>2026-05-03T10:34:37.999Z</time></trkpt><trkpt lat="42.087275874689055" lon="11.896987103024605"><ele>235.0</ele><time>2026-05-03T10:34:39.999Z</time></trkpt><trkpt lat="42.087306801448186" lon="11.897071524948926"><ele>235.6</ele><time>2026-05-03T10:34:41.999Z</time></trkpt><trkpt lat="42.08739557247623" lon="11.897134526743296"><ele>236.2</ele><time>2026-05-03T10:34:43.999Z</time></trkpt><trkpt lat="42.087484839629035" lon="11.897176386600927"><ele>236.8</ele><time>2026-05-03T10:34:45.999Z</time></trkpt><trkpt lat="42.08761285947316" lon="11.897176381085215"><ele>237.4</ele><time>2026-05-03T10:34:47.999Z</time></trkpt><trkpt lat="42.0877095562134" lon="11.89717659215193"><ele>238.0</ele><time>2026-05-03T10:34:48.999Z</time></trkpt><trkpt lat="42.087794987929115" lon="11.897174147499827"><ele>238.0</ele><time>2026-05-03T10:34:49.999Z</time></trkpt><trkpt lat="42.08786176012034" lon="11.897159553243736"><ele>238.0</ele><time>2026-05-03T10:34:51.999Z</time></trkpt><trkpt lat="42.08794365052601" lon="11.897165971438774"><ele>238.0</ele><time>2026-05-03T10:34:53.999Z</time></trkpt><trkpt lat="42.08801293976644" lon="11.897133668414286"><ele>238.0</ele><time>2026-05-03T10:34:55.999Z</time></trkpt><trkpt lat="42.08812585305166" lon="11.897089336993243"><ele>238.0</ele><time>2026-05-03T10:34:57.999Z</time></trkpt><trkpt lat="42.088247739578485" lon="11.897094522476396"><ele>240.66666666666666</ele><time>2026-05-03T10:34:59.999Z</time></trkpt><trkpt lat="42.088310894163385" lon="11.897096941496075"><ele>243.33333333333331</ele><time>2026-05-03T10:35:00.999Z</time></trkpt><trkpt lat="42.08837376218468" lon="11.897104356280238"><ele>246.0</ele><time>2026-05-03T10:35:01.999Z</time></trkpt><trkpt lat="42.08848890546991" lon="11.89711058421761"><ele>248.66666666666669</ele><time>2026-05-03T10:35:03.999Z</time></trkpt><trkpt lat="42.088558384236144" lon="11.897150620135228"><ele>251.33333333333334</ele><time>2026-05-03T10:35:05.999Z</time></trkpt><trkpt lat="42.08862619420676" lon="11.897230633349702"><ele>254.0</ele><time>2026-05-03T10:35:08.999Z</time></trkpt><trkpt lat="42.08867227790499" lon="11.897320978849965"><ele>254.00000000000003</ele><time>2026-05-03T10:41:44Z</time></trkpt><trkpt lat="42.088725162188744" lon="11.897398749359562"><ele>254.0</ele><time>2026-05-03T10:41:47Z</time></trkpt><trkpt lat="42.08877028350102" lon="11.897474608319659"><ele>254.0</ele><time>2026-05-03T10:41:49Z</time></trkpt><trkpt lat="42.08881786439063" lon="11.897573535457616"><ele>254.0</ele><time>2026-05-03T10:41:51Z</time></trkpt><trkpt lat="42.08889427841018" lon="11.897665022481196"><ele>254.00000000000003</ele><time>2026-05-03T10:41:53Z</time></trkpt><trkpt lat="42.08895049558085" lon="11.897750674896963"><ele>254.0</ele><time>2026-05-03T10:41:55Z</time></trkpt><trkpt lat="42.08903514332571" lon="11.897838637385796"><ele>254.39999999999998</ele><time>2026-05-03T10:41:57Z</time></trkpt><trkpt lat="42.08908528819233" lon="11.897932611393484"><ele>254.79999999999998</ele><time>2026-05-03T10:41:59Z</time></trkpt><trkpt lat="42.089164727426954" lon="11.898014484713071"><ele>255.20000000000002</ele><time>2026-05-03T10:42:01Z</time></trkpt><trkpt lat="42.089218795573245" lon="11.898099950109966"><ele>255.60000000000002</ele><time>2026-05-03T10:42:03Z</time></trkpt><trkpt lat="42.08925024434094" lon="11.898186303667833"><ele>256.0</ele><time>2026-05-03T10:42:05Z</time></trkpt><trkpt lat="42.08930424915499" lon="11.898319460269331"><ele>258.5</ele><time>2026-05-03T10:42:07Z</time></trkpt><trkpt lat="42.089338299490244" lon="11.898413907823668"><ele>261.0</ele><time>2026-05-03T10:42:08Z</time></trkpt><trkpt lat="42.08936674498253" lon="11.898496484947275"><ele>263.5</ele><time>2026-05-03T10:42:09Z</time></trkpt><trkpt lat="42.08937925998899" lon="11.898633078578058"><ele>266.0</ele><time>2026-05-03T10:42:11.001Z</time></trkpt><trkpt lat="42.089392541834435" lon="11.898718217819626"><ele>268.5</ele><time>2026-05-03T10:42:12.001Z</time></trkpt><trkpt lat="42.08941059773796" lon="11.898815673352425"><ele>271.0</ele><time>2026-05-03T10:42:13.001Z</time></trkpt><trkpt lat="42.08944346882976" lon="11.898968192892905"><ele>272.6</ele><time>2026-05-03T10:42:15.001Z</time></trkpt><trkpt lat="42.08946678333851" lon="11.899066062436486"><ele>274.20000000000005</ele><time>2026-05-03T10:42:17.001Z</time></trkpt><trkpt lat="42.089431067417465" lon="11.89914905555336"><ele>275.79999999999995</ele><time>2026-05-03T10:42:19.001Z</time></trkpt><trkpt lat="42.0893709059832" lon="11.899233853273332"><ele>277.4</ele><time>2026-05-03T10:42:21.001Z</time></trkpt><trkpt lat="42.08929160158447" lon="11.899332679665951"><ele>279.0</ele><time>2026-05-03T10:42:23Z</time></trkpt><trkpt lat="42.08918668045573" lon="11.899417234321282"><ele>279.4</ele><time>2026-05-03T10:42:25Z</time></trkpt><trkpt lat="42.08908693509629" lon="11.899487040526132"><ele>279.79999999999995</ele><time>2026-05-03T10:42:27Z</time></trkpt><trkpt lat="42.08900634721797" lon="11.899578689633495"><ele>280.20000000000005</ele><time>2026-05-03T10:42:29Z</time></trkpt><trkpt lat="42.08894827857934" lon="11.899660816971675"><ele>280.6</ele><time>2026-05-03T10:42:31Z</time></trkpt><trkpt lat="42.08890083464355" lon="11.899741606604461"><ele>281.0</ele><time>2026-05-03T10:42:33Z</time></trkpt><trkpt lat="42.08885768487748" lon="11.899824086518537"><ele>281.0</ele><time>2026-05-03T10:42:35Z</time></trkpt><trkpt lat="42.08881187816002" lon="11.899957639598796"><ele>281.0</ele><time>2026-05-03T10:42:37Z</time></trkpt><trkpt lat="42.088750040297406" lon="11.900066471663708"><ele>281.0</ele><time>2026-05-03T10:42:39Z</time></trkpt><trkpt lat="42.08869988456229" lon="11.90015982755424"><ele>281.0</ele><time>2026-05-03T10:42:42Z</time></trkpt><trkpt lat="42.08866958084864" lon="11.900237994800875"><ele>281.0</ele><time>2026-05-03T10:42:50Z</time></trkpt><trkpt lat="42.08862638685047" lon="11.900356077895273"><ele>283.6</ele><time>2026-05-03T10:42:52Z</time></trkpt><trkpt lat="42.0885868493212" lon="11.900479453371114"><ele>286.20000000000005</ele><time>2026-05-03T10:42:54Z</time></trkpt><trkpt lat="42.08854732069922" lon="11.900591973419187"><ele>288.79999999999995</ele><time>2026-05-03T10:42:56Z</time></trkpt><trkpt lat="42.08850431071369" lon="11.90070967283911"><ele>291.4</ele><time>2026-05-03T10:42:58Z</time></trkpt><trkpt lat="42.088469493797206" lon="11.900857732710708"><ele>294.0</ele><time>2026-05-03T10:43:00Z</time></trkpt><trkpt lat="42.08844433614582" lon="11.90093920477319"><ele>297.0</ele><time>2026-05-03T10:43:01Z</time></trkpt><trkpt lat="42.088417672370376" lon="11.901104700295928"><ele>300.0</ele><time>2026-05-03T10:43:03Z</time></trkpt><trkpt lat="42.08839238493975" lon="11.901261526304367"><ele>303.0</ele><time>2026-05-03T10:43:05Z</time></trkpt><trkpt lat="42.08833884624131" lon="11.901401413889506"><ele>306.0</ele><time>2026-05-03T10:43:07Z</time></trkpt><trkpt lat="42.0882989618574" lon="11.901507230469543"><ele>305.6</ele><time>2026-05-03T10:43:09Z</time></trkpt><trkpt lat="42.08823546663185" lon="11.90160366805406"><ele>305.20000000000005</ele><time>2026-05-03T10:43:11Z</time></trkpt><trkpt lat="42.08816146597638" lon="11.901696537448709"><ele>304.79999999999995</ele><time>2026-05-03T10:43:13Z</time></trkpt><trkpt lat="42.08807834136609" lon="11.901779557823746"><ele>304.4</ele><time>2026-05-03T10:43:15Z</time></trkpt><trkpt lat="42.088011566733265" lon="11.90185261128593"><ele>304.0</ele><time>2026-05-03T10:43:17Z</time></trkpt><trkpt lat="42.08796541563775" lon="11.901941130637004"><ele>304.0</ele><time>2026-05-03T10:43:19Z</time></trkpt><trkpt lat="42.087974071345386" lon="11.902060512495634"><ele>304.0</ele><time>2026-05-03T10:43:23Z</time></trkpt><trkpt lat="42.08799023439768" lon="11.90218642188731"><ele>304.0</ele><time>2026-05-03T10:43:25Z</time></trkpt><trkpt lat="42.088010309129636" lon="11.902283243295763"><ele>304.0</ele><time>2026-05-03T10:43:28Z</time></trkpt><trkpt lat="42.088072365620015" lon="11.902389320689585"><ele>304.0</ele><time>2026-05-03T10:43:40Z</time></trkpt><trkpt lat="42.08817309616773" lon="11.902487644012744"><ele>304.0</ele><time>2026-05-03T10:43:42Z</time></trkpt><trkpt lat="42.08822797032594" lon="11.902539112882204"><ele>304.0</ele><time>2026-05-03T10:43:43Z</time></trkpt><trkpt lat="42.08833119832303" lon="11.902679513831716"><ele>304.0</ele><time>2026-05-03T10:43:44Z</time></trkpt><trkpt lat="42.08841960901153" lon="11.90274707101076"><ele>304.0</ele><time>2026-05-03T10:43:45Z</time></trkpt><trkpt lat="42.08851721789582" lon="11.902816113362027"><ele>304.0</ele><time>2026-05-03T10:43:46Z</time></trkpt><trkpt lat="42.08860947833583" lon="11.902885617416564"><ele>304.2</ele><time>2026-05-03T10:43:47Z</time></trkpt><trkpt lat="42.08869196172637" lon="11.902947178550438"><ele>304.4</ele><time>2026-05-03T10:43:48Z</time></trkpt><trkpt lat="42.08877343755205" lon="11.903024135451862"><ele>304.6</ele><time>2026-05-03T10:43:49Z</time></trkpt><trkpt lat="42.088853256352486" lon="11.90309731087759"><ele>304.8</ele><time>2026-05-03T10:43:50Z</time></trkpt><trkpt lat="42.08893654096737" lon="11.903155161607941"><ele>305.0</ele><time>2026-05-03T10:43:51Z</time></trkpt><trkpt lat="42.08902213475494" lon="11.903206549423716"><ele>306.5</ele><time>2026-05-03T10:43:52Z</time></trkpt><trkpt lat="42.08910798528723" lon="11.903235683567882"><ele>308.0</ele><time>2026-05-03T10:43:53Z</time></trkpt><trkpt lat="42.08919494106956" lon="11.90325527402878"><ele>309.5</ele><time>2026-05-03T10:43:54Z</time></trkpt><trkpt lat="42.08927669691899" lon="11.903263623318901"><ele>311.0</ele><time>2026-05-03T10:43:55Z</time></trkpt><trkpt lat="42.08936068331665" lon="11.903270161016636"><ele>312.5</ele><time>2026-05-03T10:43:56Z</time></trkpt><trkpt lat="42.08944145242047" lon="11.903260487181294"><ele>314.0</ele><time>2026-05-03T10:43:57Z</time></trkpt><trkpt lat="42.0895252270544" lon="11.903225393537848"><ele>314.0</ele><time>2026-05-03T10:43:58Z</time></trkpt><trkpt lat="42.08962152094307" lon="11.903183756683127"><ele>314.0</ele><time>2026-05-03T10:43:59Z</time></trkpt><trkpt lat="42.089717699557106" lon="11.9031349459654"><ele>314.0</ele><time>2026-05-03T10:44:00Z</time></trkpt><trkpt lat="42.08981118603993" lon="11.903091867357569"><ele>314.0</ele><time>2026-05-03T10:44:01Z</time></trkpt><trkpt lat="42.089897237768646" lon="11.903054034595812"><ele>314.0</ele><time>2026-05-03T10:44:02Z</time></trkpt><trkpt lat="42.0899787620142" lon="11.903040906961783"><ele>313.59999999999997</ele><time>2026-05-03T10:44:03Z</time></trkpt><trkpt lat="42.09006605666361" lon="11.903040900721658"><ele>313.2</ele><time>2026-05-03T10:44:04Z</time></trkpt><trkpt lat="42.09014874462951" lon="11.903059147714194"><ele>312.79999999999995</ele><time>2026-05-03T10:44:05Z</time></trkpt><trkpt lat="42.09024615990393" lon="11.903095669052444"><ele>312.4</ele><time>2026-05-03T10:44:06Z</time></trkpt><trkpt lat="42.090381232628516" lon="11.903161024550384"><ele>312.0</ele><time>2026-05-03T10:44:07Z</time></trkpt><trkpt lat="42.09054437871275" lon="11.903258523913617"><ele>312.0</ele><time>2026-05-03T10:44:08Z</time></trkpt><trkpt lat="42.090712021408166" lon="11.903385505798328"><ele>312.0</ele><time>2026-05-03T10:44:09Z</time></trkpt><trkpt lat="42.09076709480546" lon="11.903301478279378"><ele>312.0</ele><time>2026-05-03T10:44:10Z</time></trkpt><trkpt lat="42.09089285641365" lon="11.90334074197906"><ele>312.0</ele><time>2026-05-03T10:44:11Z</time></trkpt><trkpt lat="42.09101948221065" lon="11.903379308998996"><ele>310.0</ele><time>2026-05-03T10:44:12Z</time></trkpt><trkpt lat="42.091135057209236" lon="11.903425124214245"><ele>308.0</ele><time>2026-05-03T10:44:13Z</time></trkpt><trkpt lat="42.09124256821222" lon="11.903487211443718"><ele>306.0</ele><time>2026-05-03T10:44:14Z</time></trkpt><trkpt lat="42.09132971474569" lon="11.903567643330073"><ele>304.0</ele><time>2026-05-03T10:44:15Z</time></trkpt><trkpt lat="42.0914136899032" lon="11.90367665889975"><ele>304.0</ele><time>2026-05-03T10:44:16Z</time></trkpt><trkpt lat="42.09149255459592" lon="11.903802592195795"><ele>304.0</ele><time>2026-05-03T10:44:17Z</time></trkpt><trkpt lat="42.09154503046332" lon="11.903920593519237"><ele>304.0</ele><time>2026-05-03T10:44:18Z</time></trkpt><trkpt lat="42.091599903882155" lon="11.904021470373461"><ele>304.0</ele><time>2026-05-03T10:44:19Z</time></trkpt><trkpt lat="42.09166482998346" lon="11.904110143771678"><ele>304.0</ele><time>2026-05-03T10:44:20Z</time></trkpt><trkpt lat="42.09174535933785" lon="11.904203409226813"><ele>303.75</ele><time>2026-05-03T10:44:21Z</time></trkpt><trkpt lat="42.09182844186296" lon="11.90430491244125"><ele>303.5</ele><time>2026-05-03T10:44:22Z</time></trkpt><trkpt lat="42.09191216364999" lon="11.9044111038649"><ele>303.25</ele><time>2026-05-03T10:44:23Z</time></trkpt><trkpt lat="42.09200287103559" lon="11.9045245528965"><ele>303.0</ele><time>2026-05-03T10:44:24Z</time></trkpt><trkpt lat="42.09208271929107" lon="11.9046230351852"><ele>303.0</ele><time>2026-05-03T10:44:25Z</time></trkpt><trkpt lat="42.09213394212271" lon="11.904687209133721"><ele>303.0</ele><time>2026-05-03T10:44:26Z</time></trkpt><trkpt lat="42.09220734850284" lon="11.904780904430382"><ele>303.0</ele><time>2026-05-03T10:44:28Z</time></trkpt><trkpt lat="42.09229173064133" lon="11.90488052082855"><ele>303.0</ele><time>2026-05-03T10:44:30Z</time></trkpt><trkpt lat="42.09233707210842" lon="11.90494209225752"><ele>303.0</ele><time>2026-05-03T10:44:31Z</time></trkpt><trkpt lat="42.092433239917995" lon="11.905059508032673"><ele>303.2857142857143</ele><time>2026-05-03T10:44:33Z</time></trkpt><trkpt lat="42.09248433376361" lon="11.905120642467457"><ele>303.57142857142856</ele><time>2026-05-03T10:44:34Z</time></trkpt><trkpt lat="42.092540939248806" lon="11.90518005850892"><ele>303.8571428571429</ele><time>2026-05-03T10:44:35Z</time></trkpt><trkpt lat="42.09260304405526" lon="11.905229045085628"><ele>304.1428571428571</ele><time>2026-05-03T10:44:36Z</time></trkpt><trkpt lat="42.0926634410263" lon="11.90527068492498"><ele>304.4285714285714</ele><time>2026-05-03T10:44:37Z</time></trkpt><trkpt lat="42.09273534958868" lon="11.90531559939609"><ele>304.7142857142857</ele><time>2026-05-03T10:44:38Z</time></trkpt><trkpt lat="42.092806516456335" lon="11.905342925238921"><ele>305.0</ele><time>2026-05-03T10:44:39Z</time></trkpt><trkpt lat="42.092878428099375" lon="11.905366543714194"><ele>305.0</ele><time>2026-05-03T10:44:40Z</time></trkpt><trkpt lat="42.092953371868404" lon="11.905391340748611"><ele>305.0</ele><time>2026-05-03T10:44:41Z</time></trkpt><trkpt lat="42.09303019167081" lon="11.905404191056217"><ele>305.0</ele><time>2026-05-03T10:44:42Z</time></trkpt><trkpt lat="42.093117807012746" lon="11.905421305825254"><ele>305.0</ele><time>2026-05-03T10:44:43Z</time></trkpt><trkpt lat="42.093202623545054" lon="11.905442220004533"><ele>305.0</ele><time>2026-05-03T10:44:44Z</time></trkpt><trkpt lat="42.09328614243933" lon="11.905484452793141"><ele>305.0</ele><time>2026-05-03T10:44:45Z</time></trkpt><trkpt lat="42.093373630127275" lon="11.905539604078816"><ele>305.5</ele><time>2026-05-03T10:44:46Z</time></trkpt><trkpt lat="42.093458559772344" lon="11.905595817374913"><ele>306.0</ele><time>2026-05-03T10:44:47Z</time></trkpt><trkpt lat="42.09354246019555" lon="11.905641662182326"><ele>306.5</ele><time>2026-05-03T10:44:48Z</time></trkpt><trkpt lat="42.093626506302364" lon="11.905679111100612"><ele>307.0</ele><time>2026-05-03T10:44:49Z</time></trkpt><trkpt lat="42.093706662926806" lon="11.90570742789619"><ele>307.5</ele><time>2026-05-03T10:44:50Z</time></trkpt><trkpt lat="42.09379320802644" lon="11.905730908030417"><ele>308.0</ele><time>2026-05-03T10:44:51Z</time></trkpt><trkpt lat="42.09388566236807" lon="11.905752659946529"><ele>308.0</ele><time>2026-05-03T10:44:52Z</time></trkpt><trkpt lat="42.09397257539614" lon="11.905787898608443"><ele>308.0</ele><time>2026-05-03T10:44:53Z</time></trkpt><trkpt lat="42.094058660646304" lon="11.905837043709605"><ele>308.0</ele><time>2026-05-03T10:44:54Z</time></trkpt><trkpt lat="42.094147477573635" lon="11.905896077839117"><ele>308.0</ele><time>2026-05-03T10:44:55Z</time></trkpt><trkpt lat="42.094225036006364" lon="11.90596409308434"><ele>308.0</ele><time>2026-05-03T10:44:56Z</time></trkpt><trkpt lat="42.09430365250806" lon="11.90602148954078"><ele>308.6</ele><time>2026-05-03T10:44:57Z</time></trkpt><trkpt lat="42.094371224616296" lon="11.90608274011373"><ele>309.20000000000005</ele><time>2026-05-03T10:44:58Z</time></trkpt><trkpt lat="42.09444760445221" lon="11.906156037093476"><ele>309.8</ele><time>2026-05-03T10:44:59Z</time></trkpt><trkpt lat="42.09451229385393" lon="11.906229672001393"><ele>310.40000000000003</ele><time>2026-05-03T10:45:00Z</time></trkpt><trkpt lat="42.09456852325267" lon="11.9063056558166"><ele>311.0</ele><time>2026-05-03T10:45:01Z</time></trkpt><trkpt lat="42.09462878886959" lon="11.906431314342242"><ele>311.0</ele><time>2026-05-03T10:45:03Z</time></trkpt><trkpt lat="42.09468225664665" lon="11.90654993003504"><ele>311.0</ele><time>2026-05-03T10:45:05Z</time></trkpt><trkpt lat="42.09474162304022" lon="11.906679021054392"><ele>311.0</ele><time>2026-05-03T10:45:07Z</time></trkpt><trkpt lat="42.09477567972159" lon="11.906754938018405"><ele>311.0</ele><time>2026-05-03T10:45:08Z</time></trkpt><trkpt lat="42.09478530316839" lon="11.906886560721706"><ele>311.0</ele><time>2026-05-03T10:45:10Z</time></trkpt><trkpt lat="42.09478829467319" lon="11.907018507832532"><ele>311.0</ele><time>2026-05-03T10:45:12Z</time></trkpt><trkpt lat="42.09485170675999" lon="11.907198443024244"><ele>311.0</ele><time>2026-05-03T10:45:14Z</time></trkpt><trkpt lat="42.094883926436175" lon="11.907311821102688"><ele>311.0</ele><time>2026-05-03T10:45:15Z</time></trkpt><trkpt lat="42.09493822755631" lon="11.907439782085214"><ele>311.0</ele><time>2026-05-03T10:45:17Z</time></trkpt><trkpt lat="42.09498851259866" lon="11.907528229536283"><ele>311.0</ele><time>2026-05-03T10:45:19Z</time></trkpt><trkpt lat="42.09502946331633" lon="11.90760901654033"><ele>313.1666666666667</ele><time>2026-05-03T10:45:21Z</time></trkpt><trkpt lat="42.09511143086738" lon="11.907698617936042"><ele>315.33333333333337</ele><time>2026-05-03T10:45:23Z</time></trkpt><trkpt lat="42.09517163230485" lon="11.907780681437938"><ele>317.5</ele><time>2026-05-03T10:45:24Z</time></trkpt><trkpt lat="42.09522560134587" lon="11.907835875759606"><ele>319.6666666666667</ele><time>2026-05-03T10:45:25Z</time></trkpt><trkpt lat="42.09528183064093" lon="11.90788659442781"><ele>321.8333333333333</ele><time>2026-05-03T10:45:26Z</time></trkpt><trkpt lat="42.09534920081364" lon="11.907954408511335"><ele>324.0</ele><time>2026-05-03T10:45:27Z</time></trkpt><trkpt lat="42.09539690242028" lon="11.908012635825836"><ele>324.0</ele><time>2026-05-03T10:45:28Z</time></trkpt><trkpt lat="42.09545226700427" lon="11.90807355080711"><ele>324.0</ele><time>2026-05-03T10:45:29Z</time></trkpt><trkpt lat="42.09549647433767" lon="11.908145940541656"><ele>324.0</ele><time>2026-05-03T10:45:30Z</time></trkpt><trkpt lat="42.09555349817849" lon="11.908218935492378"><ele>324.0</ele><time>2026-05-03T10:45:31Z</time></trkpt><trkpt lat="42.09561036569978" lon="11.90830234395139"><ele>324.0</ele><time>2026-05-03T10:45:32Z</time></trkpt><trkpt lat="42.09567135402818" lon="11.908379475319238"><ele>324.0</ele><time>2026-05-03T10:45:33Z</time></trkpt><trkpt lat="42.09572794878727" lon="11.908447933571203"><ele>326.0</ele><time>2026-05-03T10:45:34Z</time></trkpt><trkpt lat="42.0958165663252" lon="11.908559349649721"><ele>328.0</ele><time>2026-05-03T10:45:36Z</time></trkpt><trkpt lat="42.095872774925205" lon="11.908619914753098"><ele>330.0</ele><time>2026-05-03T10:45:37Z</time></trkpt><trkpt lat="42.09592614438287" lon="11.908683194277554"><ele>332.0</ele><time>2026-05-03T10:45:38Z</time></trkpt><trkpt lat="42.095961282524236" lon="11.908760288143354"><ele>334.0</ele><time>2026-05-03T10:45:39Z</time></trkpt><trkpt lat="42.09600087972359" lon="11.908845231338468"><ele>336.0</ele><time>2026-05-03T10:45:40Z</time></trkpt><trkpt lat="42.09604383915939" lon="11.90893072047376"><ele>336.0</ele><time>2026-05-03T10:45:41Z</time></trkpt><trkpt lat="42.09609619420621" lon="11.909025869015576"><ele>336.0</ele><time>2026-05-03T10:45:42Z</time></trkpt><trkpt lat="42.096136933863285" lon="11.909098730258421"><ele>336.0</ele><time>2026-05-03T10:45:43Z</time></trkpt><trkpt lat="42.096180110740725" lon="11.90916692593218"><ele>336.0</ele><time>2026-05-03T10:45:44Z</time></trkpt><trkpt lat="42.0962234032773" lon="11.909260967762476"><ele>336.0</ele><time>2026-05-03T10:45:48Z</time></trkpt><trkpt lat="42.09630044119439" lon="11.90938634529868"><ele>336.0</ele><time>2026-05-03T10:46:28Z</time></trkpt><trkpt lat="42.096363802239345" lon="11.909466417109448"><ele>335.8</ele><time>2026-05-03T10:46:29Z</time></trkpt><trkpt lat="42.096414042297184" lon="11.90952570555054"><ele>335.6</ele><time>2026-05-03T10:46:30Z</time></trkpt><trkpt lat="42.09645253021178" lon="11.909602771692562"><ele>335.4</ele><time>2026-05-03T10:46:31Z</time></trkpt><trkpt lat="42.09649715016296" lon="11.909706088531276"><ele>335.2</ele><time>2026-05-03T10:46:32Z</time></trkpt><trkpt lat="42.09655734039771" lon="11.909835979357654"><ele>335.0</ele><time>2026-05-03T10:46:33Z</time></trkpt><trkpt lat="42.09662389669307" lon="11.909978916331271"><ele>337.4</ele><time>2026-05-03T10:46:34Z</time></trkpt><trkpt lat="42.09667359767251" lon="11.910118876331397"><ele>339.8</ele><time>2026-05-03T10:46:35Z</time></trkpt><trkpt lat="42.0967063503993" lon="11.910233627240071"><ele>342.20000000000005</ele><time>2026-05-03T10:46:36Z</time></trkpt><trkpt lat="42.09673512372524" lon="11.910352224075117"><ele>344.6</ele><time>2026-05-03T10:46:37Z</time></trkpt><trkpt lat="42.09675757557077" lon="11.910476454028503"><ele>347.0</ele><time>2026-05-03T10:46:38Z</time></trkpt><trkpt lat="42.09678127413766" lon="11.910608591031684"><ele>347.0</ele><time>2026-05-03T10:46:39Z</time></trkpt><trkpt lat="42.09680480416435" lon="11.910737977303317"><ele>347.0</ele><time>2026-05-03T10:46:40Z</time></trkpt><trkpt lat="42.09682374621293" lon="11.910868979988912"><ele>347.0</ele><time>2026-05-03T10:46:41Z</time></trkpt><trkpt lat="42.09684246488077" lon="11.91100301369206"><ele>347.0</ele><time>2026-05-03T10:46:42Z</time></trkpt><trkpt lat="42.0968616135994" lon="11.911149736521535"><ele>347.0</ele><time>2026-05-03T10:46:43Z</time></trkpt><trkpt lat="42.09687981803176" lon="11.911268787221735"><ele>349.0</ele><time>2026-05-03T10:46:44Z</time></trkpt><trkpt lat="42.09690691436164" lon="11.911366976878918"><ele>351.0</ele><time>2026-05-03T10:46:45Z</time></trkpt><trkpt lat="42.096965036336215" lon="11.911494633625422"><ele>353.0</ele><time>2026-05-03T10:46:47Z</time></trkpt><trkpt lat="42.09701599934787" lon="11.911562130512483"><ele>355.0</ele><time>2026-05-03T10:46:48Z</time></trkpt><trkpt lat="42.09708094065702" lon="11.911632683193409"><ele>357.0</ele><time>2026-05-03T10:46:49Z</time></trkpt><trkpt lat="42.097139092431064" lon="11.911697407913723"><ele>359.0</ele><time>2026-05-03T10:46:50Z</time></trkpt><trkpt lat="42.09717245635838" lon="11.911769600907068"><ele>360.42857142857144</ele><time>2026-05-03T10:46:51Z</time></trkpt><trkpt lat="42.097200289813024" lon="11.911866325070255"><ele>361.8571428571429</ele><time>2026-05-03T10:46:52Z</time></trkpt><trkpt lat="42.097216893298935" lon="11.911954737273211"><ele>363.2857142857143</ele><time>2026-05-03T10:46:53Z</time></trkpt><trkpt lat="42.09722353323556" lon="11.912043604636995"><ele>364.7142857142857</ele><time>2026-05-03T10:46:54Z</time></trkpt><trkpt lat="42.09722974897006" lon="11.912151058589005"><ele>366.1428571428571</ele><time>2026-05-03T10:46:55Z</time></trkpt><trkpt lat="42.0972333487231" lon="11.912238538302836"><ele>367.57142857142856</ele><time>2026-05-03T10:46:56Z</time></trkpt><trkpt lat="42.09723636717713" lon="11.912326492103208"><ele>369.0</ele><time>2026-05-03T10:46:57Z</time></trkpt><trkpt lat="42.09726265879046" lon="11.912478949645015"><ele>369.0</ele><time>2026-05-03T10:46:59Z</time></trkpt><trkpt lat="42.097287272407094" lon="11.91256044166321"><ele>369.0</ele><time>2026-05-03T10:47:00Z</time></trkpt><trkpt lat="42.09731852225429" lon="11.912641665052403"><ele>369.0</ele><time>2026-05-03T10:47:01Z</time></trkpt><trkpt lat="42.09735745435265" lon="11.91273897420361"><ele>369.0</ele><time>2026-05-03T10:47:02Z</time></trkpt><trkpt lat="42.0973973908573" lon="11.912822451445503"><ele>369.0</ele><time>2026-05-03T10:47:03Z</time></trkpt><trkpt lat="42.097440643938654" lon="11.912907378115108"><ele>369.0</ele><time>2026-05-03T10:47:04Z</time></trkpt><trkpt lat="42.09748328122737" lon="11.91298664378354"><ele>369.0</ele><time>2026-05-03T10:47:05Z</time></trkpt><trkpt lat="42.09751522314561" lon="11.913064013282582"><ele>368.6666666666667</ele><time>2026-05-03T10:47:06Z</time></trkpt><trkpt lat="42.097548218712596" lon="11.913152894673813"><ele>368.3333333333333</ele><time>2026-05-03T10:47:07Z</time></trkpt><trkpt lat="42.09757448787926" lon="11.913244675264501"><ele>368.0</ele><time>2026-05-03T10:47:08Z</time></trkpt><trkpt lat="42.09760107710152" lon="11.913350257333562"><ele>367.66666666666663</ele><time>2026-05-03T10:47:09Z</time></trkpt><trkpt lat="42.097624935095986" lon="11.913454975886998"><ele>367.3333333333333</ele><time>2026-05-03T10:47:10Z</time></trkpt><trkpt lat="42.0976479907181" lon="11.913559274487776"><ele>367.0</ele><time>2026-05-03T10:47:11Z</time></trkpt><trkpt lat="42.09766531654837" lon="11.91364643352507"><ele>367.0</ele><time>2026-05-03T10:47:12Z</time></trkpt><trkpt lat="42.09771937680553" lon="11.91380719029312"><ele>367.0</ele><time>2026-05-03T10:47:14Z</time></trkpt><trkpt lat="42.097759010204896" lon="11.913899115625481"><ele>367.0</ele><time>2026-05-03T10:47:15Z</time></trkpt><trkpt lat="42.0977912539119" lon="11.913993334922806"><ele>367.0</ele><time>2026-05-03T10:47:16Z</time></trkpt><trkpt lat="42.09781021474104" lon="11.914086443071222"><ele>367.0</ele><time>2026-05-03T10:47:17Z</time></trkpt><trkpt lat="42.09783654391511" lon="11.914168699100482"><ele>367.0</ele><time>2026-05-03T10:47:18Z</time></trkpt><trkpt lat="42.09790930745393" lon="11.914278629214673"><ele>367.20000000000005</ele><time>2026-05-03T10:47:20Z</time></trkpt><trkpt lat="42.09796815993451" lon="11.914385146640925"><ele>367.4</ele><time>2026-05-03T10:47:22Z</time></trkpt><trkpt lat="42.09802461208206" lon="11.914456104762728"><ele>367.6</ele><time>2026-05-03T10:47:24Z</time></trkpt><trkpt lat="42.09812565917041" lon="11.914568585146798"><ele>367.79999999999995</ele><time>2026-05-03T10:47:26Z</time></trkpt><trkpt lat="42.09818762189543" lon="11.914639575565907"><ele>368.0</ele><time>2026-05-03T10:47:27Z</time></trkpt><trkpt lat="42.09825206118035" lon="11.91471602603658"><ele>366.6666666666667</ele><time>2026-05-03T10:47:28Z</time></trkpt><trkpt lat="42.098326218254805" lon="11.914797978218946"><ele>365.33333333333337</ele><time>2026-05-03T10:47:29Z</time></trkpt><trkpt lat="42.098386945209356" lon="11.914869623711791"><ele>364.0</ele><time>2026-05-03T10:47:30Z</time></trkpt><trkpt lat="42.098427862944426" lon="11.914968485733015"><ele>362.6666666666667</ele><time>2026-05-03T10:47:31Z</time></trkpt><trkpt lat="42.09847947675867" lon="11.915055298983244"><ele>361.3333333333333</ele><time>2026-05-03T10:47:32Z</time></trkpt><trkpt lat="42.09852374295688" lon="11.915129959032624"><ele>360.0</ele><time>2026-05-03T10:47:33Z</time></trkpt><trkpt lat="42.098574881385844" lon="11.915199501304873"><ele>359.3333333333333</ele><time>2026-05-03T10:47:34Z</time></trkpt><trkpt lat="42.09862927194061" lon="11.91525801712054"><ele>358.6666666666667</ele><time>2026-05-03T10:47:35Z</time></trkpt><trkpt lat="42.098685965341254" lon="11.915308328323846"><ele>358.0</ele><time>2026-05-03T10:47:36Z</time></trkpt><trkpt lat="42.0987511477591" lon="11.915356669241618"><ele>357.33333333333337</ele><time>2026-05-03T10:47:37Z</time></trkpt><trkpt lat="42.09883075332165" lon="11.915404032003469"><ele>356.6666666666667</ele><time>2026-05-03T10:47:38Z</time></trkpt><trkpt lat="42.09892109594339" lon="11.915430320109287"><ele>356.0</ele><time>2026-05-03T10:47:39Z</time></trkpt><trkpt lat="42.09901085493629" lon="11.915447259912323"><ele>355.1666666666667</ele><time>2026-05-03T10:47:40Z</time></trkpt><trkpt lat="42.099096246096465" lon="11.915467607517042"><ele>354.33333333333337</ele><time>2026-05-03T10:47:41Z</time></trkpt><trkpt lat="42.09918262829285" lon="11.915495932457613"><ele>353.5</ele><time>2026-05-03T10:47:42Z</time></trkpt><trkpt lat="42.09925860667952" lon="11.915514631284838"><ele>352.6666666666667</ele><time>2026-05-03T10:47:43Z</time></trkpt><trkpt lat="42.09934070248983" lon="11.915535192180366"><ele>351.8333333333333</ele><time>2026-05-03T10:47:44Z</time></trkpt><trkpt lat="42.09942532525471" lon="11.915553234943076"><ele>351.0</ele><time>2026-05-03T10:47:45Z</time></trkpt><trkpt lat="42.099519541501365" lon="11.915560386147622"><ele>351.0</ele><time>2026-05-03T10:47:46Z</time></trkpt><trkpt lat="42.09960651421334" lon="11.915573378074923"><ele>351.0</ele><time>2026-05-03T10:47:47Z</time></trkpt><trkpt lat="42.09968773390249" lon="11.915585979033818"><ele>351.0</ele><time>2026-05-03T10:47:48Z</time></trkpt><trkpt lat="42.099772224871046" lon="11.91560018350709"><ele>351.0</ele><time>2026-05-03T10:47:49Z</time></trkpt><trkpt lat="42.09984724407328" lon="11.915620437196171"><ele>351.0</ele><time>2026-05-03T10:47:50Z</time></trkpt><trkpt lat="42.09991022723133" lon="11.915646024433569"><ele>351.0</ele><time>2026-05-03T10:47:51Z</time></trkpt><trkpt lat="42.100016683598106" lon="11.915685004825262"><ele>351.28571428571433</ele><time>2026-05-03T10:47:52Z</time></trkpt><trkpt lat="42.10008640503616" lon="11.915722275199206"><ele>351.57142857142856</ele><time>2026-05-03T10:47:53Z</time></trkpt><trkpt lat="42.10015504659006" lon="11.915770715496137"><ele>351.8571428571429</ele><time>2026-05-03T10:47:54Z</time></trkpt><trkpt lat="42.10022191776243" lon="11.915810764503965"><ele>352.14285714285717</ele><time>2026-05-03T10:47:55Z</time></trkpt><trkpt lat="42.10028796575656" lon="11.915854911413335"><ele>352.42857142857144</ele><time>2026-05-03T10:47:56Z</time></trkpt><trkpt lat="42.100345366933254" lon="11.91589741012186"><ele>352.7142857142857</ele><time>2026-05-03T10:47:57Z</time></trkpt><trkpt lat="42.10040779239135" lon="11.915936690901711"><ele>353.0</ele><time>2026-05-03T10:47:58Z</time></trkpt><trkpt lat="42.10047175090983" lon="11.915978437068118"><ele>351.6666666666667</ele><time>2026-05-03T10:47:59Z</time></trkpt><trkpt lat="42.10054400432007" lon="11.916021951481786"><ele>350.33333333333337</ele><time>2026-05-03T10:48:00Z</time></trkpt><trkpt lat="42.100607847902765" lon="11.916060242471755"><ele>349.0</ele><time>2026-05-03T10:48:01Z</time></trkpt><trkpt lat="42.100676611516036" lon="11.916094218082339"><ele>347.6666666666667</ele><time>2026-05-03T10:48:02Z</time></trkpt><trkpt lat="42.10074993394823" lon="11.916135944771874"><ele>346.3333333333333</ele><time>2026-05-03T10:48:03Z</time></trkpt><trkpt lat="42.10082005878126" lon="11.916165909928717"><ele>345.0</ele><time>2026-05-03T10:48:03.999Z</time></trkpt><trkpt lat="42.10090263106865" lon="11.916196011581366"><ele>345.0</ele><time>2026-05-03T10:48:04.999Z</time></trkpt><trkpt lat="42.100983554201306" lon="11.916236671928926"><ele>345.0</ele><time>2026-05-03T10:48:05.999Z</time></trkpt><trkpt lat="42.10104907138832" lon="11.916275929831828"><ele>345.0</ele><time>2026-05-03T10:48:06.999Z</time></trkpt><trkpt lat="42.10113015747867" lon="11.916314765686849"><ele>345.0</ele><time>2026-05-03T10:48:07.999Z</time></trkpt><trkpt lat="42.10120914224144" lon="11.916353101591849"><ele>345.0</ele><time>2026-05-03T10:48:08.999Z</time></trkpt><trkpt lat="42.10129566827087" lon="11.916390622170251"><ele>345.0</ele><time>2026-05-03T10:48:09.999Z</time></trkpt><trkpt lat="42.101379713842185" lon="11.916433896604833"><ele>345.0</ele><time>2026-05-03T10:48:10.999Z</time></trkpt><trkpt lat="42.10145198228534" lon="11.916479519791036"><ele>345.0</ele><time>2026-05-03T10:48:11.999Z</time></trkpt><trkpt lat="42.10152288084185" lon="11.916529075903695"><ele>345.0</ele><time>2026-05-03T10:48:12.999Z</time></trkpt><trkpt lat="42.10158231931947" lon="11.916581703080197"><ele>345.0</ele><time>2026-05-03T10:48:13.999Z</time></trkpt><trkpt lat="42.101643652313676" lon="11.91663722478185"><ele>345.0</ele><time>2026-05-03T10:48:14.999Z</time></trkpt><trkpt lat="42.10171561713673" lon="11.91669090012986"><ele>345.0</ele><time>2026-05-03T10:48:15.999Z</time></trkpt><trkpt lat="42.10178486960725" lon="11.916746643839577"><ele>343.8333333333333</ele><time>2026-05-03T10:48:16.999Z</time></trkpt><trkpt lat="42.10185718036528" lon="11.916808326225027"><ele>342.6666666666667</ele><time>2026-05-03T10:48:17.999Z</time></trkpt><trkpt lat="42.101927086584986" lon="11.916870523833568"><ele>341.5</ele><time>2026-05-03T10:48:18.999Z</time></trkpt><trkpt lat="42.1020020460111" lon="11.91693773635643"><ele>340.33333333333337</ele><time>2026-05-03T10:48:19.999Z</time></trkpt><trkpt lat="42.102076225351695" lon="11.917004733915919"><ele>339.1666666666667</ele><time>2026-05-03T10:48:20.999Z</time></trkpt><trkpt lat="42.10213851495296" lon="11.917079815221433"><ele>338.0</ele><time>2026-05-03T10:48:21.999Z</time></trkpt><trkpt lat="42.10220597274432" lon="11.91717102722609"><ele>338.0</ele><time>2026-05-03T10:48:22.999Z</time></trkpt><trkpt lat="42.1022717394896" lon="11.917280699820775"><ele>338.0</ele><time>2026-05-03T10:48:23.999Z</time></trkpt><trkpt lat="42.102336212000075" lon="11.917377332480713"><ele>338.0</ele><time>2026-05-03T10:48:24.999Z</time></trkpt><trkpt lat="42.102404801830026" lon="11.917470362660886"><ele>338.0</ele><time>2026-05-03T10:48:25.999Z</time></trkpt><trkpt lat="42.10248819278635" lon="11.917556802699053"><ele>338.0</ele><time>2026-05-03T10:48:26.999Z</time></trkpt><trkpt lat="42.102565753603464" lon="11.91764976684259"><ele>338.4</ele><time>2026-05-03T10:48:28Z</time></trkpt><trkpt lat="42.10264614648614" lon="11.917744746751598"><ele>338.79999999999995</ele><time>2026-05-03T10:48:29Z</time></trkpt><trkpt lat="42.10272840705056" lon="11.91783039261605"><ele>339.2</ele><time>2026-05-03T10:48:30Z</time></trkpt><trkpt lat="42.10280769251995" lon="11.917910999602439"><ele>339.6</ele><time>2026-05-03T10:48:31Z</time></trkpt><trkpt lat="42.10288061233298" lon="11.917992096987737"><ele>340.0</ele><time>2026-05-03T10:48:32Z</time></trkpt><trkpt lat="42.102943376451066" lon="11.918079531441604"><ele>340.0</ele><time>2026-05-03T10:48:33Z</time></trkpt><trkpt lat="42.10300337649334" lon="11.918165681687139"><ele>340.0</ele><time>2026-05-03T10:48:34Z</time></trkpt><trkpt lat="42.10306033601603" lon="11.918253336467433"><ele>340.0</ele><time>2026-05-03T10:48:35Z</time></trkpt><trkpt lat="42.10312186022626" lon="11.918355357703254"><ele>340.0</ele><time>2026-05-03T10:48:36Z</time></trkpt><trkpt lat="42.10317753898482" lon="11.918452065726486"><ele>340.0</ele><time>2026-05-03T10:48:37Z</time></trkpt><trkpt lat="42.10324410151711" lon="11.918552544341216"><ele>339.4</ele><time>2026-05-03T10:48:38Z</time></trkpt><trkpt lat="42.103321568894344" lon="11.918657084017465"><ele>338.8</ele><time>2026-05-03T10:48:39Z</time></trkpt><trkpt lat="42.10339478807265" lon="11.918767198870903"><ele>338.20000000000005</ele><time>2026-05-03T10:48:40Z</time></trkpt><trkpt lat="42.10346146432091" lon="11.91887946934546"><ele>337.6</ele><time>2026-05-03T10:48:41Z</time></trkpt><trkpt lat="42.10351840300841" lon="11.918989286371836"><ele>337.0</ele><time>2026-05-03T10:48:42Z</time></trkpt><trkpt lat="42.1035691911032" lon="11.919098970579661"><ele>337.0</ele><time>2026-05-03T10:48:43Z</time></trkpt><trkpt lat="42.103609178744684" lon="11.919222553333578"><ele>337.0</ele><time>2026-05-03T10:48:44Z</time></trkpt><trkpt lat="42.10363870561151" lon="11.919361004116421"><ele>337.0</ele><time>2026-05-03T10:48:45Z</time></trkpt><trkpt lat="42.1036620108836" lon="11.91950781701354"><ele>337.0</ele><time>2026-05-03T10:48:46Z</time></trkpt><trkpt lat="42.10367165480718" lon="11.919666075374225"><ele>337.0</ele><time>2026-05-03T10:48:47Z</time></trkpt><trkpt lat="42.10367674715965" lon="11.919836846196066"><ele>336.75</ele><time>2026-05-03T10:48:48Z</time></trkpt><trkpt lat="42.10368014503602" lon="11.920012572501603"><ele>336.5</ele><time>2026-05-03T10:48:49Z</time></trkpt><trkpt lat="42.10367340721142" lon="11.920189764976227"><ele>336.25</ele><time>2026-05-03T10:48:50Z</time></trkpt><trkpt lat="42.10366397870491" lon="11.920372100212028"><ele>336.0</ele><time>2026-05-03T10:48:51Z</time></trkpt><trkpt lat="42.10365662478994" lon="11.920554148056102"><ele>336.4</ele><time>2026-05-03T10:48:52Z</time></trkpt><trkpt lat="42.10365190379414" lon="11.92071977093564"><ele>336.8</ele><time>2026-05-03T10:48:53Z</time></trkpt><trkpt lat="42.10365481843593" lon="11.920863105811899"><ele>337.2</ele><time>2026-05-03T10:48:54Z</time></trkpt><trkpt lat="42.10366603798499" lon="11.920992642169367"><ele>337.59999999999997</ele><time>2026-05-03T10:48:55Z</time></trkpt><trkpt lat="42.10368147014592" lon="11.921114445077853"><ele>338.0</ele><time>2026-05-03T10:48:56Z</time></trkpt><trkpt lat="42.10369627298972" lon="11.921229981049644"><ele>338.5</ele><time>2026-05-03T10:48:57Z</time></trkpt><trkpt lat="42.10370847755093" lon="11.921339143529352"><ele>339.0</ele><time>2026-05-03T10:48:58Z</time></trkpt><trkpt lat="42.10372249989519" lon="11.921455532995058"><ele>339.5</ele><time>2026-05-03T10:48:59Z</time></trkpt><trkpt lat="42.10373766846895" lon="11.921577383091195"><ele>340.0</ele><time>2026-05-03T10:49:00Z</time></trkpt><trkpt lat="42.10374663656265" lon="11.921693548959437"><ele>340.5</ele><time>2026-05-03T10:49:01Z</time></trkpt><trkpt lat="42.103755425813425" lon="11.92181500546811"><ele>341.0</ele><time>2026-05-03T10:49:02Z</time></trkpt><trkpt lat="42.10377041311053" lon="11.921944538251365"><ele>341.6</ele><time>2026-05-03T10:49:03Z</time></trkpt><trkpt lat="42.10378621816898" lon="11.922053458971787"><ele>342.20000000000005</ele><time>2026-05-03T10:49:04Z</time></trkpt><trkpt lat="42.103795721326534" lon="11.922170733692536"><ele>342.79999999999995</ele><time>2026-05-03T10:49:05Z</time></trkpt><trkpt lat="42.10381216133499" lon="11.922287770606305"><ele>343.4</ele><time>2026-05-03T10:49:06Z</time></trkpt><trkpt lat="42.10383711963278" lon="11.92241959196016"><ele>344.0</ele><time>2026-05-03T10:49:07Z</time></trkpt><trkpt lat="42.103863481841174" lon="11.922565127871056"><ele>344.0</ele><time>2026-05-03T10:49:08Z</time></trkpt><trkpt lat="42.103883621112" lon="11.92272530712862"><ele>344.0</ele><time>2026-05-03T10:49:09Z</time></trkpt><trkpt lat="42.103899125221055" lon="11.922894432732678"><ele>344.0</ele><time>2026-05-03T10:49:10Z</time></trkpt><trkpt lat="42.10391619113995" lon="11.923057633691192"><ele>344.0</ele><time>2026-05-03T10:49:11Z</time></trkpt><trkpt lat="42.10393667724218" lon="11.923214885323118"><ele>344.0</ele><time>2026-05-03T10:49:12Z</time></trkpt><trkpt lat="42.10395350087078" lon="11.923370203942358"><ele>344.0</ele><time>2026-05-03T10:49:13Z</time></trkpt><trkpt lat="42.103960426213156" lon="11.923521737965455"><ele>344.0</ele><time>2026-05-03T10:49:14Z</time></trkpt><trkpt lat="42.10397006869258" lon="11.923679842787969"><ele>344.0</ele><time>2026-05-03T10:49:15Z</time></trkpt><trkpt lat="42.10398611411879" lon="11.923846108149593"><ele>344.25</ele><time>2026-05-03T10:49:16Z</time></trkpt><trkpt lat="42.10399523378413" lon="11.92400222407862"><ele>344.5</ele><time>2026-05-03T10:49:17Z</time></trkpt><trkpt lat="42.10399300666259" lon="11.924173068221938"><ele>344.75</ele><time>2026-05-03T10:49:18Z</time></trkpt><trkpt lat="42.10399468100192" lon="11.92435615585761"><ele>345.0</ele><time>2026-05-03T10:49:19Z</time></trkpt><trkpt lat="42.10400324712348" lon="11.924551433306354"><ele>345.6666666666667</ele><time>2026-05-03T10:49:20Z</time></trkpt><trkpt lat="42.104013241716764" lon="11.924753963024584"><ele>346.33333333333337</ele><time>2026-05-03T10:49:21Z</time></trkpt><trkpt lat="42.10402280743207" lon="11.92497390974133"><ele>347.0</ele><time>2026-05-03T10:49:22Z</time></trkpt><trkpt lat="42.10403149344561" lon="11.92518823546582"><ele>347.33333333333337</ele><time>2026-05-03T10:49:23Z</time></trkpt><trkpt lat="42.10403980780886" lon="11.925405140861622"><ele>347.6666666666667</ele><time>2026-05-03T10:49:24Z</time></trkpt><trkpt lat="42.10405187301921" lon="11.9256343054215"><ele>348.0</ele><time>2026-05-03T10:49:25Z</time></trkpt><trkpt lat="42.1040589941903" lon="11.925853747391852"><ele>348.0</ele><time>2026-05-03T10:49:26Z</time></trkpt><trkpt lat="42.10406910913564" lon="11.926068725794263"><ele>348.0</ele><time>2026-05-03T10:49:27Z</time></trkpt><trkpt lat="42.10407809722932" lon="11.926264886498707"><ele>348.0</ele><time>2026-05-03T10:49:28Z</time></trkpt><trkpt lat="42.10408608944869" lon="11.926438023498257"><ele>348.0</ele><time>2026-05-03T10:49:29Z</time></trkpt><trkpt lat="42.10409373245683" lon="11.926597007778462"><ele>351.25</ele><time>2026-05-03T10:49:30Z</time></trkpt><trkpt lat="42.10409845621846" lon="11.926744538156845"><ele>354.5</ele><time>2026-05-03T10:49:31Z</time></trkpt><trkpt lat="42.104105590751224" lon="11.926897470974465"><ele>357.75</ele><time>2026-05-03T10:49:32Z</time></trkpt><trkpt lat="42.10412491001172" lon="11.927054349826602"><ele>361.0</ele><time>2026-05-03T10:49:33Z</time></trkpt><trkpt lat="42.104146932832904" lon="11.927201040216389"><ele>361.0</ele><time>2026-05-03T10:49:34Z</time></trkpt><trkpt lat="42.10417374670752" lon="11.927341094388034"><ele>361.0</ele><time>2026-05-03T10:49:35Z</time></trkpt><trkpt lat="42.104209141278986" lon="11.927492946462127"><ele>361.0</ele><time>2026-05-03T10:49:36Z</time></trkpt><trkpt lat="42.10425121173194" lon="11.927648244389808"><ele>361.0</ele><time>2026-05-03T10:49:37Z</time></trkpt><trkpt lat="42.104292750823404" lon="11.927802234427707"><ele>361.20000000000005</ele><time>2026-05-03T10:49:38Z</time></trkpt><trkpt lat="42.104333959282805" lon="11.927944564487321"><ele>361.40000000000003</ele><time>2026-05-03T10:49:39Z</time></trkpt><trkpt lat="42.10437968326829" lon="11.928076365786989"><ele>361.6</ele><time>2026-05-03T10:49:40Z</time></trkpt><trkpt lat="42.10442564340791" lon="11.928210168945814"><ele>361.8</ele><time>2026-05-03T10:49:41Z</time></trkpt><trkpt lat="42.1044707417165" lon="11.928351873381736"><ele>362.0</ele><time>2026-05-03T10:49:42Z</time></trkpt><trkpt lat="42.10451453530583" lon="11.928498074185802"><ele>362.0</ele><time>2026-05-03T10:49:43Z</time></trkpt><trkpt lat="42.104559617054" lon="11.928655228972902"><ele>362.0</ele><time>2026-05-03T10:49:44Z</time></trkpt><trkpt lat="42.10460691145097" lon="11.928805026518361"><ele>362.0</ele><time>2026-05-03T10:49:45Z</time></trkpt><trkpt lat="42.10464886086257" lon="11.928935458535564"><ele>362.0</ele><time>2026-05-03T10:49:46Z</time></trkpt><trkpt lat="42.10467912140344" lon="11.929052325812192"><ele>362.0</ele><time>2026-05-03T10:49:47Z</time></trkpt><trkpt lat="42.1047028438551" lon="11.929169489742057"><ele>363.5</ele><time>2026-05-03T10:49:48Z</time></trkpt><trkpt lat="42.1046962077174" lon="11.929261911000001"><ele>365.0</ele><time>2026-05-03T10:49:49Z</time></trkpt><trkpt lat="42.10468049428807" lon="11.929349659737253"><ele>366.5</ele><time>2026-05-03T10:49:50Z</time></trkpt><trkpt lat="42.10465441271002" lon="11.929468801362358"><ele>368.0</ele><time>2026-05-03T10:49:51Z</time></trkpt><trkpt lat="42.10461923237729" lon="11.929586813905479"><ele>369.5</ele><time>2026-05-03T10:49:52Z</time></trkpt><trkpt lat="42.10458428956324" lon="11.929702809236252"><ele>371.0</ele><time>2026-05-03T10:49:53Z</time></trkpt><trkpt lat="42.10454139320371" lon="11.929803518393204"><ele>371.0</ele><time>2026-05-03T10:49:54Z</time></trkpt><trkpt lat="42.104486621047755" lon="11.929904888968625"><ele>371.0</ele><time>2026-05-03T10:49:55Z</time></trkpt><trkpt lat="42.10441662844755" lon="11.93000674430497"><ele>371.0</ele><time>2026-05-03T10:49:56Z</time></trkpt><trkpt lat="42.104330705334895" lon="11.930128703787194"><ele>371.0</ele><time>2026-05-03T10:49:57Z</time></trkpt><trkpt lat="42.10424252540362" lon="11.930251764019122"><ele>371.0</ele><time>2026-05-03T10:49:58Z</time></trkpt><trkpt lat="42.10417826977458" lon="11.930348630372173"><ele>370.4</ele><time>2026-05-03T10:49:59Z</time></trkpt><trkpt lat="42.104120268905966" lon="11.930456778386988"><ele>369.8</ele><time>2026-05-03T10:50:00Z</time></trkpt><trkpt lat="42.10409012413678" lon="11.930543469757838"><ele>369.2</ele><time>2026-05-03T10:50:01Z</time></trkpt><trkpt lat="42.10407053933264" lon="11.930629704920396"><ele>368.59999999999997</ele><time>2026-05-03T10:50:02Z</time></trkpt><trkpt lat="42.10408203969356" lon="11.930777911272358"><ele>368.0</ele><time>2026-05-03T10:50:04Z</time></trkpt><trkpt lat="42.10411743956687" lon="11.930913569475031"><ele>368.0</ele><time>2026-05-03T10:50:06Z</time></trkpt><trkpt lat="42.104153335551686" lon="11.931004608986157"><ele>368.0</ele><time>2026-05-03T10:50:08Z</time></trkpt><trkpt lat="42.104195424538716" lon="11.931088218137976"><ele>368.0</ele><time>2026-05-03T10:50:11Z</time></trkpt><trkpt lat="42.10425031951675" lon="11.931190232221404"><ele>368.0</ele><time>2026-05-03T10:51:08Z</time></trkpt><trkpt lat="42.1043354717476" lon="11.931300262930245"><ele>368.0</ele><time>2026-05-03T10:51:10Z</time></trkpt><trkpt lat="42.10438537448928" lon="11.931356829849122"><ele>368.0</ele><time>2026-05-03T10:51:11Z</time></trkpt><trkpt lat="42.10443503616095" lon="11.931418767373152"><ele>368.0</ele><time>2026-05-03T10:51:12Z</time></trkpt><trkpt lat="42.10448271845381" lon="11.931485231357495"><ele>368.0</ele><time>2026-05-03T10:51:13Z</time></trkpt><trkpt lat="42.104537505769976" lon="11.931550327212662"><ele>368.0</ele><time>2026-05-03T10:51:14Z</time></trkpt><trkpt lat="42.10458759884425" lon="11.931607098280452"><ele>368.0</ele><time>2026-05-03T10:51:15Z</time></trkpt><trkpt lat="42.104641808422464" lon="11.931671217891928"><ele>368.0</ele><time>2026-05-03T10:51:16Z</time></trkpt><trkpt lat="42.1046980179152" lon="11.931732884009515"><ele>368.0</ele><time>2026-05-03T10:51:17Z</time></trkpt><trkpt lat="42.1048004155285" lon="11.931851973203166"><ele>367.14285714285717</ele><time>2026-05-03T10:51:19Z</time></trkpt><trkpt lat="42.10486089691666" lon="11.93191071172584"><ele>366.2857142857143</ele><time>2026-05-03T10:51:20Z</time></trkpt><trkpt lat="42.104928393568194" lon="11.931969289376298"><ele>365.42857142857144</ele><time>2026-05-03T10:51:21Z</time></trkpt><trkpt lat="42.10499348531535" lon="11.9320109459901"><ele>364.57142857142856</ele><time>2026-05-03T10:51:22Z</time></trkpt><trkpt lat="42.105060304858185" lon="11.932047373817896"><ele>363.71428571428567</ele><time>2026-05-03T10:51:23Z</time></trkpt><trkpt lat="42.10512190722814" lon="11.932071603769755"><ele>362.85714285714283</ele><time>2026-05-03T10:51:24Z</time></trkpt><trkpt lat="42.10518687846397" lon="11.932088297444206"><ele>362.0</ele><time>2026-05-03T10:51:25Z</time></trkpt><trkpt lat="42.10531861162629" lon="11.93209577566929"><ele>362.0</ele><time>2026-05-03T10:51:27Z</time></trkpt><trkpt lat="42.10538594726622" lon="11.93209528579321"><ele>362.0</ele><time>2026-05-03T10:51:28Z</time></trkpt><trkpt lat="42.10545030510441" lon="11.932099705150813"><ele>362.0</ele><time>2026-05-03T10:51:29Z</time></trkpt><trkpt lat="42.10557828179637" lon="11.932105095736556"><ele>362.0</ele><time>2026-05-03T10:51:31Z</time></trkpt><trkpt lat="42.10570337958105" lon="11.932108341073903"><ele>362.0</ele><time>2026-05-03T10:51:33Z</time></trkpt><trkpt lat="42.105766531216645" lon="11.932112206803035"><ele>362.0</ele><time>2026-05-03T10:51:34Z</time></trkpt><trkpt lat="42.105887169203676" lon="11.932119274205021"><ele>360.83333333333337</ele><time>2026-05-03T10:51:36Z</time></trkpt><trkpt lat="42.10600310546064" lon="11.93211898698399"><ele>359.6666666666667</ele><time>2026-05-03T10:51:38Z</time></trkpt><trkpt lat="42.10608489759966" lon="11.932121384704182"><ele>358.5</ele><time>2026-05-03T10:51:40Z</time></trkpt><trkpt lat="42.106148806510596" lon="11.93211788273125"><ele>357.3333333333333</ele><time>2026-05-03T10:51:43Z</time></trkpt><trkpt lat="42.10621460991894" lon="11.932127829846115"><ele>356.16666666666663</ele><time>2026-05-03T10:52:03Z</time></trkpt><trkpt lat="42.106303898889024" lon="11.932110700229417"><ele>355.0</ele><time>2026-05-03T10:52:04Z</time></trkpt><trkpt lat="42.106429096679726" lon="11.93211135024005"><ele>355.0</ele><time>2026-05-03T10:52:05Z</time></trkpt><trkpt lat="42.106550512435604" lon="11.93212857311312"><ele>355.0</ele><time>2026-05-03T10:52:06Z</time></trkpt><trkpt lat="42.106668524827434" lon="11.932134154471685"><ele>355.0</ele><time>2026-05-03T10:52:07Z</time></trkpt><trkpt lat="42.10677210974338" lon="11.932139691065247"><ele>355.0</ele><time>2026-05-03T10:52:08Z</time></trkpt><trkpt lat="42.106881826602866" lon="11.93215018769571"><ele>354.4</ele><time>2026-05-03T10:52:09Z</time></trkpt><trkpt lat="42.10698367750125" lon="11.932172205051979"><ele>353.8</ele><time>2026-05-03T10:52:10Z</time></trkpt><trkpt lat="42.10707756379454" lon="11.932206008418712"><ele>353.20000000000005</ele><time>2026-05-03T10:52:11Z</time></trkpt><trkpt lat="42.10716987044984" lon="11.932257384777762"><ele>352.6</ele><time>2026-05-03T10:52:12Z</time></trkpt><trkpt lat="42.107264276606486" lon="11.932329696773353"><ele>352.0</ele><time>2026-05-03T10:52:13Z</time></trkpt><trkpt lat="42.107358467629076" lon="11.932412978614224"><ele>353.5</ele><time>2026-05-03T10:52:14Z</time></trkpt><trkpt lat="42.10745822210723" lon="11.932493781040138"><ele>355.0</ele><time>2026-05-03T10:52:15Z</time></trkpt><trkpt lat="42.1075615395086" lon="11.93256252688074"><ele>356.5</ele><time>2026-05-03T10:52:16Z</time></trkpt><trkpt lat="42.1076660365561" lon="11.932629101654763"><ele>358.0</ele><time>2026-05-03T10:52:17Z</time></trkpt><trkpt lat="42.107769993548686" lon="11.932694902684723"><ele>358.0</ele><time>2026-05-03T10:52:18Z</time></trkpt><trkpt lat="42.10787419349654" lon="11.932766992025705"><ele>358.0</ele><time>2026-05-03T10:52:19Z</time></trkpt><trkpt lat="42.10796907350707" lon="11.932835667506694"><ele>358.0</ele><time>2026-05-03T10:52:20Z</time></trkpt><trkpt lat="42.10803974584217" lon="11.932880029547832"><ele>358.0</ele><time>2026-05-03T10:52:21Z</time></trkpt><trkpt lat="42.108118506360206" lon="11.93291491989891"><ele>358.0</ele><time>2026-05-03T10:52:22Z</time></trkpt><trkpt lat="42.10820069758717" lon="11.932917748812333"><ele>360.4</ele><time>2026-05-03T10:52:23Z</time></trkpt><trkpt lat="42.108296836778926" lon="11.932919770556012"><ele>362.79999999999995</ele><time>2026-05-03T10:52:24Z</time></trkpt><trkpt lat="42.108396202823826" lon="11.932923701821624"><ele>365.2</ele><time>2026-05-03T10:52:25Z</time></trkpt><trkpt lat="42.10848744799945" lon="11.932905610228584"><ele>367.6</ele><time>2026-05-03T10:52:26Z</time></trkpt><trkpt lat="42.10857241487924" lon="11.932859083968543"><ele>370.0</ele><time>2026-05-03T10:52:27Z</time></trkpt><trkpt lat="42.10866816970665" lon="11.932781739584923"><ele>370.0</ele><time>2026-05-03T10:52:28Z</time></trkpt><trkpt lat="42.108779229598355" lon="11.932689878773347"><ele>370.0</ele><time>2026-05-03T10:52:29Z</time></trkpt><trkpt lat="42.10889094036424" lon="11.932596677824092"><ele>370.0</ele><time>2026-05-03T10:52:30Z</time></trkpt><trkpt lat="42.10901011336032" lon="11.932500067653631"><ele>370.0</ele><time>2026-05-03T10:52:31Z</time></trkpt><trkpt lat="42.10913292428587" lon="11.932414681898065"><ele>373.5</ele><time>2026-05-03T10:52:32Z</time></trkpt><trkpt lat="42.10925497710616" lon="11.932343273565401"><ele>377.0</ele><time>2026-05-03T10:52:33Z</time></trkpt><trkpt lat="42.10935994576066" lon="11.932266445993186"><ele>380.5</ele><time>2026-05-03T10:52:34Z</time></trkpt><trkpt lat="42.109460228067285" lon="11.932175630087094"><ele>384.0</ele><time>2026-05-03T10:52:34.999Z</time></trkpt><trkpt lat="42.109554872063725" lon="11.932093429320107"><ele>384.0</ele><time>2026-05-03T10:52:35.999Z</time></trkpt><trkpt lat="42.109650295178454" lon="11.932020572829058"><ele>384.0</ele><time>2026-05-03T10:52:36.999Z</time></trkpt><trkpt lat="42.10974991966131" lon="11.93195007928506"><ele>384.0</ele><time>2026-05-03T10:52:37.999Z</time></trkpt><trkpt lat="42.10984428171761" lon="11.931884788315923"><ele>384.0</ele><time>2026-05-03T10:52:39Z</time></trkpt><trkpt lat="42.10993724635907" lon="11.931830765943428"><ele>384.0</ele><time>2026-05-03T10:52:40Z</time></trkpt><trkpt lat="42.110037220890895" lon="11.93178769744685"><ele>385.2</ele><time>2026-05-03T10:52:41Z</time></trkpt><trkpt lat="42.110148557403065" lon="11.931755675365498"><ele>386.4</ele><time>2026-05-03T10:52:42Z</time></trkpt><trkpt lat="42.11024680154849" lon="11.931742021138664"><ele>387.6</ele><time>2026-05-03T10:52:43Z</time></trkpt><trkpt lat="42.11034725040227" lon="11.931731214806788"><ele>388.8</ele><time>2026-05-03T10:52:44Z</time></trkpt><trkpt lat="42.110464223120545" lon="11.931715045072918"><ele>390.0</ele><time>2026-05-03T10:52:45Z</time></trkpt><trkpt lat="42.11057537455741" lon="11.931694618225979"><ele>391.2</ele><time>2026-05-03T10:52:46Z</time></trkpt><trkpt lat="42.11068925829732" lon="11.931667540272162"><ele>392.4</ele><time>2026-05-03T10:52:47Z</time></trkpt><trkpt lat="42.110787231660666" lon="11.931641299493936"><ele>393.6</ele><time>2026-05-03T10:52:48Z</time></trkpt><trkpt lat="42.11087583011103" lon="11.931619719751787"><ele>394.8</ele><time>2026-05-03T10:52:49Z</time></trkpt><trkpt lat="42.11095460530856" lon="11.931610728501852"><ele>396.0</ele><time>2026-05-03T10:52:50Z</time></trkpt><trkpt lat="42.11106008297516" lon="11.931634810319062"><ele>397.0</ele><time>2026-05-03T10:52:52Z</time></trkpt><trkpt lat="42.11114550300804" lon="11.931741868595996"><ele>398.0</ele><time>2026-05-03T10:52:54Z</time></trkpt><trkpt lat="42.11119078512873" lon="11.93181607827671"><ele>399.0</ele><time>2026-05-03T10:52:55Z</time></trkpt><trkpt lat="42.11123029530417" lon="11.931903226698825"><ele>400.0</ele><time>2026-05-03T10:52:56Z</time></trkpt><trkpt lat="42.11128377130086" lon="11.932003578266274"><ele>401.0</ele><time>2026-05-03T10:52:57Z</time></trkpt><trkpt lat="42.111348251952656" lon="11.932118725926076"><ele>401.0</ele><time>2026-05-03T10:52:58Z</time></trkpt><trkpt lat="42.11141597015274" lon="11.932233577839504"><ele>401.0</ele><time>2026-05-03T10:52:59Z</time></trkpt><trkpt lat="42.111470437201866" lon="11.93233414014828"><ele>401.0</ele><time>2026-05-03T10:53:00Z</time></trkpt><trkpt lat="42.111519113634884" lon="11.932414577749697"><ele>401.0</ele><time>2026-05-03T10:53:01Z</time></trkpt><trkpt lat="42.11161978266903" lon="11.9325018168803"><ele>401.0</ele><time>2026-05-03T10:53:03Z</time></trkpt><trkpt lat="42.111730329165574" lon="11.93251367733048"><ele>403.8</ele><time>2026-05-03T10:53:05Z</time></trkpt><trkpt lat="42.11184249316894" lon="11.932462483101894"><ele>406.6</ele><time>2026-05-03T10:53:07Z</time></trkpt><trkpt lat="42.111901133010434" lon="11.932420048410293"><ele>409.4</ele><time>2026-05-03T10:53:08Z</time></trkpt><trkpt lat="42.111973315081194" lon="11.932367717618341"><ele>412.2</ele><time>2026-05-03T10:53:09Z</time></trkpt><trkpt lat="42.11206387730485" lon="11.93231258450614"><ele>415.0</ele><time>2026-05-03T10:53:10Z</time></trkpt><trkpt lat="42.11216037869913" lon="11.932250118640873"><ele>415.0</ele><time>2026-05-03T10:53:11Z</time></trkpt><trkpt lat="42.112250659599326" lon="11.932189083950144"><ele>415.0</ele><time>2026-05-03T10:53:12Z</time></trkpt><trkpt lat="42.11231854677466" lon="11.93213178776495"><ele>415.0</ele><time>2026-05-03T10:53:13Z</time></trkpt><trkpt lat="42.11242348305671" lon="11.932089168406176"><ele>415.0</ele><time>2026-05-03T10:53:15Z</time></trkpt><trkpt lat="42.11248707865876" lon="11.932094243243208"><ele>415.0</ele><time>2026-05-03T10:53:16Z</time></trkpt><trkpt lat="42.11260201163564" lon="11.93215179917414"><ele>417.00000000000006</ele><time>2026-05-03T10:53:18Z</time></trkpt><trkpt lat="42.11270228433279" lon="11.932228476958151"><ele>419.0</ele><time>2026-05-03T10:53:20Z</time></trkpt><trkpt lat="42.11280847954784" lon="11.93232282346178"><ele>421.0</ele><time>2026-05-03T10:53:22Z</time></trkpt><trkpt lat="42.11286172396491" lon="11.932374381052053"><ele>423.0</ele><time>2026-05-03T10:53:23Z</time></trkpt><trkpt lat="42.112912567577155" lon="11.932425264246572"><ele>425.00000000000006</ele><time>2026-05-03T10:53:24Z</time></trkpt><trkpt lat="42.11296634859654" lon="11.932484543665662"><ele>427.0</ele><time>2026-05-03T10:53:26Z</time></trkpt><trkpt lat="42.11303690137105" lon="11.932409620965831"><ele>427.0</ele><time>2026-05-03T10:53:57Z</time></trkpt><trkpt lat="42.113059777475776" lon="11.93228256436082"><ele>427.00000000000006</ele><time>2026-05-03T10:53:58Z</time></trkpt><trkpt lat="42.113071004056565" lon="11.932182297555064"><ele>427.00000000000006</ele><time>2026-05-03T10:53:59Z</time></trkpt><trkpt lat="42.113081565000215" lon="11.932071903852167"><ele>427.0</ele><time>2026-05-03T10:54:00Z</time></trkpt><trkpt lat="42.113087621233376" lon="11.931868454001446"><ele>427.0</ele><time>2026-05-03T10:54:02Z</time></trkpt><trkpt lat="42.11309432599258" lon="11.931751804888817"><ele>428.40000000000003</ele><time>2026-05-03T10:54:03Z</time></trkpt><trkpt lat="42.11309921211035" lon="11.931638647837305"><ele>429.80000000000007</ele><time>2026-05-03T10:54:04Z</time></trkpt><trkpt lat="42.113151086189916" lon="11.9315036511815"><ele>431.2</ele><time>2026-05-03T10:54:06Z</time></trkpt><trkpt lat="42.113280055816524" lon="11.93147743488749"><ele>432.6</ele><time>2026-05-03T10:54:08Z</time></trkpt><trkpt lat="42.11335144972034" lon="11.931514781528552"><ele>434.0</ele><time>2026-05-03T10:54:09Z</time></trkpt><trkpt lat="42.11342241417895" lon="11.931556789489136"><ele>436.16666666666663</ele><time>2026-05-03T10:54:10Z</time></trkpt><trkpt lat="42.11349769900279" lon="11.931594012170065"><ele>438.3333333333333</ele><time>2026-05-03T10:54:11Z</time></trkpt><trkpt lat="42.11356867402568" lon="11.931619480092262"><ele>440.5</ele><time>2026-05-03T10:54:12Z</time></trkpt><trkpt lat="42.113646338704854" lon="11.931633703571572"><ele>442.66666666666663</ele><time>2026-05-03T10:54:13Z</time></trkpt><trkpt lat="42.1137168430145" lon="11.931616236350791"><ele>444.8333333333333</ele><time>2026-05-03T10:54:14Z</time></trkpt><trkpt lat="42.11381514025768" lon="11.931510044607322"><ele>447.0</ele><time>2026-05-03T10:54:16Z</time></trkpt><trkpt lat="42.11385662231636" lon="11.93142558255804"><ele>447.0</ele><time>2026-05-03T10:54:17Z</time></trkpt><trkpt lat="42.113896921781574" lon="11.93133436306041"><ele>447.0</ele><time>2026-05-03T10:54:18Z</time></trkpt><trkpt lat="42.113937670171" lon="11.931240561645655"><ele>447.0</ele><time>2026-05-03T10:54:19Z</time></trkpt><trkpt lat="42.113983815554384" lon="11.931143142514717"><ele>447.0</ele><time>2026-05-03T10:54:20Z</time></trkpt><trkpt lat="42.11403196822288" lon="11.931051994404866"><ele>447.0</ele><time>2026-05-03T10:54:21Z</time></trkpt><trkpt lat="42.11408438777136" lon="11.93096136354279"><ele>447.0</ele><time>2026-05-03T10:54:22Z</time></trkpt><trkpt lat="42.11413310243501" lon="11.930864366693482"><ele>449.0</ele><time>2026-05-03T10:54:23Z</time></trkpt><trkpt lat="42.11418313834537" lon="11.93077406213371"><ele>451.00000000000006</ele><time>2026-05-03T10:54:24Z</time></trkpt><trkpt lat="42.11423791190146" lon="11.930677964562896"><ele>453.00000000000006</ele><time>2026-05-03T10:54:25Z</time></trkpt><trkpt lat="42.11429539521814" lon="11.930583929130572"><ele>455.0</ele><time>2026-05-03T10:54:26Z</time></trkpt><trkpt lat="42.11435252563577" lon="11.930489156351985"><ele>457.0</ele><time>2026-05-03T10:54:27Z</time></trkpt><trkpt lat="42.11441256186981" lon="11.930385744639407"><ele>457.0</ele><time>2026-05-03T10:54:28Z</time></trkpt><trkpt lat="42.114472467280365" lon="11.930285030316139"><ele>457.00000000000006</ele><time>2026-05-03T10:54:29Z</time></trkpt><trkpt lat="42.11453230482631" lon="11.930187483606831"><ele>457.00000000000006</ele><time>2026-05-03T10:54:30Z</time></trkpt><trkpt lat="42.11459743452377" lon="11.930088537801854"><ele>457.0</ele><time>2026-05-03T10:54:31Z</time></trkpt><trkpt lat="42.114663335337134" lon="11.929981397886943"><ele>457.0</ele><time>2026-05-03T10:54:32Z</time></trkpt><trkpt lat="42.11472522171343" lon="11.929878574174863"><ele>456.00000000000006</ele><time>2026-05-03T10:54:33Z</time></trkpt><trkpt lat="42.114785419547445" lon="11.929778114266293"><ele>455.0</ele><time>2026-05-03T10:54:34Z</time></trkpt><trkpt lat="42.114837490682866" lon="11.929689111398"><ele>454.0</ele><time>2026-05-03T10:54:35Z</time></trkpt><trkpt lat="42.11488433231552" lon="11.92960004331738"><ele>453.0</ele><time>2026-05-03T10:54:36Z</time></trkpt><trkpt lat="42.114928707531895" lon="11.929504088874817"><ele>452.00000000000006</ele><time>2026-05-03T10:54:37Z</time></trkpt><trkpt lat="42.114971515006495" lon="11.929398058510088"><ele>451.0</ele><time>2026-05-03T10:54:38Z</time></trkpt><trkpt lat="42.115012177668724" lon="11.929297622530838"><ele>451.4</ele><time>2026-05-03T10:54:39Z</time></trkpt><trkpt lat="42.115054765557744" lon="11.929189706595913"><ele>451.8</ele><time>2026-05-03T10:54:40Z</time></trkpt><trkpt lat="42.11510820676413" lon="11.929079517131502"><ele>452.19999999999993</ele><time>2026-05-03T10:54:41Z</time></trkpt><trkpt lat="42.11518170875649" lon="11.928976375671443"><ele>452.59999999999997</ele><time>2026-05-03T10:54:42Z</time></trkpt><trkpt lat="42.11527519765448" lon="11.928895926483557"><ele>453.0</ele><time>2026-05-03T10:54:43Z</time></trkpt><trkpt lat="42.11537498713072" lon="11.92883637816591"><ele>453.0</ele><time>2026-05-03T10:54:44Z</time></trkpt><trkpt lat="42.115474924996164" lon="11.928778500090582"><ele>453.0</ele><time>2026-05-03T10:54:45Z</time></trkpt><trkpt lat="42.11556752904216" lon="11.928699261780205"><ele>453.0</ele><time>2026-05-03T10:54:46Z</time></trkpt><trkpt lat="42.11565969716238" lon="11.928608611064867"><ele>453.0</ele><time>2026-05-03T10:54:47Z</time></trkpt><trkpt lat="42.115751062387815" lon="11.928505951260197"><ele>453.0</ele><time>2026-05-03T10:54:48Z</time></trkpt><trkpt lat="42.115839900752185" lon="11.928400539775236"><ele>453.0</ele><time>2026-05-03T10:54:49Z</time></trkpt><trkpt lat="42.11593120157166" lon="11.928291667674866"><ele>453.0</ele><time>2026-05-03T10:54:50Z</time></trkpt><trkpt lat="42.116029089714495" lon="11.928179362015818"><ele>453.0</ele><time>2026-05-03T10:54:51Z</time></trkpt><trkpt lat="42.116128783733366" lon="11.928073070388834"><ele>453.0</ele><time>2026-05-03T10:54:52Z</time></trkpt><trkpt lat="42.116226045285494" lon="11.927966874477857"><ele>453.0</ele><time>2026-05-03T10:54:53Z</time></trkpt><trkpt lat="42.11632092539875" lon="11.927859012182122"><ele>453.0</ele><time>2026-05-03T10:54:54Z</time></trkpt><trkpt lat="42.11641585016165" lon="11.92775567666052"><ele>453.0</ele><time>2026-05-03T10:54:55Z</time></trkpt><trkpt lat="42.11651875475581" lon="11.927653488880333"><ele>452.25</ele><time>2026-05-03T10:54:56Z</time></trkpt><trkpt lat="42.116621754152895" lon="11.927553113984827"><ele>451.5</ele><time>2026-05-03T10:54:57Z</time></trkpt><trkpt lat="42.1167267838408" lon="11.927463882076623"><ele>450.75</ele><time>2026-05-03T10:54:58Z</time></trkpt><trkpt lat="42.11683649580505" lon="11.927391649530074"><ele>450.0</ele><time>2026-05-03T10:54:59Z</time></trkpt><trkpt lat="42.11694681487659" lon="11.927350783917726"><ele>450.0</ele><time>2026-05-03T10:55:00Z</time></trkpt><trkpt lat="42.11705259514499" lon="11.927321990798331"><ele>450.0</ele><time>2026-05-03T10:55:01Z</time></trkpt><trkpt lat="42.117156015088035" lon="11.92728853083743"><ele>450.0</ele><time>2026-05-03T10:55:02Z</time></trkpt><trkpt lat="42.117257127533854" lon="11.927256340587013"><ele>450.0</ele><time>2026-05-03T10:55:03Z</time></trkpt><trkpt lat="42.117359975650636" lon="11.927242737116767"><ele>450.0</ele><time>2026-05-03T10:55:04Z</time></trkpt><trkpt lat="42.117462632156474" lon="11.927240593580485"><ele>450.0</ele><time>2026-05-03T10:55:05Z</time></trkpt><trkpt lat="42.11755941478983" lon="11.927236848028747"><ele>450.0</ele><time>2026-05-03T10:55:06Z</time></trkpt><trkpt lat="42.11765245404486" lon="11.927226031395628"><ele>450.0</ele><time>2026-05-03T10:55:07Z</time></trkpt><trkpt lat="42.117748946611364" lon="11.92722263157743"><ele>450.0</ele><time>2026-05-03T10:55:08Z</time></trkpt><trkpt lat="42.117841383875344" lon="11.927231082078569"><ele>450.0</ele><time>2026-05-03T10:55:09Z</time></trkpt><trkpt lat="42.11793671785287" lon="11.927242418891042"><ele>450.0</ele><time>2026-05-03T10:55:10Z</time></trkpt><trkpt lat="42.11802751345058" lon="11.927245871132119"><ele>450.0</ele><time>2026-05-03T10:55:11Z</time></trkpt><trkpt lat="42.11811764741305" lon="11.92724257754436"><ele>450.0</ele><time>2026-05-03T10:55:12Z</time></trkpt><trkpt lat="42.1181999104193" lon="11.927238499463227"><ele>450.0</ele><time>2026-05-03T10:55:13Z</time></trkpt><trkpt lat="42.11828488738551" lon="11.927234280461592"><ele>450.0</ele><time>2026-05-03T10:55:14Z</time></trkpt><trkpt lat="42.11835570412328" lon="11.927231059339746"><ele>450.0</ele><time>2026-05-03T10:55:15Z</time></trkpt><trkpt lat="42.118422907552976" lon="11.927225771549018"><ele>449.0</ele><time>2026-05-03T10:55:16Z</time></trkpt><trkpt lat="42.11850946754999" lon="11.92716801861771"><ele>448.0</ele><time>2026-05-03T10:55:18Z</time></trkpt><trkpt lat="42.11850509638491" lon="11.927037062178886"><ele>447.0</ele><time>2026-05-03T10:55:20Z</time></trkpt><trkpt lat="42.118427480844566" lon="11.926933968395948"><ele>446.0</ele><time>2026-05-03T10:55:22Z</time></trkpt><trkpt lat="42.11834940133424" lon="11.926879251082298"><ele>445.0</ele><time>2026-05-03T10:55:23Z</time></trkpt><trkpt lat="42.11826322818059" lon="11.926820662211526"><ele>444.33333333333337</ele><time>2026-05-03T10:55:24Z</time></trkpt><trkpt lat="42.118196871970774" lon="11.926755978307932"><ele>443.6666666666667</ele><time>2026-05-03T10:55:25Z</time></trkpt><trkpt lat="42.11813574192829" lon="11.926669509012338"><ele>443.0</ele><time>2026-05-03T10:55:26Z</time></trkpt><trkpt lat="42.11807758362887" lon="11.926579269381202"><ele>442.33333333333337</ele><time>2026-05-03T10:55:27Z</time></trkpt><trkpt lat="42.118025060634906" lon="11.926493078972438"><ele>441.6666666666667</ele><time>2026-05-03T10:55:28Z</time></trkpt><trkpt lat="42.11797770211831" lon="11.92641041337102"><ele>441.0</ele><time>2026-05-03T10:55:29Z</time></trkpt><trkpt lat="42.11793642123547" lon="11.926327927323756"><ele>441.0</ele><time>2026-05-03T10:55:30Z</time></trkpt><trkpt lat="42.11789838450463" lon="11.926236346082737"><ele>441.0</ele><time>2026-05-03T10:55:31Z</time></trkpt><trkpt lat="42.11785065657" lon="11.926103962616823"><ele>441.0</ele><time>2026-05-03T10:55:33Z</time></trkpt><trkpt lat="42.117831009799595" lon="11.925993928793195"><ele>441.0</ele><time>2026-05-03T10:55:35Z</time></trkpt><trkpt lat="42.117807432215464" lon="11.925882638255926"><ele>441.0</ele><time>2026-05-03T10:55:37Z</time></trkpt><trkpt lat="42.117788429888975" lon="11.925749031213188"><ele>439.4</ele><time>2026-05-03T10:55:39Z</time></trkpt><trkpt lat="42.11777365457022" lon="11.925637982933917"><ele>437.8</ele><time>2026-05-03T10:55:41Z</time></trkpt><trkpt lat="42.11773856481715" lon="11.92549309546072"><ele>436.19999999999993</ele><time>2026-05-03T10:55:43Z</time></trkpt><trkpt lat="42.11769505225619" lon="11.925365000281825"><ele>434.59999999999997</ele><time>2026-05-03T10:55:45Z</time></trkpt><trkpt lat="42.117626052823425" lon="11.925255457496268"><ele>433.0</ele><time>2026-05-03T10:55:47Z</time></trkpt><trkpt lat="42.117550822139236" lon="11.92516414088648"><ele>433.00000000000006</ele><time>2026-05-03T10:55:49Z</time></trkpt><trkpt lat="42.117469168646245" lon="11.925096735447967"><ele>433.0</ele><time>2026-05-03T10:55:51Z</time></trkpt><trkpt lat="42.11736890206057" lon="11.925039855877984"><ele>433.0</ele><time>2026-05-03T10:55:53Z</time></trkpt><trkpt lat="42.117265245129296" lon="11.925071809067644"><ele>433.0</ele><time>2026-05-03T10:55:55Z</time></trkpt><trkpt lat="42.11720471062317" lon="11.925103660575683"><ele>433.00000000000006</ele><time>2026-05-03T10:55:56Z</time></trkpt><trkpt lat="42.11714273241922" lon="11.92514633569222"><ele>433.0</ele><time>2026-05-03T10:55:57Z</time></trkpt><trkpt lat="42.11708134470993" lon="11.925165711784135"><ele>432.79999999999995</ele><time>2026-05-03T10:55:58Z</time></trkpt><trkpt lat="42.1169816254328" lon="11.92513267906492"><ele>432.59999999999997</ele><time>2026-05-03T10:56:00Z</time></trkpt><trkpt lat="42.11689205797103" lon="11.925033781269631"><ele>432.40000000000003</ele><time>2026-05-03T10:56:02Z</time></trkpt><trkpt lat="42.11684285752864" lon="11.924971548530426"><ele>432.20000000000005</ele><time>2026-05-03T10:56:03Z</time></trkpt><trkpt lat="42.11678420875273" lon="11.924891493722628"><ele>432.0</ele><time>2026-05-03T10:56:04Z</time></trkpt><trkpt lat="42.11672632069024" lon="11.92480677740864"><ele>430.3333333333333</ele><time>2026-05-03T10:56:05Z</time></trkpt><trkpt lat="42.11666953198682" lon="11.924733641523858"><ele>428.66666666666663</ele><time>2026-05-03T10:56:06Z</time></trkpt><trkpt lat="42.11660759000158" lon="11.924667427149213"><ele>427.0</ele><time>2026-05-03T10:56:07Z</time></trkpt><trkpt lat="42.116559297821446" lon="11.924611801292878"><ele>425.3333333333333</ele><time>2026-05-03T10:56:08Z</time></trkpt><trkpt lat="42.11647336905259" lon="11.924478129112423"><ele>423.66666666666663</ele><time>2026-05-03T10:56:10Z</time></trkpt><trkpt lat="42.11643768321614" lon="11.92438729013777"><ele>422.0</ele><time>2026-05-03T10:56:11Z</time></trkpt><trkpt lat="42.11640809634917" lon="11.924301079075354"><ele>421.16666666666663</ele><time>2026-05-03T10:56:12Z</time></trkpt><trkpt lat="42.11638682941093" lon="11.92419280171615"><ele>420.3333333333333</ele><time>2026-05-03T10:56:13Z</time></trkpt><trkpt lat="42.11636598958313" lon="11.924078415023951"><ele>419.5</ele><time>2026-05-03T10:56:14Z</time></trkpt><trkpt lat="42.116354836355995" lon="11.923972853482653"><ele>418.66666666666663</ele><time>2026-05-03T10:56:15Z</time></trkpt><trkpt lat="42.1163460050389" lon="11.923860123592961"><ele>417.8333333333333</ele><time>2026-05-03T10:56:16Z</time></trkpt><trkpt lat="42.116348460994686" lon="11.923749188831806"><ele>417.0</ele><time>2026-05-03T10:56:17Z</time></trkpt><trkpt lat="42.116368446035615" lon="11.92364119951853"><ele>417.0</ele><time>2026-05-03T10:56:18Z</time></trkpt><trkpt lat="42.116408630319405" lon="11.923529271332349"><ele>417.0</ele><time>2026-05-03T10:56:19Z</time></trkpt><trkpt lat="42.116457687273375" lon="11.923414105061731"><ele>417.0</ele><time>2026-05-03T10:56:20Z</time></trkpt><trkpt lat="42.116517667678096" lon="11.923289335810113"><ele>417.0</ele><time>2026-05-03T10:56:21Z</time></trkpt><trkpt lat="42.11657388888088" lon="11.923169973316897"><ele>417.0</ele><time>2026-05-03T10:56:22Z</time></trkpt><trkpt lat="42.116621857208834" lon="11.923045942214333"><ele>418.0</ele><time>2026-05-03T10:56:23Z</time></trkpt><trkpt lat="42.116671309412055" lon="11.922921675852896"><ele>419.0</ele><time>2026-05-03T10:56:24Z</time></trkpt><trkpt lat="42.11672129063884" lon="11.922786783958951"><ele>420.0</ele><time>2026-05-03T10:56:25Z</time></trkpt><trkpt lat="42.11677176281474" lon="11.922634848949782"><ele>421.0</ele><time>2026-05-03T10:56:26Z</time></trkpt><trkpt lat="42.116800577320525" lon="11.922500504684386"><ele>422.0</ele><time>2026-05-03T10:56:27Z</time></trkpt><trkpt lat="42.11682645943019" lon="11.922368637353546"><ele>423.99999999999994</ele><time>2026-05-03T10:56:28Z</time></trkpt><trkpt lat="42.11686160059211" lon="11.922251175342124"><ele>426.0</ele><time>2026-05-03T10:56:29Z</time></trkpt><trkpt lat="42.116888561596" lon="11.922147487598947"><ele>428.0</ele><time>2026-05-03T10:56:30Z</time></trkpt><trkpt lat="42.11689532677954" lon="11.922056290081274"><ele>430.0</ele><time>2026-05-03T10:56:31Z</time></trkpt><trkpt lat="42.116851866590885" lon="11.921890536403595"><ele>431.99999999999994</ele><time>2026-05-03T10:56:33Z</time></trkpt><trkpt lat="42.11681605278681" lon="11.921802539059687"><ele>434.0</ele><time>2026-05-03T10:56:34Z</time></trkpt><trkpt lat="42.11675768641736" lon="11.921687343853316"><ele>434.2</ele><time>2026-05-03T10:56:35Z</time></trkpt><trkpt lat="42.11669289937331" lon="11.921563116043885"><ele>434.4</ele><time>2026-05-03T10:56:36Z</time></trkpt><trkpt lat="42.1166330838591" lon="11.92144348258636"><ele>434.6</ele><time>2026-05-03T10:56:37Z</time></trkpt><trkpt lat="42.116592508968516" lon="11.921322223913977"><ele>434.8</ele><time>2026-05-03T10:56:37.999Z</time></trkpt><trkpt lat="42.11656128905777" lon="11.921223374529697"><ele>435.0</ele><time>2026-05-03T10:56:38.999Z</time></trkpt><trkpt lat="42.11653856102873" lon="11.921118596456225"><ele>435.0</ele><time>2026-05-03T10:56:39.999Z</time></trkpt><trkpt lat="42.11652421184654" lon="11.921002496333415"><ele>435.0</ele><time>2026-05-03T10:56:40.999Z</time></trkpt><trkpt lat="42.11651939029198" lon="11.920881778010383"><ele>435.0</ele><time>2026-05-03T10:56:41.999Z</time></trkpt><trkpt lat="42.116534064505785" lon="11.92076325699228"><ele>435.0</ele><time>2026-05-03T10:56:42.999Z</time></trkpt><trkpt lat="42.11655053166182" lon="11.920644271461784"><ele>435.0</ele><time>2026-05-03T10:56:43.999Z</time></trkpt><trkpt lat="42.11656399999963" lon="11.920543283813704"><ele>435.0</ele><time>2026-05-03T10:56:44.999Z</time></trkpt><trkpt lat="42.1165706036198" lon="11.920432429168438"><ele>435.0</ele><time>2026-05-03T10:56:45.999Z</time></trkpt><trkpt lat="42.11658054174557" lon="11.920333473456168"><ele>435.0</ele><time>2026-05-03T10:56:46.999Z</time></trkpt><trkpt lat="42.11658891550898" lon="11.920231152061927"><ele>435.0</ele><time>2026-05-03T10:56:47.999Z</time></trkpt><trkpt lat="42.116594320067165" lon="11.920122789226754"><ele>435.0</ele><time>2026-05-03T10:56:48.999Z</time></trkpt><trkpt lat="42.11660297476123" lon="11.919999023735409"><ele>435.0</ele><time>2026-05-03T10:56:50Z</time></trkpt><trkpt lat="42.11661133986012" lon="11.919883878466932"><ele>435.0</ele><time>2026-05-03T10:56:51Z</time></trkpt><trkpt lat="42.11662520042201" lon="11.919764313581712"><ele>434.3333333333333</ele><time>2026-05-03T10:56:52Z</time></trkpt><trkpt lat="42.116644484879735" lon="11.919649378683427"><ele>433.66666666666663</ele><time>2026-05-03T10:56:53Z</time></trkpt><trkpt lat="42.11666759421995" lon="11.919534190859117"><ele>433.0</ele><time>2026-05-03T10:56:54Z</time></trkpt><trkpt lat="42.11668035519343" lon="11.919418590291054"><ele>432.3333333333333</ele><time>2026-05-03T10:56:55Z</time></trkpt><trkpt lat="42.11667938948793" lon="11.919295605716222"><ele>431.66666666666663</ele><time>2026-05-03T10:56:56Z</time></trkpt><trkpt lat="42.116669485859894" lon="11.919197231670534"><ele>431.0</ele><time>2026-05-03T10:56:57Z</time></trkpt><trkpt lat="42.1166548267478" lon="11.919105519232394"><ele>430.4</ele><time>2026-05-03T10:56:58Z</time></trkpt><trkpt lat="42.11662423605085" lon="11.919003667557973"><ele>429.8</ele><time>2026-05-03T10:56:59Z</time></trkpt><trkpt lat="42.11657834363572" lon="11.918906630827422"><ele>429.19999999999993</ele><time>2026-05-03T10:57:00Z</time></trkpt><trkpt lat="42.11651212536723" lon="11.918813687541439"><ele>428.59999999999997</ele><time>2026-05-03T10:57:01Z</time></trkpt><trkpt lat="42.11642780115937" lon="11.918730111793481"><ele>428.0</ele><time>2026-05-03T10:57:02Z</time></trkpt><trkpt lat="42.116352999175" lon="11.918651460797664"><ele>427.2</ele><time>2026-05-03T10:57:03Z</time></trkpt><trkpt lat="42.116288606044854" lon="11.918544178306057"><ele>426.4</ele><time>2026-05-03T10:57:04Z</time></trkpt><trkpt lat="42.1162210317716" lon="11.918439793537573"><ele>425.59999999999997</ele><time>2026-05-03T10:57:05Z</time></trkpt><trkpt lat="42.11615411068258" lon="11.918342318081793"><ele>424.79999999999995</ele><time>2026-05-03T10:57:06Z</time></trkpt><trkpt lat="42.11607887202931" lon="11.918232112500831"><ele>424.0</ele><time>2026-05-03T10:57:07Z</time></trkpt><trkpt lat="42.11601284769682" lon="11.918132362849223"><ele>423.4</ele><time>2026-05-03T10:57:08Z</time></trkpt><trkpt lat="42.11595519120588" lon="11.918038077899292"><ele>422.79999999999995</ele><time>2026-05-03T10:57:09Z</time></trkpt><trkpt lat="42.115896874911506" lon="11.917937966325464"><ele>422.20000000000005</ele><time>2026-05-03T10:57:10Z</time></trkpt><trkpt lat="42.115828334051756" lon="11.917840701016866"><ele>421.6</ele><time>2026-05-03T10:57:11Z</time></trkpt><trkpt lat="42.115762147262274" lon="11.91774473301563"><ele>421.0</ele><time>2026-05-03T10:57:12Z</time></trkpt><trkpt lat="42.11568277718103" lon="11.917639238444252"><ele>417.8</ele><time>2026-05-03T10:57:13Z</time></trkpt><trkpt lat="42.115635186432485" lon="11.917502168144267"><ele>414.6</ele><time>2026-05-03T10:57:14Z</time></trkpt><trkpt lat="42.11556559017517" lon="11.91740290891476"><ele>411.4</ele><time>2026-05-03T10:57:15Z</time></trkpt><trkpt lat="42.11550046192247" lon="11.917311707314715"><ele>408.2</ele><time>2026-05-03T10:57:16Z</time></trkpt><trkpt lat="42.11543599069734" lon="11.917225334354654"><ele>405.0</ele><time>2026-05-03T10:57:17Z</time></trkpt><trkpt lat="42.115362060852085" lon="11.917139178611235"><ele>405.0</ele><time>2026-05-03T10:57:18Z</time></trkpt><trkpt lat="42.11529897937549" lon="11.917036688129556"><ele>405.0</ele><time>2026-05-03T10:57:19Z</time></trkpt><trkpt lat="42.11523976930627" lon="11.91694556826816"><ele>405.0</ele><time>2026-05-03T10:57:20Z</time></trkpt><trkpt lat="42.11517993128112" lon="11.916841778878645"><ele>405.0</ele><time>2026-05-03T10:57:21Z</time></trkpt><trkpt lat="42.11512121652411" lon="11.916733589503842"><ele>405.0</ele><time>2026-05-03T10:57:22Z</time></trkpt><trkpt lat="42.11506610834267" lon="11.916614431593729"><ele>404.6</ele><time>2026-05-03T10:57:23Z</time></trkpt><trkpt lat="42.11500459010196" lon="11.916498936567645"><ele>404.2</ele><time>2026-05-03T10:57:24Z</time></trkpt><trkpt lat="42.11496834639656" lon="11.916377720494008"><ele>403.79999999999995</ele><time>2026-05-03T10:57:25Z</time></trkpt><trkpt lat="42.11492715399785" lon="11.91627058951008"><ele>403.4</ele><time>2026-05-03T10:57:26Z</time></trkpt><trkpt lat="42.11488726180365" lon="11.916167402413397"><ele>403.0</ele><time>2026-05-03T10:57:27Z</time></trkpt><trkpt lat="42.114849544775" lon="11.91606984171369"><ele>402.50000000000006</ele><time>2026-05-03T10:57:28Z</time></trkpt><trkpt lat="42.114808263489586" lon="11.915964857624653"><ele>402.0</ele><time>2026-05-03T10:57:29Z</time></trkpt><trkpt lat="42.11477422664541" lon="11.91588064998907"><ele>401.5</ele><time>2026-05-03T10:57:30Z</time></trkpt><trkpt lat="42.11473540992238" lon="11.91578461681321"><ele>401.0</ele><time>2026-05-03T10:57:31Z</time></trkpt><trkpt lat="42.114676517447116" lon="11.915683044334495"><ele>400.50000000000006</ele><time>2026-05-03T10:57:32Z</time></trkpt><trkpt lat="42.11464612052512" lon="11.915587843016807"><ele>400.0</ele><time>2026-05-03T10:57:33Z</time></trkpt><trkpt lat="42.114603937503176" lon="11.915493736215584"><ele>400.00000000000006</ele><time>2026-05-03T10:57:34Z</time></trkpt><trkpt lat="42.11457197097237" lon="11.915404934302387"><ele>400.0</ele><time>2026-05-03T10:57:35Z</time></trkpt><trkpt lat="42.11455778477928" lon="11.915320516326721"><ele>400.0</ele><time>2026-05-03T10:57:36Z</time></trkpt><trkpt lat="42.11452902928593" lon="11.915236624632108"><ele>400.0</ele><time>2026-05-03T10:57:37Z</time></trkpt><trkpt lat="42.1145181804106" lon="11.915132483978361"><ele>400.00000000000006</ele><time>2026-05-03T10:57:40Z</time></trkpt><trkpt lat="42.11453476518861" lon="11.915014494838628"><ele>400.0</ele><time>2026-05-03T10:57:42Z</time></trkpt><trkpt lat="42.11452770786345" lon="11.914883428511164"><ele>399.33333333333337</ele><time>2026-05-03T10:57:44Z</time></trkpt><trkpt lat="42.11453418041782" lon="11.914731221323363"><ele>398.6666666666667</ele><time>2026-05-03T10:57:46Z</time></trkpt><trkpt lat="42.11453964401362" lon="11.914639120788014"><ele>398.0</ele><time>2026-05-03T10:57:47Z</time></trkpt><trkpt lat="42.11454065433804" lon="11.91453949363603"><ele>397.33333333333337</ele><time>2026-05-03T10:57:48Z</time></trkpt><trkpt lat="42.11454065433895" lon="11.914451522385466"><ele>396.6666666666667</ele><time>2026-05-03T10:57:49Z</time></trkpt><trkpt lat="42.11449799083505" lon="11.91431496924253"><ele>396.0</ele><time>2026-05-03T10:57:51Z</time></trkpt><trkpt lat="42.11447372896669" lon="11.914171822657595"><ele>391.75</ele><time>2026-05-03T10:57:53Z</time></trkpt><trkpt lat="42.11466933675015" lon="11.914025810219329"><ele>387.5</ele><time>2026-05-03T10:57:54Z</time></trkpt><trkpt lat="42.114678035763866" lon="11.913938270997932"><ele>383.25</ele><time>2026-05-03T10:57:55Z</time></trkpt><trkpt lat="42.11469199837232" lon="11.913787000577944"><ele>379.0</ele><time>2026-05-03T10:57:57Z</time></trkpt><trkpt lat="42.11471484197581" lon="11.913629286127499"><ele>379.0</ele><time>2026-05-03T10:57:59Z</time></trkpt><trkpt lat="42.11471402646322" lon="11.913460423736817"><ele>379.0</ele><time>2026-05-03T10:58:01Z</time></trkpt><trkpt lat="42.11473912262144" lon="11.913308143583373"><ele>379.0</ele><time>2026-05-03T10:58:03Z</time></trkpt><trkpt lat="42.11475259038305" lon="11.91322412324345"><ele>379.0</ele><time>2026-05-03T10:58:04Z</time></trkpt><trkpt lat="42.11477901985023" lon="11.913054781263657"><ele>379.0</ele><time>2026-05-03T10:58:06Z</time></trkpt><trkpt lat="42.11478376088809" lon="11.912964149883342"><ele>376.8333333333333</ele><time>2026-05-03T10:58:07Z</time></trkpt><trkpt lat="42.11477833242109" lon="11.91287440871314"><ele>374.66666666666663</ele><time>2026-05-03T10:58:08Z</time></trkpt><trkpt lat="42.11475543847024" lon="11.912786891627444"><ele>372.5</ele><time>2026-05-03T10:58:09Z</time></trkpt><trkpt lat="42.11473021866758" lon="11.912707342380784"><ele>370.3333333333333</ele><time>2026-05-03T10:58:10Z</time></trkpt><trkpt lat="42.11468667362939" lon="11.912590646113205"><ele>368.1666666666667</ele><time>2026-05-03T10:58:12Z</time></trkpt><trkpt lat="42.114655705869424" lon="11.912481636935109"><ele>366.0</ele><time>2026-05-03T10:58:14Z</time></trkpt><trkpt lat="42.11462546769802" lon="11.912312668027836"><ele>364.25</ele><time>2026-05-03T10:58:16Z</time></trkpt><trkpt lat="42.114606946484365" lon="11.912152574286395"><ele>362.5</ele><time>2026-05-03T10:58:17.999Z</time></trkpt><trkpt lat="42.114601895284856" lon="11.911988853712254"><ele>360.75</ele><time>2026-05-03T10:58:19.999Z</time></trkpt><trkpt lat="42.11459777201538" lon="11.91183281417441"><ele>359.0</ele><time>2026-05-03T10:58:21.999Z</time></trkpt><trkpt lat="42.11456488956515" lon="11.911704992872473"><ele>357.2</ele><time>2026-05-03T10:58:23.999Z</time></trkpt><trkpt lat="42.11452542957353" lon="11.911634474326386"><ele>355.4</ele><time>2026-05-03T10:58:24.999Z</time></trkpt><trkpt lat="42.11443213937173" lon="11.911538167000627"><ele>353.6</ele><time>2026-05-03T10:58:26.999Z</time></trkpt><trkpt lat="42.11434117164739" lon="11.911525959604406"><ele>351.8</ele><time>2026-05-03T10:58:28.999Z</time></trkpt><trkpt lat="42.11427447628132" lon="11.911566998006167"><ele>350.0</ele><time>2026-05-03T10:58:30.999Z</time></trkpt><trkpt lat="42.11414240844033" lon="11.911610262813458"><ele>349.83333333333337</ele><time>2026-05-03T10:58:32.999Z</time></trkpt><trkpt lat="42.114067476223084" lon="11.911622554833704"><ele>349.6666666666667</ele><time>2026-05-03T10:58:33.999Z</time></trkpt><trkpt lat="42.113960893351745" lon="11.911628779907884"><ele>349.5</ele><time>2026-05-03T10:58:35.999Z</time></trkpt><trkpt lat="42.11388857773927" lon="11.91160902102618"><ele>349.3333333333333</ele><time>2026-05-03T10:58:37.999Z</time></trkpt><trkpt lat="42.11382525188331" lon="11.911620862964611"><ele>349.16666666666663</ele><time>2026-05-03T10:58:39.999Z</time></trkpt><trkpt lat="42.11371165771469" lon="11.911660026235072"><ele>349.0</ele><time>2026-05-03T10:58:41.999Z</time></trkpt><trkpt lat="42.11363666185606" lon="11.91168063587145"><ele>349.0</ele><time>2026-05-03T10:58:42.999Z</time></trkpt><trkpt lat="42.113555165402545" lon="11.911703580602563"><ele>349.0</ele><time>2026-05-03T10:58:43.999Z</time></trkpt><trkpt lat="42.11349434261983" lon="11.911725948822955"><ele>349.0</ele><time>2026-05-03T10:58:44.999Z</time></trkpt><trkpt lat="42.11339036680506" lon="11.91174727544221"><ele>349.0</ele><time>2026-05-03T10:58:46.999Z</time></trkpt><trkpt lat="42.11326552087911" lon="11.911721799197617"><ele>349.0</ele><time>2026-05-03T10:58:48.999Z</time></trkpt><trkpt lat="42.11319534979703" lon="11.911705655344024"><ele>349.0</ele><time>2026-05-03T10:58:49.999Z</time></trkpt><trkpt lat="42.11306596609847" lon="11.911655717055247"><ele>350.0</ele><time>2026-05-03T10:58:51.999Z</time></trkpt><trkpt lat="42.112983663567114" lon="11.911611521251167"><ele>351.0</ele><time>2026-05-03T10:58:52.999Z</time></trkpt><trkpt lat="42.112908469988064" lon="11.911568954989729"><ele>352.0</ele><time>2026-05-03T10:58:53.999Z</time></trkpt><trkpt lat="42.112847967348756" lon="11.91153626462914"><ele>353.0</ele><time>2026-05-03T10:58:55Z</time></trkpt><trkpt lat="42.112776248222524" lon="11.911453190719119"><ele>354.0</ele><time>2026-05-03T10:58:57Z</time></trkpt><trkpt lat="42.112732180040524" lon="11.911392509411726"><ele>355.0</ele><time>2026-05-03T10:58:58Z</time></trkpt><trkpt lat="42.11270593073737" lon="11.91130574799998"><ele>355.0</ele><time>2026-05-03T10:58:59Z</time></trkpt><trkpt lat="42.11269942318467" lon="11.91122058647597"><ele>355.0</ele><time>2026-05-03T10:59:00Z</time></trkpt><trkpt lat="42.1126801739243" lon="11.911125164091901"><ele>355.0</ele><time>2026-05-03T10:59:01Z</time></trkpt><trkpt lat="42.112657688188314" lon="11.91104375734625"><ele>355.0</ele><time>2026-05-03T10:59:02Z</time></trkpt><trkpt lat="42.11260200017197" lon="11.910930821173054"><ele>355.0</ele><time>2026-05-03T10:59:04Z</time></trkpt><trkpt lat="42.112526205970006" lon="11.910858822051551"><ele>355.0</ele><time>2026-05-03T10:59:06Z</time></trkpt><trkpt lat="42.11238316443015" lon="11.910816918800826"><ele>352.2</ele><time>2026-05-03T10:59:08Z</time></trkpt><trkpt lat="42.112285716838535" lon="11.910805444765767"><ele>349.4</ele><time>2026-05-03T10:59:09Z</time></trkpt><trkpt lat="42.11219483960359" lon="11.910792984132224"><ele>346.6</ele><time>2026-05-03T10:59:10Z</time></trkpt><trkpt lat="42.11209509428705" lon="11.910781061194877"><ele>343.8</ele><time>2026-05-03T10:59:11Z</time></trkpt><trkpt lat="42.11201276221774" lon="11.910763082028948"><ele>341.0</ele><time>2026-05-03T10:59:12Z</time></trkpt><trkpt lat="42.111936865675" lon="11.910741130160059"><ele>341.0</ele><time>2026-05-03T10:59:13Z</time></trkpt><trkpt lat="42.1118678528638" lon="11.910722398853894"><ele>341.0</ele><time>2026-05-03T10:59:14Z</time></trkpt><trkpt lat="42.11179417741743" lon="11.910723346217454"><ele>341.0</ele><time>2026-05-03T10:59:15Z</time></trkpt><trkpt lat="42.11172335556259" lon="11.910743518397561"><ele>341.0</ele><time>2026-05-03T10:59:16Z</time></trkpt><trkpt lat="42.111648981436105" lon="11.910784072714902"><ele>341.0</ele><time>2026-05-03T10:59:17Z</time></trkpt><trkpt lat="42.11158559214019" lon="11.910833381859616"><ele>341.0</ele><time>2026-05-03T10:59:18Z</time></trkpt><trkpt lat="42.11151945958807" lon="11.910881204600882"><ele>341.0</ele><time>2026-05-03T10:59:19Z</time></trkpt><trkpt lat="42.11145916398917" lon="11.910916297247915"><ele>341.6666666666667</ele><time>2026-05-03T10:59:20Z</time></trkpt><trkpt lat="42.11133903082489" lon="11.910974290126072"><ele>342.33333333333337</ele><time>2026-05-03T10:59:22Z</time></trkpt><trkpt lat="42.11125061973181" lon="11.911009842543193"><ele>343.0</ele><time>2026-05-03T10:59:23Z</time></trkpt><trkpt lat="42.11117848284609" lon="11.911035121044614"><ele>343.6666666666667</ele><time>2026-05-03T10:59:24Z</time></trkpt><trkpt lat="42.11110711141702" lon="11.91107270238283"><ele>344.3333333333333</ele><time>2026-05-03T10:59:25Z</time></trkpt><trkpt lat="42.11104222912863" lon="11.91110719193549"><ele>345.0</ele><time>2026-05-03T10:59:26Z</time></trkpt><trkpt lat="42.11098289969587" lon="11.911150893420512"><ele>345.0</ele><time>2026-05-03T10:59:27Z</time></trkpt><trkpt lat="42.110916485411956" lon="11.911185147363888"><ele>345.0</ele><time>2026-05-03T10:59:28Z</time></trkpt><trkpt lat="42.11084039369465" lon="11.911215516151433"><ele>345.0</ele><time>2026-05-03T10:59:29Z</time></trkpt><trkpt lat="42.11072126730288" lon="11.911224179749757"><ele>345.0</ele><time>2026-05-03T10:59:31Z</time></trkpt><trkpt lat="42.11063745453191" lon="11.911155791713156"><ele>345.0</ele><time>2026-05-03T10:59:33Z</time></trkpt><trkpt lat="42.11055894769428" lon="11.911064399341845"><ele>341.8</ele><time>2026-05-03T10:59:35Z</time></trkpt><trkpt lat="42.11050890925758" lon="11.910984325712358"><ele>338.6</ele><time>2026-05-03T10:59:36Z</time></trkpt><trkpt lat="42.1104443712835" lon="11.910874277440984"><ele>335.4</ele><time>2026-05-03T10:59:37Z</time></trkpt><trkpt lat="42.11039983026581" lon="11.910768529452591"><ele>332.2</ele><time>2026-05-03T10:59:38Z</time></trkpt><trkpt lat="42.11035231799699" lon="11.910666366953807"><ele>329.0</ele><time>2026-05-03T10:59:39Z</time></trkpt><trkpt lat="42.11028239000166" lon="11.910533263481838"><ele>328.4</ele><time>2026-05-03T10:59:41Z</time></trkpt><trkpt lat="42.11021465898681" lon="11.910427967422729"><ele>327.79999999999995</ele><time>2026-05-03T10:59:43Z</time></trkpt><trkpt lat="42.11014438063023" lon="11.91032767043111"><ele>327.20000000000005</ele><time>2026-05-03T10:59:45Z</time></trkpt><trkpt lat="42.11010745568084" lon="11.91025575580504"><ele>326.6</ele><time>2026-05-03T10:59:46Z</time></trkpt><trkpt lat="42.110063789441554" lon="11.910165051587214"><ele>326.0</ele><time>2026-05-03T10:59:47Z</time></trkpt><trkpt lat="42.10999505170422" lon="11.910032497016724"><ele>325.0</ele><time>2026-05-03T10:59:49Z</time></trkpt><trkpt lat="42.10994877653036" lon="11.909948124945455"><ele>324.0</ele><time>2026-05-03T10:59:50Z</time></trkpt><trkpt lat="42.10991645125978" lon="11.909872830183323"><ele>323.0</ele><time>2026-05-03T10:59:51Z</time></trkpt><trkpt lat="42.109872015218414" lon="11.909795164471944"><ele>322.0</ele><time>2026-05-03T10:59:52Z</time></trkpt><trkpt lat="42.10982690424407" lon="11.909711735447402"><ele>321.0</ele><time>2026-05-03T10:59:53Z</time></trkpt><trkpt lat="42.109786508028584" lon="11.909628112159163"><ele>320.0</ele><time>2026-05-03T10:59:54Z</time></trkpt><trkpt lat="42.10975065418896" lon="11.909542231256548"><ele>319.0</ele><time>2026-05-03T10:59:55Z</time></trkpt><trkpt lat="42.10971249378436" lon="11.909458973583115"><ele>317.2</ele><time>2026-05-03T10:59:56Z</time></trkpt><trkpt lat="42.109640796196985" lon="11.90932675620866"><ele>315.4</ele><time>2026-05-03T10:59:58Z</time></trkpt><trkpt lat="42.10960729404168" lon="11.90919909554032"><ele>313.6</ele><time>2026-05-03T11:00:00Z</time></trkpt><trkpt lat="42.10957412266443" lon="11.909096767332631"><ele>311.8</ele><time>2026-05-03T11:00:02Z</time></trkpt><trkpt lat="42.10955383423053" lon="11.909000855573554"><ele>310.0</ele><time>2026-05-03T11:00:04Z</time></trkpt><trkpt lat="42.10951605773497" lon="11.908919743333442"><ele>309.16666666666663</ele><time>2026-05-03T11:00:07Z</time></trkpt><trkpt lat="42.10944814070663" lon="11.90886150914284"><ele>308.3333333333333</ele><time>2026-05-03T11:00:10Z</time></trkpt><trkpt lat="42.10937284468388" lon="11.908787581018608"><ele>307.5</ele><time>2026-05-03T11:00:13Z</time></trkpt><trkpt lat="42.10931451092076" lon="11.90871884009308"><ele>306.6666666666667</ele><time>2026-05-03T11:00:15Z</time></trkpt><trkpt lat="42.109246089728586" lon="11.908650677727028"><ele>305.83333333333337</ele><time>2026-05-03T11:00:18Z</time></trkpt><trkpt lat="42.10917933574211" lon="11.908607864919091"><ele>305.0</ele><time>2026-05-03T11:00:21Z</time></trkpt><trkpt lat="42.10910086531518" lon="11.908545093554157"><ele>302.6</ele><time>2026-05-03T11:00:25Z</time></trkpt><trkpt lat="42.10903695479323" lon="11.908492106483632"><ele>300.2</ele><time>2026-05-03T11:00:27Z</time></trkpt><trkpt lat="42.10894531281575" lon="11.908399697276923"><ele>297.8</ele><time>2026-05-03T11:00:28.999Z</time></trkpt><trkpt lat="42.10887825861365" lon="11.908339104816378"><ele>295.4</ele><time>2026-05-03T11:00:30.999Z</time></trkpt><trkpt lat="42.10880020017451" lon="11.908270971354263"><ele>293.0</ele><time>2026-05-03T11:00:33.999Z</time></trkpt><trkpt lat="42.10872236497019" lon="11.90819787305134"><ele>293.0</ele><time>2026-05-03T11:00:36.999Z</time></trkpt><trkpt lat="42.1086690805209" lon="11.908143124092009"><ele>293.0</ele><time>2026-05-03T11:00:38.999Z</time></trkpt><trkpt lat="42.10861529030929" lon="11.908098914798936"><ele>293.0</ele><time>2026-05-03T11:00:44.999Z</time></trkpt><trkpt lat="42.10854115885423" lon="11.908039727398517"><ele>293.0</ele><time>2026-05-03T11:00:48.999Z</time></trkpt><trkpt lat="42.108457716737206" lon="11.907973456475927"><ele>293.0</ele><time>2026-05-03T11:00:50.999Z</time></trkpt><trkpt lat="42.108387548670336" lon="11.907912641490322"><ele>293.0</ele><time>2026-05-03T11:00:52.999Z</time></trkpt><trkpt lat="42.108358420494696" lon="11.907831029902514"><ele>293.0</ele><time>2026-05-03T11:00:55.999Z</time></trkpt><trkpt lat="42.108346594848705" lon="11.907742073357316"><ele>293.0</ele><time>2026-05-03T11:01:03Z</time></trkpt><trkpt lat="42.10830965538098" lon="11.907633778743207"><ele>293.0</ele><time>2026-05-03T11:01:07Z</time></trkpt><trkpt lat="42.10827101501464" lon="11.90754543264305"><ele>293.0</ele><time>2026-05-03T11:01:09Z</time></trkpt><trkpt lat="42.10823371680832" lon="11.907448892137959"><ele>293.0</ele><time>2026-05-03T11:01:12Z</time></trkpt><trkpt lat="42.10821006559821" lon="11.907355306680586"><ele>293.0</ele><time>2026-05-03T11:01:14Z</time></trkpt><trkpt lat="42.108183083985125" lon="11.907252242125182"><ele>291.1666666666667</ele><time>2026-05-03T11:01:17Z</time></trkpt><trkpt lat="42.10816587274222" lon="11.907132097403464"><ele>289.33333333333337</ele><time>2026-05-03T11:01:19Z</time></trkpt><trkpt lat="42.10813558677946" lon="11.907013777693747"><ele>287.5</ele><time>2026-05-03T11:01:21Z</time></trkpt><trkpt lat="42.108117503274904" lon="11.906887602877578"><ele>285.6666666666667</ele><time>2026-05-03T11:01:23Z</time></trkpt><trkpt lat="42.10810508892855" lon="11.906780068064204"><ele>283.8333333333333</ele><time>2026-05-03T11:01:25Z</time></trkpt><trkpt lat="42.10808854075078" lon="11.906690378262075"><ele>282.0</ele><time>2026-05-03T11:01:27Z</time></trkpt><trkpt lat="42.10802905571695" lon="11.906646153719795"><ele>281.3333333333333</ele><time>2026-05-03T11:10:13Z</time></trkpt><trkpt lat="42.107964623705" lon="11.906599914745716"><ele>280.6666666666667</ele><time>2026-05-03T11:10:17Z</time></trkpt><trkpt lat="42.107903714719505" lon="11.906544122887446"><ele>280.0</ele><time>2026-05-03T11:10:25Z</time></trkpt><trkpt lat="42.10782769565817" lon="11.906481342795864"><ele>279.33333333333337</ele><time>2026-05-03T11:10:27Z</time></trkpt><trkpt lat="42.107756502674775" lon="11.906409721172706"><ele>278.6666666666667</ele><time>2026-05-03T11:10:29Z</time></trkpt><trkpt lat="42.107680151043084" lon="11.906325561959097"><ele>278.0</ele><time>2026-05-03T11:10:31Z</time></trkpt><trkpt lat="42.10760326388043" lon="11.906244351197781"><ele>278.0</ele><time>2026-05-03T11:10:33Z</time></trkpt><trkpt lat="42.10753198973372" lon="11.906169456680042"><ele>278.0</ele><time>2026-05-03T11:10:35Z</time></trkpt><trkpt lat="42.107474470115065" lon="11.906130096796623"><ele>278.0</ele><time>2026-05-03T11:10:37Z</time></trkpt><trkpt lat="42.10739271813395" lon="11.906102286309219"><ele>278.0</ele><time>2026-05-03T11:10:41Z</time></trkpt><trkpt lat="42.10730344078068" lon="11.906101590848035"><ele>278.0</ele><time>2026-05-03T11:10:44Z</time></trkpt><trkpt lat="42.107217050029206" lon="11.906087400405701"><ele>278.0</ele><time>2026-05-03T11:10:46Z</time></trkpt><trkpt lat="42.107134812046446" lon="11.90607665386677"><ele>276.57142857142856</ele><time>2026-05-03T11:10:49Z</time></trkpt><trkpt lat="42.10706763550212" lon="11.906078799973011"><ele>275.14285714285717</ele><time>2026-05-03T11:11:02Z</time></trkpt><trkpt lat="42.10699825315859" lon="11.90607557749538"><ele>273.7142857142857</ele><time>2026-05-03T11:11:14Z</time></trkpt><trkpt lat="42.106925262205436" lon="11.906065436356492"><ele>272.2857142857143</ele><time>2026-05-03T11:11:17Z</time></trkpt><trkpt lat="42.106855953803795" lon="11.90603112891705"><ele>270.85714285714283</ele><time>2026-05-03T11:11:20Z</time></trkpt><trkpt lat="42.1068097706229" lon="11.90594685377063"><ele>269.42857142857144</ele><time>2026-05-03T11:11:24Z</time></trkpt><trkpt lat="42.10676351031066" lon="11.905854969946287"><ele>268.0</ele><time>2026-05-03T11:11:27Z</time></trkpt><trkpt lat="42.10668443665221" lon="11.905788981614489"><ele>266.66666666666663</ele><time>2026-05-03T11:11:30Z</time></trkpt><trkpt lat="42.106618489352385" lon="11.905766380248666"><ele>265.3333333333333</ele><time>2026-05-03T11:11:33Z</time></trkpt><trkpt lat="42.10652659522421" lon="11.905781379661853"><ele>264.0</ele><time>2026-05-03T11:11:36Z</time></trkpt><trkpt lat="42.1064540726814" lon="11.90577731618758"><ele>262.6666666666667</ele><time>2026-05-03T11:11:38Z</time></trkpt><trkpt lat="42.10639479514081" lon="11.905840691622355"><ele>261.33333333333337</ele><time>2026-05-03T11:11:58Z</time></trkpt><trkpt lat="42.10633907103368" lon="11.905896106258739"><ele>260.0</ele><time>2026-05-03T11:12:02Z</time></trkpt><trkpt lat="42.10626893195719" lon="11.90593758408515"><ele>256.8571428571429</ele><time>2026-05-03T11:12:06Z</time></trkpt><trkpt lat="42.10621484772071" lon="11.906003938903407"><ele>253.71428571428572</ele><time>2026-05-03T11:12:24Z</time></trkpt><trkpt lat="42.106156433282074" lon="11.9060643337501"><ele>250.57142857142858</ele><time>2026-05-03T11:12:34Z</time></trkpt><trkpt lat="42.10610213850303" lon="11.906129531354061"><ele>247.42857142857144</ele><time>2026-05-03T11:12:40Z</time></trkpt><trkpt lat="42.106057928127036" lon="11.9061927005829"><ele>244.28571428571428</ele><time>2026-05-03T11:12:58Z</time></trkpt><trkpt lat="42.106010430701396" lon="11.906264664921892"><ele>241.14285714285714</ele><time>2026-05-03T11:13:12Z</time></trkpt><trkpt lat="42.10599045535413" lon="11.906353513451277"><ele>238.0</ele><time>2026-05-03T11:13:23Z</time></trkpt><trkpt lat="42.105958774886936" lon="11.90647465750535"><ele>238.0</ele><time>2026-05-03T11:13:29.999Z</time></trkpt><trkpt lat="42.10594627115606" lon="11.906560835718112"><ele>238.0</ele><time>2026-05-03T11:13:31.999Z</time></trkpt><trkpt lat="42.10594464554012" lon="11.90669579760405"><ele>238.0</ele><time>2026-05-03T11:13:35Z</time></trkpt><trkpt lat="42.1059485362553" lon="11.906797386482562"><ele>238.0</ele><time>2026-05-03T11:13:38Z</time></trkpt><trkpt lat="42.10595337991098" lon="11.90688222926577"><ele>238.0</ele><time>2026-05-03T11:14:22Z</time></trkpt><trkpt lat="42.105963658461434" lon="11.90697886058221"><ele>238.0</ele><time>2026-05-03T11:14:29Z</time></trkpt><trkpt lat="42.10596229920527" lon="11.90706597421894"><ele>238.0</ele><time>2026-05-03T11:14:31Z</time></trkpt><trkpt lat="42.10598165802055" lon="11.907190079541046"><ele>236.99999999999997</ele><time>2026-05-03T11:14:34Z</time></trkpt><trkpt lat="42.105985806487126" lon="11.907298990159255"><ele>236.0</ele><time>2026-05-03T11:14:38Z</time></trkpt><trkpt lat="42.10598882412282" lon="11.907411252448417"><ele>235.0</ele><time>2026-05-03T11:14:44Z</time></trkpt><trkpt lat="42.10599844218205" lon="11.907510158091753"><ele>234.0</ele><time>2026-05-03T11:14:53Z</time></trkpt><trkpt lat="42.10603316346486" lon="11.907590751487824"><ele>232.99999999999997</ele><time>2026-05-03T11:15:08.999Z</time></trkpt><trkpt lat="42.10603895993897" lon="11.907689075574053"><ele>232.0</ele><time>2026-05-03T11:15:33.999Z</time></trkpt><trkpt lat="42.10605991471773" lon="11.907786308105658"><ele>231.71428571428575</ele><time>2026-05-03T11:16:43Z</time></trkpt><trkpt lat="42.10606776801155" lon="11.907877997004144"><ele>231.42857142857144</ele><time>2026-05-03T11:16:47Z</time></trkpt><trkpt lat="42.106072427068135" lon="11.907970247886112"><ele>231.14285714285714</ele><time>2026-05-03T11:16:54Z</time></trkpt><trkpt lat="42.106062575313615" lon="11.908064645217646"><ele>230.85714285714286</ele><time>2026-05-03T11:16:59Z</time></trkpt><trkpt lat="42.106033408191905" lon="11.908156424572086"><ele>230.57142857142856</ele><time>2026-05-03T11:17:03Z</time></trkpt><trkpt lat="42.10600230086603" lon="11.908244285477442"><ele>230.28571428571425</ele><time>2026-05-03T11:17:05Z</time></trkpt><trkpt lat="42.10596450668126" lon="11.908361813398956"><ele>229.99999999999997</ele><time>2026-05-03T11:17:07Z</time></trkpt><trkpt lat="42.10594472276621" lon="11.908442699641201"><ele>231.1428571428571</ele><time>2026-05-03T11:17:09Z</time></trkpt><trkpt lat="42.1059252475698" lon="11.908539881807231"><ele>232.28571428571428</ele><time>2026-05-03T11:17:12Z</time></trkpt><trkpt lat="42.10588844491161" lon="11.908635505266746"><ele>233.42857142857142</ele><time>2026-05-03T11:17:15Z</time></trkpt><trkpt lat="42.1058609125434" lon="11.908713242835647"><ele>234.57142857142856</ele><time>2026-05-03T11:18:03.999Z</time></trkpt><trkpt lat="42.10581901804736" lon="11.908778400355144"><ele>235.71428571428572</ele><time>2026-05-03T11:18:11Z</time></trkpt><trkpt lat="42.10577099009636" lon="11.90884056948404"><ele>236.85714285714286</ele><time>2026-05-03T11:18:14Z</time></trkpt><trkpt lat="42.10571573382127" lon="11.908932466622252"><ele>238.0</ele><time>2026-05-03T11:18:16Z</time></trkpt><trkpt lat="42.105658343311006" lon="11.908969802610738"><ele>221.0</ele><time>2026-05-03T11:18:27Z</time></trkpt></trkseg><trkseg><trkpt lat="42.10961037017365" lon="11.909072518831774"><ele>305.0</ele><time>2026-05-03T12:58:13.999Z</time></trkpt><trkpt lat="42.109695552167764" lon="11.909064222056164"><ele>305.0</ele><time>2026-05-03T12:58:16.999Z</time></trkpt><trkpt lat="42.109776157171886" lon="11.909053390045669"><ele>305.0</ele><time>2026-05-03T12:58:18.999Z</time></trkpt><trkpt lat="42.10985052586067" lon="11.909050351800586"><ele>305.0</ele><time>2026-05-03T12:58:20.999Z</time></trkpt><trkpt lat="42.10992880851077" lon="11.909048187580591"><ele>305.0</ele><time>2026-05-03T12:58:22.999Z</time></trkpt><trkpt lat="42.11002491222235" lon="11.90902280287308"><ele>305.0</ele><time>2026-05-03T12:58:24.999Z</time></trkpt><trkpt lat="42.1100774121322" lon="11.908934668860388"><ele>305.2</ele><time>2026-05-03T12:58:27.999Z</time></trkpt><trkpt lat="42.110113505568506" lon="11.908820137633137"><ele>305.4</ele><time>2026-05-03T12:58:29.999Z</time></trkpt><trkpt lat="42.11017338123303" lon="11.908709521073979"><ele>305.6</ele><time>2026-05-03T12:58:31.999Z</time></trkpt><trkpt lat="42.11024617545183" lon="11.90863700323026"><ele>305.8</ele><time>2026-05-03T12:58:33.999Z</time></trkpt><trkpt lat="42.110302207352156" lon="11.90855222378648"><ele>306.0</ele><time>2026-05-03T12:58:36.999Z</time></trkpt><trkpt lat="42.11038802536811" lon="11.908529979250474"><ele>306.0</ele><time>2026-05-03T12:58:39.999Z</time></trkpt><trkpt lat="42.110458175056394" lon="11.908535908736768"><ele>306.0</ele><time>2026-05-03T12:58:41.999Z</time></trkpt><trkpt lat="42.11054200983666" lon="11.908481872751414"><ele>306.0</ele><time>2026-05-03T12:58:44.999Z</time></trkpt><trkpt lat="42.11060022054928" lon="11.908430695331917"><ele>306.0</ele><time>2026-05-03T12:58:46.999Z</time></trkpt><trkpt lat="42.11064259600861" lon="11.908357322306067"><ele>306.0</ele><time>2026-05-03T12:58:48.999Z</time></trkpt><trkpt lat="42.11067264405752" lon="11.908264564518825"><ele>306.0</ele><time>2026-05-03T12:58:50.999Z</time></trkpt><trkpt lat="42.11069136338675" lon="11.908161967034935"><ele>303.6666666666667</ele><time>2026-05-03T12:58:52.999Z</time></trkpt><trkpt lat="42.110688592084664" lon="11.908067295561267"><ele>301.3333333333333</ele><time>2026-05-03T12:58:54.999Z</time></trkpt><trkpt lat="42.1107247599335" lon="11.907972217094736"><ele>299.0</ele><time>2026-05-03T12:58:56.999Z</time></trkpt><trkpt lat="42.110779498614654" lon="11.907874606358078"><ele>296.66666666666663</ele><time>2026-05-03T12:58:58.999Z</time></trkpt><trkpt lat="42.110812336974995" lon="11.907771541084681"><ele>294.3333333333333</ele><time>2026-05-03T12:59:00.999Z</time></trkpt><trkpt lat="42.110832451155794" lon="11.90767068123549"><ele>292.0</ele><time>2026-05-03T12:59:02.999Z</time></trkpt><trkpt lat="42.11086484239256" lon="11.907582557203815"><ele>289.5</ele><time>2026-05-03T12:59:04.999Z</time></trkpt><trkpt lat="42.11088641704879" lon="11.907495935326992"><ele>287.0</ele><time>2026-05-03T12:59:06.999Z</time></trkpt><trkpt lat="42.1109098522017" lon="11.907371516887887"><ele>284.5</ele><time>2026-05-03T12:59:09.999Z</time></trkpt><trkpt lat="42.11092761464102" lon="11.907259692394993"><ele>282.0</ele><time>2026-05-03T12:59:11.999Z</time></trkpt><trkpt lat="42.110945351881234" lon="11.907165411554631"><ele>279.5</ele><time>2026-05-03T12:59:13.999Z</time></trkpt><trkpt lat="42.110991269559776" lon="11.907066268741863"><ele>277.0</ele><time>2026-05-03T12:59:20.999Z</time></trkpt><trkpt lat="42.111034832106036" lon="11.906996801130779"><ele>277.0</ele><time>2026-05-03T12:59:22.999Z</time></trkpt><trkpt lat="42.1110645640108" lon="11.906895030799163"><ele>277.0</ele><time>2026-05-03T12:59:24.999Z</time></trkpt><trkpt lat="42.11107919731058" lon="11.906758835733495"><ele>277.0</ele><time>2026-05-03T12:59:26.999Z</time></trkpt><trkpt lat="42.11109437728084" lon="11.9066256869803"><ele>277.0</ele><time>2026-05-03T12:59:28.999Z</time></trkpt><trkpt lat="42.111091234197765" lon="11.906504958459648"><ele>277.0</ele><time>2026-05-03T12:59:30.999Z</time></trkpt><trkpt lat="42.11108373012576" lon="11.906363252563139"><ele>274.2</ele><time>2026-05-03T12:59:32.999Z</time></trkpt><trkpt lat="42.111073723619164" lon="11.906243609322104"><ele>271.4</ele><time>2026-05-03T12:59:34.999Z</time></trkpt><trkpt lat="42.11106331083901" lon="11.906093676478244"><ele>268.6</ele><time>2026-05-03T12:59:36.999Z</time></trkpt><trkpt lat="42.11104835620617" lon="11.905970023883834"><ele>265.8</ele><time>2026-05-03T12:59:38.999Z</time></trkpt><trkpt lat="42.111044532656585" lon="11.905821414276499"><ele>263.0</ele><time>2026-05-03T12:59:40.999Z</time></trkpt><trkpt lat="42.1110396572393" lon="11.905657793519438"><ele>261.5</ele><time>2026-05-03T12:59:42.999Z</time></trkpt><trkpt lat="42.111030175465636" lon="11.905536660083117"><ele>260.0</ele><time>2026-05-03T12:59:44.999Z</time></trkpt><trkpt lat="42.1110103874301" lon="11.905445135374316"><ele>258.5</ele><time>2026-05-03T12:59:46.999Z</time></trkpt><trkpt lat="42.11098167541706" lon="11.905339360213565"><ele>257.0</ele><time>2026-05-03T12:59:48.999Z</time></trkpt><trkpt lat="42.110938197093546" lon="11.905233822160396"><ele>255.50000000000003</ele><time>2026-05-03T12:59:50.999Z</time></trkpt><trkpt lat="42.11088489544242" lon="11.905140587702908"><ele>254.0</ele><time>2026-05-03T12:59:53.999Z</time></trkpt><trkpt lat="42.110807679730854" lon="11.905083339607922"><ele>252.50000000000003</ele><time>2026-05-03T12:59:58.999Z</time></trkpt><trkpt lat="42.11073806828712" lon="11.905109592675844"><ele>251.0</ele><time>2026-05-03T13:00:02.999Z</time></trkpt><trkpt lat="42.11067946302707" lon="11.905161920510174"><ele>249.5</ele><time>2026-05-03T13:00:07.999Z</time></trkpt><trkpt lat="42.1106255414752" lon="11.905209235942957"><ele>248.0</ele><time>2026-05-03T13:00:11.999Z</time></trkpt><trkpt lat="42.110552541262514" lon="11.90526574786864"><ele>246.50000000000003</ele><time>2026-05-03T13:00:15.999Z</time></trkpt><trkpt lat="42.1104951453795" lon="11.905349421800947"><ele>245.0</ele><time>2026-05-03T13:00:18.999Z</time></trkpt><trkpt lat="42.11047231157437" lon="11.905451968498474"><ele>245.0</ele><time>2026-05-03T13:00:21.999Z</time></trkpt><trkpt lat="42.11042597586127" lon="11.905536918526758"><ele>245.0</ele><time>2026-05-03T13:00:24.999Z</time></trkpt><trkpt lat="42.11037593328063" lon="11.905601880448337"><ele>245.0</ele><time>2026-05-03T13:00:26.999Z</time></trkpt><trkpt lat="42.11030897378757" lon="11.905607845414353"><ele>245.0</ele><time>2026-05-03T13:00:28.999Z</time></trkpt><trkpt lat="42.11023221316449" lon="11.905576688929814"><ele>245.0</ele><time>2026-05-03T13:00:31.999Z</time></trkpt><trkpt lat="42.11016917734735" lon="11.905560425478876"><ele>245.0</ele><time>2026-05-03T13:00:33.999Z</time></trkpt><trkpt lat="42.11009906589221" lon="11.905534170554194"><ele>245.0</ele><time>2026-05-03T13:00:35.999Z</time></trkpt><trkpt lat="42.11000284428131" lon="11.905539964020154"><ele>245.00000000000003</ele><time>2026-05-03T13:00:38.999Z</time></trkpt><trkpt lat="42.10994777691935" lon="11.905488265325435"><ele>245.0</ele><time>2026-05-03T13:00:40.999Z</time></trkpt><trkpt lat="42.109897912260344" lon="11.905400682144968"><ele>245.0</ele><time>2026-05-03T13:00:42.999Z</time></trkpt><trkpt lat="42.10985540729391" lon="11.905335140984416"><ele>245.0</ele><time>2026-05-03T13:00:44.999Z</time></trkpt><trkpt lat="42.10977213409582" lon="11.905245435422128"><ele>245.00000000000003</ele><time>2026-05-03T13:00:46.999Z</time></trkpt><trkpt lat="42.1096955002389" lon="11.90519998020174"><ele>245.0</ele><time>2026-05-03T13:00:48.999Z</time></trkpt><trkpt lat="42.10963389749885" lon="11.90516964135203"><ele>245.00000000000003</ele><time>2026-05-03T13:00:49.999Z</time></trkpt><trkpt lat="42.109565823932854" lon="11.905142422409922"><ele>245.0</ele><time>2026-05-03T13:00:50.999Z</time></trkpt><trkpt lat="42.10947398711834" lon="11.905083173069256"><ele>245.0</ele><time>2026-05-03T13:00:52.999Z</time></trkpt><trkpt lat="42.10940652706279" lon="11.90498966744082"><ele>245.0</ele><time>2026-05-03T13:00:54.999Z</time></trkpt><trkpt lat="42.10934776207136" lon="11.904928492206539"><ele>245.00000000000003</ele><time>2026-05-03T13:00:56.999Z</time></trkpt><trkpt lat="42.1092660625528" lon="11.904879551159636"><ele>245.0</ele><time>2026-05-03T13:00:58.999Z</time></trkpt><trkpt lat="42.10917236223675" lon="11.904849042784328"><ele>243.33333333333334</ele><time>2026-05-03T13:01:00.999Z</time></trkpt><trkpt lat="42.10908839130804" lon="11.904810406790817"><ele>241.66666666666669</ele><time>2026-05-03T13:01:02.999Z</time></trkpt><trkpt lat="42.10902942932525" lon="11.904764616457697"><ele>240.0</ele><time>2026-05-03T13:01:04.999Z</time></trkpt><trkpt lat="42.108974898818104" lon="11.904684028470095"><ele>238.33333333333331</ele><time>2026-05-03T13:01:06.999Z</time></trkpt><trkpt lat="42.10892966540909" lon="11.904611206788521"><ele>236.66666666666666</ele><time>2026-05-03T13:01:08.999Z</time></trkpt><trkpt lat="42.10884441418843" lon="11.90452140145769"><ele>235.0</ele><time>2026-05-03T13:01:11.999Z</time></trkpt><trkpt lat="42.10878343381041" lon="11.90439170531915"><ele>235.0</ele><time>2026-05-03T13:01:13.999Z</time></trkpt><trkpt lat="42.108723729587346" lon="11.90427304268292"><ele>235.0</ele><time>2026-05-03T13:01:15.999Z</time></trkpt><trkpt lat="42.10867468669803" lon="11.9041861641768"><ele>235.0</ele><time>2026-05-03T13:01:17.999Z</time></trkpt><trkpt lat="42.10861925156479" lon="11.904100156118528"><ele>235.0</ele><time>2026-05-03T13:01:19.999Z</time></trkpt><trkpt lat="42.10853654068329" lon="11.904028217964077"><ele>235.0</ele><time>2026-05-03T13:01:21.999Z</time></trkpt><trkpt lat="42.10847215287821" lon="11.903955912129259"><ele>232.66666666666666</ele><time>2026-05-03T13:01:23.999Z</time></trkpt><trkpt lat="42.10844071697139" lon="11.903880972637966"><ele>230.33333333333331</ele><time>2026-05-03T13:01:24.999Z</time></trkpt><trkpt lat="42.108397571112526" lon="11.903769150879533"><ele>228.0</ele><time>2026-05-03T13:01:26.999Z</time></trkpt><trkpt lat="42.10834425591596" lon="11.903675946109615"><ele>225.66666666666669</ele><time>2026-05-03T13:01:28.999Z</time></trkpt><trkpt lat="42.108283115111284" lon="11.903628440225752"><ele>223.33333333333334</ele><time>2026-05-03T13:01:30.999Z</time></trkpt><trkpt lat="42.10820783936696" lon="11.903615490264603"><ele>221.0</ele><time>2026-05-03T13:01:32.999Z</time></trkpt><trkpt lat="42.108110766784016" lon="11.903629447633058"><ele>221.00000000000003</ele><time>2026-05-03T13:01:34.999Z</time></trkpt><trkpt lat="42.10804288194334" lon="11.903622046286214"><ele>221.0</ele><time>2026-05-03T13:01:35.999Z</time></trkpt><trkpt lat="42.107949882114916" lon="11.903611726380177"><ele>221.0</ele><time>2026-05-03T13:01:36.999Z</time></trkpt><trkpt lat="42.10788652430255" lon="11.903609161721706"><ele>221.0</ele><time>2026-05-03T13:01:37.999Z</time></trkpt><trkpt lat="42.107821838495724" lon="11.903592756827276"><ele>221.0</ele><time>2026-05-03T13:01:40.999Z</time></trkpt><trkpt lat="42.10775782427306" lon="11.903632106183606"><ele>221.00000000000003</ele><time>2026-05-03T13:01:43.999Z</time></trkpt><trkpt lat="42.107688001088285" lon="11.903687513494827"><ele>221.0</ele><time>2026-05-03T13:01:45.999Z</time></trkpt><trkpt lat="42.10760447923024" lon="11.903739619982396"><ele>221.0</ele><time>2026-05-03T13:01:47.999Z</time></trkpt><trkpt lat="42.10752196335604" lon="11.903720200396783"><ele>221.00000000000003</ele><time>2026-05-03T13:01:49.999Z</time></trkpt><trkpt lat="42.10745946685342" lon="11.903634750051427"><ele>221.00000000000003</ele><time>2026-05-03T13:01:51.999Z</time></trkpt><trkpt lat="42.10740832316641" lon="11.903502324167746"><ele>221.0</ele><time>2026-05-03T13:01:54.999Z</time></trkpt><trkpt lat="42.10734899314812" lon="11.903424668968496"><ele>221.0</ele><time>2026-05-03T13:01:56.999Z</time></trkpt><trkpt lat="42.10726396328485" lon="11.903361127791625"><ele>217.60000000000002</ele><time>2026-05-03T13:01:58.999Z</time></trkpt><trkpt lat="42.107218931310086" lon="11.90322056204856"><ele>214.20000000000002</ele><time>2026-05-03T13:02:00.999Z</time></trkpt><trkpt lat="42.10719549043734" lon="11.903133495031577"><ele>210.8</ele><time>2026-05-03T13:02:01.999Z</time></trkpt><trkpt lat="42.1071167337559" lon="11.902999912570762"><ele>207.39999999999998</ele><time>2026-05-03T13:02:03.999Z</time></trkpt><trkpt lat="42.10706289595237" lon="11.90292877282508"><ele>204.0</ele><time>2026-05-03T13:02:04.999Z</time></trkpt><trkpt lat="42.10700831492375" lon="11.902850360335261"><ele>204.0</ele><time>2026-05-03T13:02:05.999Z</time></trkpt><trkpt lat="42.10695318052096" lon="11.902773480968229"><ele>204.0</ele><time>2026-05-03T13:02:06.999Z</time></trkpt><trkpt lat="42.10690781729241" lon="11.902693934041382"><ele>204.0</ele><time>2026-05-03T13:02:07.999Z</time></trkpt><trkpt lat="42.10686418645511" lon="11.90261979061157"><ele>204.0</ele><time>2026-05-03T13:02:08.999Z</time></trkpt><trkpt lat="42.106816475075306" lon="11.902555978721429"><ele>204.0</ele><time>2026-05-03T13:02:09.999Z</time></trkpt><trkpt lat="42.10677848662812" lon="11.902480967504308"><ele>204.0</ele><time>2026-05-03T13:02:10.999Z</time></trkpt><trkpt lat="42.10673440645552" lon="11.902344538179397"><ele>201.79999999999998</ele><time>2026-05-03T13:02:12.999Z</time></trkpt><trkpt lat="42.10667371910108" lon="11.902258303121624"><ele>199.6</ele><time>2026-05-03T13:02:14.999Z</time></trkpt><trkpt lat="42.10660074746299" lon="11.902214445010395"><ele>197.4</ele><time>2026-05-03T13:02:16.999Z</time></trkpt><trkpt lat="42.10650353663786" lon="11.902210359645945"><ele>195.2</ele><time>2026-05-03T13:02:18.999Z</time></trkpt><trkpt lat="42.10641007080444" lon="11.902238211847806"><ele>193.0</ele><time>2026-05-03T13:02:20.999Z</time></trkpt><trkpt lat="42.10629653262415" lon="11.902288489087539"><ele>191.8</ele><time>2026-05-03T13:02:22.999Z</time></trkpt><trkpt lat="42.10620025075242" lon="11.902372011896919"><ele>190.60000000000002</ele><time>2026-05-03T13:02:24.999Z</time></trkpt><trkpt lat="42.106147872144305" lon="11.902431752711623"><ele>189.39999999999998</ele><time>2026-05-03T13:02:25.999Z</time></trkpt><trkpt lat="42.106065086541335" lon="11.902537692732778"><ele>188.2</ele><time>2026-05-03T13:02:27.999Z</time></trkpt><trkpt lat="42.10595117761104" lon="11.902604833408542"><ele>187.0</ele><time>2026-05-03T13:02:29.999Z</time></trkpt><trkpt lat="42.105858567083715" lon="11.902620193687644"><ele>187.0</ele><time>2026-05-03T13:02:31.999Z</time></trkpt><trkpt lat="42.10575346133249" lon="11.902531928633637"><ele>187.0</ele><time>2026-05-03T13:02:33.999Z</time></trkpt><trkpt lat="42.10570230372733" lon="11.902453765937796"><ele>187.0</ele><time>2026-05-03T13:02:34.999Z</time></trkpt><trkpt lat="42.10566282585413" lon="11.902364119010356"><ele>187.0</ele><time>2026-05-03T13:02:35.999Z</time></trkpt><trkpt lat="42.105631121699105" lon="11.90228198194591"><ele>187.0</ele><time>2026-05-03T13:02:36.999Z</time></trkpt><trkpt lat="42.10559695033716" lon="11.90219418573694"><ele>187.0</ele><time>2026-05-03T13:02:37.999Z</time></trkpt><trkpt lat="42.10555030357656" lon="11.902120147713408"><ele>188.2</ele><time>2026-05-03T13:02:38.999Z</time></trkpt><trkpt lat="42.105504025758556" lon="11.902052077160922"><ele>189.39999999999998</ele><time>2026-05-03T13:02:39.999Z</time></trkpt><trkpt lat="42.10545356454218" lon="11.901925427503588"><ele>190.60000000000002</ele><time>2026-05-03T13:02:41.999Z</time></trkpt><trkpt lat="42.105376565944475" lon="11.901810118747445"><ele>191.8</ele><time>2026-05-03T13:02:43.999Z</time></trkpt><trkpt lat="42.10529359100274" lon="11.901712656837478"><ele>193.0</ele><time>2026-05-03T13:02:45.999Z</time></trkpt><trkpt lat="42.10528493474835" lon="11.901626918256234"><ele>190.16666666666666</ele><time>2026-05-03T13:02:48.999Z</time></trkpt><trkpt lat="42.10522308324905" lon="11.90159117899464"><ele>187.33333333333331</ele><time>2026-05-03T13:02:52.999Z</time></trkpt><trkpt lat="42.105259209671374" lon="11.901516363770648"><ele>184.5</ele><time>2026-05-03T13:03:11.999Z</time></trkpt><trkpt lat="42.105322452488295" lon="11.901475776483519"><ele>181.66666666666666</ele><time>2026-05-03T13:03:17.999Z</time></trkpt><trkpt lat="42.10538036369225" lon="11.901375759348884"><ele>178.83333333333331</ele><time>2026-05-03T13:03:19.999Z</time></trkpt><trkpt lat="42.10539090233679" lon="11.90126244410387"><ele>176.0</ele><time>2026-05-03T13:03:21.999Z</time></trkpt><trkpt lat="42.1053201165635" lon="11.901179662596233"><ele>176.0</ele><time>2026-05-03T13:05:34.999Z</time></trkpt><trkpt lat="42.10525610104475" lon="11.901133436236771"><ele>176.0</ele><time>2026-05-03T13:05:36.999Z</time></trkpt><trkpt lat="42.10518978005042" lon="11.901093796284167"><ele>176.0</ele><time>2026-05-03T13:05:38.999Z</time></trkpt><trkpt lat="42.10512813825608" lon="11.901042149461986"><ele>176.0</ele><time>2026-05-03T13:05:40.999Z</time></trkpt><trkpt lat="42.10505818976419" lon="11.900974759396346"><ele>176.0</ele><time>2026-05-03T13:05:42.999Z</time></trkpt><trkpt lat="42.104991747540765" lon="11.900918901256638"><ele>176.0</ele><time>2026-05-03T13:05:43.999Z</time></trkpt><trkpt lat="42.10489839032533" lon="11.900848624224182"><ele>172.4</ele><time>2026-05-03T13:05:45.999Z</time></trkpt><trkpt lat="42.10477004669495" lon="11.900844226437814"><ele>168.8</ele><time>2026-05-03T13:05:47.999Z</time></trkpt><trkpt lat="42.10469058083401" lon="11.900832793750507"><ele>165.20000000000002</ele><time>2026-05-03T13:05:48.999Z</time></trkpt><trkpt lat="42.10461938311772" lon="11.900819202101623"><ele>161.60000000000002</ele><time>2026-05-03T13:05:49.999Z</time></trkpt><trkpt lat="42.10452988453715" lon="11.900805543403624"><ele>158.0</ele><time>2026-05-03T13:05:50.999Z</time></trkpt><trkpt lat="42.104450192697826" lon="11.900810052448474"><ele>158.0</ele><time>2026-05-03T13:05:51.999Z</time></trkpt><trkpt lat="42.10436825427484" lon="11.900803845923923"><ele>158.0</ele><time>2026-05-03T13:05:52.999Z</time></trkpt><trkpt lat="42.10428205565024" lon="11.9008057590509"><ele>158.0</ele><time>2026-05-03T13:05:53.999Z</time></trkpt><trkpt lat="42.104200898013985" lon="11.900813003987999"><ele>158.0</ele><time>2026-05-03T13:05:54.999Z</time></trkpt><trkpt lat="42.104110426972774" lon="11.900828317188072"><ele>158.0</ele><time>2026-05-03T13:05:55.999Z</time></trkpt><trkpt lat="42.10403214836481" lon="11.900836271980198"><ele>158.0</ele><time>2026-05-03T13:05:56.999Z</time></trkpt><trkpt lat="42.10395897217427" lon="11.900849752546192"><ele>158.0</ele><time>2026-05-03T13:05:57.999Z</time></trkpt><trkpt lat="42.10384307373709" lon="11.900889148006133"><ele>158.0</ele><time>2026-05-03T13:05:59.999Z</time></trkpt><trkpt lat="42.10373319246771" lon="11.900965525203826"><ele>158.0</ele><time>2026-05-03T13:06:01.999Z</time></trkpt><trkpt lat="42.1036251081533" lon="11.901049834431442"><ele>158.0</ele><time>2026-05-03T13:06:03.999Z</time></trkpt><trkpt lat="42.103512920339064" lon="11.901065390166805"><ele>158.0</ele><time>2026-05-03T13:06:05.999Z</time></trkpt><trkpt lat="42.103432113614225" lon="11.901022400318759"><ele>158.0</ele><time>2026-05-03T13:06:07.999Z</time></trkpt><trkpt lat="42.10335780636982" lon="11.900976906682278"><ele>158.0</ele><time>2026-05-03T13:06:10.999Z</time></trkpt><trkpt lat="42.10328766686445" lon="11.900901788586353"><ele>158.0</ele><time>2026-05-03T13:06:23.999Z</time></trkpt><trkpt lat="42.10321965977919" lon="11.90089364364168"><ele>158.0</ele><time>2026-05-03T13:06:25.999Z</time></trkpt><trkpt lat="42.1031742934519" lon="11.900806606990583"><ele>158.0</ele><time>2026-05-03T13:06:28.999Z</time></trkpt><trkpt lat="42.10312703373145" lon="11.900678474677159"><ele>158.0</ele><time>2026-05-03T13:06:30.999Z</time></trkpt><trkpt lat="42.103108254211996" lon="11.900597130280504"><ele>158.0</ele><time>2026-05-03T13:06:33.999Z</time></trkpt><trkpt lat="42.10306658201416" lon="11.90049453451877"><ele>158.0</ele><time>2026-05-03T13:06:39.999Z</time></trkpt><trkpt lat="42.10303122702574" lon="11.900424319413519"><ele>158.0</ele><time>2026-05-03T13:06:40.999Z</time></trkpt><trkpt lat="42.10296407161109" lon="11.90031144318408"><ele>158.0</ele><time>2026-05-03T13:06:42.999Z</time></trkpt><trkpt lat="42.1029181827155" lon="11.900190507790645"><ele>158.0</ele><time>2026-05-03T13:06:44.999Z</time></trkpt><trkpt lat="42.10288564190352" lon="11.900056887720753"><ele>158.0</ele><time>2026-05-03T13:06:46.999Z</time></trkpt><trkpt lat="42.10283528958353" lon="11.899910111617015"><ele>158.0</ele><time>2026-05-03T13:06:48.999Z</time></trkpt><trkpt lat="42.10276392939831" lon="11.899785029380771"><ele>158.0</ele><time>2026-05-03T13:06:50.999Z</time></trkpt><trkpt lat="42.10272886193436" lon="11.899713649398272"><ele>158.0</ele><time>2026-05-03T13:06:51.999Z</time></trkpt><trkpt lat="42.102698610704365" lon="11.899635954856684"><ele>158.0</ele><time>2026-05-03T13:06:52.999Z</time></trkpt><trkpt lat="42.1026283741266" lon="11.89950765767303"><ele>158.00000000000003</ele><time>2026-05-03T13:06:54.999Z</time></trkpt><trkpt lat="42.10258993663562" lon="11.899431913333858"><ele>158.0</ele><time>2026-05-03T13:06:55.999Z</time></trkpt><trkpt lat="42.102543248237026" lon="11.899352691753773"><ele>158.0</ele><time>2026-05-03T13:06:56.999Z</time></trkpt><trkpt lat="42.10249669213849" lon="11.899268603813733"><ele>158.0</ele><time>2026-05-03T13:06:57.999Z</time></trkpt><trkpt lat="42.10246303647973" lon="11.899181930706572"><ele>158.0</ele><time>2026-05-03T13:06:58.999Z</time></trkpt><trkpt lat="42.10241570805114" lon="11.899100297993707"><ele>158.00000000000003</ele><time>2026-05-03T13:06:59.999Z</time></trkpt><trkpt lat="42.102361113440544" lon="11.899039467822435"><ele>158.0</ele><time>2026-05-03T13:07:00.999Z</time></trkpt><trkpt lat="42.102283506309746" lon="11.89896382047374"><ele>158.5</ele><time>2026-05-03T13:07:02.999Z</time></trkpt><trkpt lat="42.102197438026224" lon="11.89890201042751"><ele>159.0</ele><time>2026-05-03T13:07:04.999Z</time></trkpt><trkpt lat="42.10208599498582" lon="11.898878573082683"><ele>159.5</ele><time>2026-05-03T13:07:06.999Z</time></trkpt><trkpt lat="42.10201544669636" lon="11.89886418849015"><ele>160.0</ele><time>2026-05-03T13:07:07.999Z</time></trkpt><trkpt lat="42.10195409729084" lon="11.898841901243914"><ele>160.5</ele><time>2026-05-03T13:07:08.999Z</time></trkpt><trkpt lat="42.10188607974769" lon="11.898739022010762"><ele>161.0</ele><time>2026-05-03T13:07:10.999Z</time></trkpt><trkpt lat="42.101836952758426" lon="11.898656419473198"><ele>161.0</ele><time>2026-05-03T13:07:11.999Z</time></trkpt><trkpt lat="42.101790765704614" lon="11.898576846137539"><ele>161.0</ele><time>2026-05-03T13:07:12.999Z</time></trkpt><trkpt lat="42.10171638775125" lon="11.898486785715091"><ele>161.0</ele><time>2026-05-03T13:07:14.999Z</time></trkpt><trkpt lat="42.10163396203992" lon="11.898390443927946"><ele>161.0</ele><time>2026-05-03T13:07:16.999Z</time></trkpt><trkpt lat="42.101574287580746" lon="11.898335305124446"><ele>161.0</ele><time>2026-05-03T13:07:17.999Z</time></trkpt><trkpt lat="42.101511828827825" lon="11.898288356756707"><ele>161.0</ele><time>2026-05-03T13:07:18.999Z</time></trkpt><trkpt lat="42.101443581190196" lon="11.898249291976573"><ele>159.8</ele><time>2026-05-03T13:07:19.999Z</time></trkpt><trkpt lat="42.101366882769405" lon="11.898205393282156"><ele>158.60000000000002</ele><time>2026-05-03T13:07:20.999Z</time></trkpt><trkpt lat="42.10129959479741" lon="11.898170145768379"><ele>157.4</ele><time>2026-05-03T13:07:21.999Z</time></trkpt><trkpt lat="42.101199375739014" lon="11.89812517826847"><ele>156.2</ele><time>2026-05-03T13:07:23.999Z</time></trkpt><trkpt lat="42.101115570310185" lon="11.898013434594759"><ele>155.0</ele><time>2026-05-03T13:07:25.999Z</time></trkpt><trkpt lat="42.10106613091473" lon="11.897939081932146"><ele>155.0</ele><time>2026-05-03T13:07:26.999Z</time></trkpt><trkpt lat="42.10102519935137" lon="11.897855705850397"><ele>155.0</ele><time>2026-05-03T13:07:27.999Z</time></trkpt><trkpt lat="42.10102244708441" lon="11.89773664015684"><ele>155.0</ele><time>2026-05-03T13:07:29.999Z</time></trkpt><trkpt lat="42.10098877814077" lon="11.897634414310323"><ele>155.0</ele><time>2026-05-03T13:07:31.999Z</time></trkpt><trkpt lat="42.1009234510223" lon="11.897481010506773"><ele>155.0</ele><time>2026-05-03T13:07:33.999Z</time></trkpt><trkpt lat="42.100882803525515" lon="11.897408270533345"><ele>155.0</ele><time>2026-05-03T13:07:34.999Z</time></trkpt><trkpt lat="42.100821995369664" lon="11.897342685825448"><ele>154.83333333333331</ele><time>2026-05-03T13:07:35.999Z</time></trkpt><trkpt lat="42.100761485470706" lon="11.897286093507214"><ele>154.66666666666666</ele><time>2026-05-03T13:07:36.999Z</time></trkpt><trkpt lat="42.100701094270235" lon="11.897238345272953"><ele>154.5</ele><time>2026-05-03T13:07:37.999Z</time></trkpt><trkpt lat="42.10062708155135" lon="11.897165806064072"><ele>154.33333333333334</ele><time>2026-05-03T13:07:38.999Z</time></trkpt><trkpt lat="42.10056447221182" lon="11.897092497117681"><ele>154.16666666666669</ele><time>2026-05-03T13:07:39.999Z</time></trkpt><trkpt lat="42.100510638541024" lon="11.897030542822504"><ele>154.0</ele><time>2026-05-03T13:07:40.999Z</time></trkpt><trkpt lat="42.100436886562036" lon="11.896977647476188"><ele>154.0</ele><time>2026-05-03T13:07:41.999Z</time></trkpt><trkpt lat="42.1003681231637" lon="11.896933810432643"><ele>154.0</ele><time>2026-05-03T13:07:42.999Z</time></trkpt><trkpt lat="42.10030139029036" lon="11.896882054627012"><ele>154.0</ele><time>2026-05-03T13:07:43.999Z</time></trkpt><trkpt lat="42.10024342903085" lon="11.896832364148226"><ele>154.0</ele><time>2026-05-03T13:07:44.999Z</time></trkpt><trkpt lat="42.10014743091575" lon="11.896744049656164"><ele>154.0</ele><time>2026-05-03T13:07:46.999Z</time></trkpt><trkpt lat="42.10008610544944" lon="11.896689579476858"><ele>154.0</ele><time>2026-05-03T13:07:47.999Z</time></trkpt><trkpt lat="42.10001861507896" lon="11.896636556329312"><ele>153.33333333333334</ele><time>2026-05-03T13:07:48.999Z</time></trkpt><trkpt lat="42.09995167789105" lon="11.896580619531925"><ele>152.66666666666669</ele><time>2026-05-03T13:07:49.999Z</time></trkpt><trkpt lat="42.099885651563646" lon="11.896517025425487"><ele>152.0</ele><time>2026-05-03T13:07:50.999Z</time></trkpt><trkpt lat="42.09981231301609" lon="11.896437909006814"><ele>151.33333333333334</ele><time>2026-05-03T13:07:51.999Z</time></trkpt><trkpt lat="42.099754521399504" lon="11.896356105252732"><ele>150.66666666666666</ele><time>2026-05-03T13:07:52.999Z</time></trkpt><trkpt lat="42.09970663039646" lon="11.896290361939684"><ele>150.0</ele><time>2026-05-03T13:07:53.999Z</time></trkpt><trkpt lat="42.099641854460494" lon="11.896163450666958"><ele>150.0</ele><time>2026-05-03T13:07:55.999Z</time></trkpt><trkpt lat="42.099598737094865" lon="11.89609069077573"><ele>150.0</ele><time>2026-05-03T13:07:56.999Z</time></trkpt><trkpt lat="42.099551046531815" lon="11.89602618437972"><ele>150.0</ele><time>2026-05-03T13:07:57.999Z</time></trkpt><trkpt lat="42.099450990364986" lon="11.895965516282164"><ele>150.0</ele><time>2026-05-03T13:07:59.999Z</time></trkpt><trkpt lat="42.09932796315637" lon="11.895989721566238"><ele>150.0</ele><time>2026-05-03T13:08:01.999Z</time></trkpt><trkpt lat="42.099257591434856" lon="11.896032715215028"><ele>150.0</ele><time>2026-05-03T13:08:02.999Z</time></trkpt><trkpt lat="42.099195359750546" lon="11.896069920345555"><ele>150.0</ele><time>2026-05-03T13:08:03.999Z</time></trkpt><trkpt lat="42.09913257724849" lon="11.896079650575775"><ele>150.0</ele><time>2026-05-03T13:08:04.999Z</time></trkpt><trkpt lat="42.09899711016142" lon="11.896025312612238"><ele>150.0</ele><time>2026-05-03T13:08:06.999Z</time></trkpt><trkpt lat="42.098939808722626" lon="11.895950863818932"><ele>150.0</ele><time>2026-05-03T13:08:08.999Z</time></trkpt><trkpt lat="42.098911299469684" lon="11.895824261689192"><ele>150.0</ele><time>2026-05-03T13:08:10.999Z</time></trkpt><trkpt lat="42.098859457394866" lon="11.895683337126417"><ele>148.0</ele><time>2026-05-03T13:08:12.999Z</time></trkpt><trkpt lat="42.098799060906984" lon="11.895538257009807"><ele>146.0</ele><time>2026-05-03T13:08:14.999Z</time></trkpt><trkpt lat="42.0987658023013" lon="11.895456597602259"><ele>144.0</ele><time>2026-05-03T13:08:15.999Z</time></trkpt><trkpt lat="42.098720973930256" lon="11.895361156681249"><ele>142.0</ele><time>2026-05-03T13:08:16.999Z</time></trkpt><trkpt lat="42.09866840500334" lon="11.895277007304967"><ele>140.0</ele><time>2026-05-03T13:08:17.999Z</time></trkpt><trkpt lat="42.098606424198024" lon="11.895194501049563"><ele>138.0</ele><time>2026-05-03T13:08:18.999Z</time></trkpt><trkpt lat="42.09855219390303" lon="11.895128952952104"><ele>137.5</ele><time>2026-05-03T13:08:19.999Z</time></trkpt><trkpt lat="42.098495782610705" lon="11.895061543151456"><ele>137.0</ele><time>2026-05-03T13:08:20.999Z</time></trkpt><trkpt lat="42.09837498160692" lon="11.8950055320277"><ele>136.5</ele><time>2026-05-03T13:08:22.999Z</time></trkpt><trkpt lat="42.09829991697316" lon="11.894984595276831"><ele>136.0</ele><time>2026-05-03T13:08:23.999Z</time></trkpt><trkpt lat="42.098214998357626" lon="11.894960861560202"><ele>135.5</ele><time>2026-05-03T13:08:24.999Z</time></trkpt><trkpt lat="42.09814346472473" lon="11.894922203626129"><ele>135.0</ele><time>2026-05-03T13:08:25.999Z</time></trkpt><trkpt lat="42.09807825224643" lon="11.894875267428263"><ele>135.0</ele><time>2026-05-03T13:08:26.999Z</time></trkpt><trkpt lat="42.097997750862895" lon="11.894839953183578"><ele>135.0</ele><time>2026-05-03T13:08:27.999Z</time></trkpt><trkpt lat="42.0979304037894" lon="11.894815317269511"><ele>135.0</ele><time>2026-05-03T13:08:28.999Z</time></trkpt><trkpt lat="42.097855108613274" lon="11.8947776488498"><ele>135.0</ele><time>2026-05-03T13:08:29.999Z</time></trkpt><trkpt lat="42.097797089166995" lon="11.894740585973876"><ele>135.0</ele><time>2026-05-03T13:08:30.999Z</time></trkpt><trkpt lat="42.0977209982859" lon="11.894691861897712"><ele>135.0</ele><time>2026-05-03T13:08:31.999Z</time></trkpt><trkpt lat="42.09761091656419" lon="11.894618204023645"><ele>135.0</ele><time>2026-05-03T13:08:33.999Z</time></trkpt><trkpt lat="42.0975385969145" lon="11.894558547271373"><ele>135.0</ele><time>2026-05-03T13:08:35.999Z</time></trkpt><trkpt lat="42.097456320649776" lon="11.894510199833817"><ele>135.0</ele><time>2026-05-03T13:08:38.999Z</time></trkpt><trkpt lat="42.09739252833009" lon="11.89442913673642"><ele>135.0</ele><time>2026-05-03T13:08:40.999Z</time></trkpt><trkpt lat="42.09733783655072" lon="11.894325891708053"><ele>135.0</ele><time>2026-05-03T13:08:42.999Z</time></trkpt><trkpt lat="42.097296285662225" lon="11.894246065366803"><ele>135.0</ele><time>2026-05-03T13:08:44.999Z</time></trkpt><trkpt lat="42.09722955289142" lon="11.894156168000135"><ele>134.4</ele><time>2026-05-03T13:08:46.999Z</time></trkpt><trkpt lat="42.09714654551499" lon="11.894052810591887"><ele>133.8</ele><time>2026-05-03T13:08:48.999Z</time></trkpt><trkpt lat="42.09707109200899" lon="11.893968506012836"><ele>133.2</ele><time>2026-05-03T13:08:50.999Z</time></trkpt><trkpt lat="42.097014599940046" lon="11.89392792661669"><ele>132.6</ele><time>2026-05-03T13:08:51.999Z</time></trkpt><trkpt lat="42.096939218644216" lon="11.893796631505014"><ele>132.0</ele><time>2026-05-03T13:08:53.999Z</time></trkpt><trkpt lat="42.09690948333148" lon="11.89371371676116"><ele>132.0</ele><time>2026-05-03T13:08:54.999Z</time></trkpt><trkpt lat="42.096872398755536" lon="11.893636447831584"><ele>132.0</ele><time>2026-05-03T13:08:55.999Z</time></trkpt><trkpt lat="42.096826148347006" lon="11.893573380028887"><ele>132.0</ele><time>2026-05-03T13:08:56.999Z</time></trkpt><trkpt lat="42.096728322290986" lon="11.893469387921126"><ele>132.0</ele><time>2026-05-03T13:08:58.999Z</time></trkpt><trkpt lat="42.09664678249757" lon="11.893376227267785"><ele>132.0</ele><time>2026-05-03T13:09:00.999Z</time></trkpt><trkpt lat="42.09654959569207" lon="11.893292376012836"><ele>133.33333333333334</ele><time>2026-05-03T13:09:03Z</time></trkpt><trkpt lat="42.096481904113595" lon="11.893264427123619"><ele>134.66666666666666</ele><time>2026-05-03T13:09:05Z</time></trkpt><trkpt lat="42.096411187819065" lon="11.893226869379134"><ele>136.0</ele><time>2026-05-03T13:09:07Z</time></trkpt><trkpt lat="42.0962790465328" lon="11.893181018717534"><ele>137.33333333333331</ele><time>2026-05-03T13:09:09Z</time></trkpt><trkpt lat="42.09619923976982" lon="11.89315075849897"><ele>138.66666666666666</ele><time>2026-05-03T13:09:10Z</time></trkpt><trkpt lat="42.09612487959084" lon="11.893122164511224"><ele>140.0</ele><time>2026-05-03T13:09:11Z</time></trkpt><trkpt lat="42.096043648430395" lon="11.893059732161387"><ele>140.0</ele><time>2026-05-03T13:09:13Z</time></trkpt><trkpt lat="42.096022003595344" lon="11.89294044521211"><ele>140.0</ele><time>2026-05-03T13:09:15Z</time></trkpt><trkpt lat="42.096007099523" lon="11.892801075837"><ele>140.0</ele><time>2026-05-03T13:09:17Z</time></trkpt><trkpt lat="42.09594720483607" lon="11.892675178725243"><ele>140.0</ele><time>2026-05-03T13:09:19Z</time></trkpt><trkpt lat="42.09590936586401" lon="11.892584282150082"><ele>140.0</ele><time>2026-05-03T13:09:35Z</time></trkpt><trkpt lat="42.09584360719559" lon="11.892519453371877"><ele>138.0</ele><time>2026-05-03T13:09:38Z</time></trkpt><trkpt lat="42.09579123902913" lon="11.892454510694918"><ele>136.0</ele><time>2026-05-03T13:09:40Z</time></trkpt><trkpt lat="42.0957342125344" lon="11.892374763085902"><ele>134.0</ele><time>2026-05-03T13:09:42Z</time></trkpt><trkpt lat="42.09562287553267" lon="11.892319170371353"><ele>132.0</ele><time>2026-05-03T13:09:44Z</time></trkpt><trkpt lat="42.09553212612884" lon="11.89226997661232"><ele>130.0</ele><time>2026-05-03T13:09:46Z</time></trkpt><trkpt lat="42.09546466795329" lon="11.892133798942984"><ele>133.83333333333334</ele><time>2026-05-03T13:09:48Z</time></trkpt><trkpt lat="42.09542366966727" lon="11.892051120516898"><ele>137.66666666666669</ele><time>2026-05-03T13:09:49Z</time></trkpt><trkpt lat="42.09536108604797" lon="11.891984743251788"><ele>141.5</ele><time>2026-05-03T13:09:50Z</time></trkpt><trkpt lat="42.09531272239129" lon="11.891913207910104"><ele>145.33333333333334</ele><time>2026-05-03T13:09:51Z</time></trkpt><trkpt lat="42.09525788728318" lon="11.8918438268919"><ele>149.16666666666666</ele><time>2026-05-03T13:09:52Z</time></trkpt><trkpt lat="42.09518052209749" lon="11.891778818924378"><ele>153.0</ele><time>2026-05-03T13:09:54Z</time></trkpt><trkpt lat="42.095095687142305" lon="11.891772467622179"><ele>152.6</ele><time>2026-05-03T13:09:56Z</time></trkpt><trkpt lat="42.09499113073176" lon="11.891720325059294"><ele>152.20000000000002</ele><time>2026-05-03T13:09:58Z</time></trkpt><trkpt lat="42.09488927724195" lon="11.891674205297694"><ele>151.8</ele><time>2026-05-03T13:10:00Z</time></trkpt><trkpt lat="42.094817929789095" lon="11.891645866748767"><ele>151.4</ele><time>2026-05-03T13:10:03Z</time></trkpt><trkpt lat="42.09473467198352" lon="11.891607979415017"><ele>151.0</ele><time>2026-05-03T13:10:13Z</time></trkpt><trkpt lat="42.09470909152398" lon="11.89149399860421"><ele>151.0</ele><time>2026-05-03T13:10:16Z</time></trkpt><trkpt lat="42.09467266978743" lon="11.89141392508938"><ele>151.0</ele><time>2026-05-03T13:10:18.001Z</time></trkpt><trkpt lat="42.09460377513943" lon="11.8912953134799"><ele>151.0</ele><time>2026-05-03T13:10:20.001Z</time></trkpt><trkpt lat="42.09453907417533" lon="11.891204629282736"><ele>151.0</ele><time>2026-05-03T13:10:22.001Z</time></trkpt><trkpt lat="42.094436427363256" lon="11.891149123986086"><ele>151.0</ele><time>2026-05-03T13:10:24.001Z</time></trkpt><trkpt lat="42.09433221678072" lon="11.891116109482994"><ele>151.0</ele><time>2026-05-03T13:10:26.001Z</time></trkpt><trkpt lat="42.09424572124194" lon="11.891086182494224"><ele>151.0</ele><time>2026-05-03T13:10:28.001Z</time></trkpt><trkpt lat="42.09417430976477" lon="11.891057852400762"><ele>151.0</ele><time>2026-05-03T13:10:30.001Z</time></trkpt><trkpt lat="42.094090836928906" lon="11.890989162707797"><ele>151.0</ele><time>2026-05-03T13:10:33.001Z</time></trkpt><trkpt lat="42.0940289319947" lon="11.890899671609517"><ele>151.0</ele><time>2026-05-03T13:10:35.001Z</time></trkpt><trkpt lat="42.093952209104515" lon="11.890799123145547"><ele>150.8</ele><time>2026-05-03T13:10:37.001Z</time></trkpt><trkpt lat="42.09387461302294" lon="11.890722247080488"><ele>150.6</ele><time>2026-05-03T13:10:39.001Z</time></trkpt><trkpt lat="42.09378659143918" lon="11.89061813967605"><ele>150.4</ele><time>2026-05-03T13:10:41.001Z</time></trkpt><trkpt lat="42.093702578920364" lon="11.890538810149451"><ele>150.2</ele><time>2026-05-03T13:10:43.001Z</time></trkpt><trkpt lat="42.093637120284306" lon="11.890482548656202"><ele>150.0</ele><time>2026-05-03T13:10:45.001Z</time></trkpt><trkpt lat="42.09355990676364" lon="11.89041613086747"><ele>150.0</ele><time>2026-05-03T13:10:47.001Z</time></trkpt><trkpt lat="42.09346480242866" lon="11.890368859110502"><ele>150.0</ele><time>2026-05-03T13:10:50.001Z</time></trkpt><trkpt lat="42.09339646090932" lon="11.890277128874946"><ele>150.0</ele><time>2026-05-03T13:10:52.001Z</time></trkpt><trkpt lat="42.09334563845383" lon="11.890223628779564"><ele>150.0</ele><time>2026-05-03T13:10:54.001Z</time></trkpt><trkpt lat="42.0932681530439" lon="11.890179695587449"><ele>150.0</ele><time>2026-05-03T13:10:56.001Z</time></trkpt><trkpt lat="42.09318336794924" lon="11.890134568727564"><ele>150.0</ele><time>2026-05-03T13:10:58Z</time></trkpt><trkpt lat="42.093097265009916" lon="11.89007979087998"><ele>151.16666666666666</ele><time>2026-05-03T13:11:00Z</time></trkpt><trkpt lat="42.093024255108624" lon="11.890020165296871"><ele>152.33333333333334</ele><time>2026-05-03T13:11:02Z</time></trkpt><trkpt lat="42.09296785666716" lon="11.889979901703182"><ele>153.5</ele><time>2026-05-03T13:11:04Z</time></trkpt><trkpt lat="42.09287923124671" lon="11.889990071152324"><ele>154.66666666666669</ele><time>2026-05-03T13:11:06Z</time></trkpt><trkpt lat="42.092782828946795" lon="11.890045013258089"><ele>155.83333333333334</ele><time>2026-05-03T13:11:08Z</time></trkpt><trkpt lat="42.09271276319725" lon="11.89009866355711"><ele>157.0</ele><time>2026-05-03T13:11:10Z</time></trkpt><trkpt lat="42.092648930599736" lon="11.890124207212512"><ele>157.0</ele><time>2026-05-03T13:11:12Z</time></trkpt><trkpt lat="42.09258971235052" lon="11.890160733069171"><ele>157.0</ele><time>2026-05-03T13:11:14Z</time></trkpt><trkpt lat="42.092517107831654" lon="11.890185433660253"><ele>157.0</ele><time>2026-05-03T13:11:16Z</time></trkpt><trkpt lat="42.092430227318" lon="11.890164775267905"><ele>157.0</ele><time>2026-05-03T13:11:18Z</time></trkpt><trkpt lat="42.09231843370729" lon="11.890158629945638"><ele>157.0</ele><time>2026-05-03T13:11:20Z</time></trkpt><trkpt lat="42.092254834291225" lon="11.890146331637764"><ele>157.0</ele><time>2026-05-03T13:11:21Z</time></trkpt><trkpt lat="42.09213411566044" lon="11.890103246283287"><ele>155.83333333333334</ele><time>2026-05-03T13:11:23Z</time></trkpt><trkpt lat="42.092051104580946" lon="11.890062856051703"><ele>154.66666666666669</ele><time>2026-05-03T13:11:25Z</time></trkpt><trkpt lat="42.091988889005854" lon="11.890037245994641"><ele>153.5</ele><time>2026-05-03T13:11:27Z</time></trkpt><trkpt lat="42.091908249155445" lon="11.8899887162588"><ele>152.33333333333334</ele><time>2026-05-03T13:11:30Z</time></trkpt><trkpt lat="42.09182232636273" lon="11.889973292644333"><ele>151.16666666666666</ele><time>2026-05-03T13:11:33Z</time></trkpt><trkpt lat="42.09178540167553" lon="11.889876616621885"><ele>150.0</ele><time>2026-05-03T13:11:36Z</time></trkpt><trkpt lat="42.091814536144064" lon="11.88976790701417"><ele>150.0</ele><time>2026-05-03T13:11:38Z</time></trkpt><trkpt lat="42.09183284749235" lon="11.889665108141452"><ele>150.0</ele><time>2026-05-03T13:11:40Z</time></trkpt><trkpt lat="42.091801636517545" lon="11.889519878149304"><ele>150.0</ele><time>2026-05-03T13:11:42Z</time></trkpt><trkpt lat="42.09176711517673" lon="11.889421592007142"><ele>150.0</ele><time>2026-05-03T13:11:44Z</time></trkpt><trkpt lat="42.09170256092102" lon="11.889254625752422"><ele>150.0</ele><time>2026-05-03T13:11:46Z</time></trkpt><trkpt lat="42.091679648709345" lon="11.889160023084212"><ele>148.8</ele><time>2026-05-03T13:11:47Z</time></trkpt><trkpt lat="42.091668956636774" lon="11.889043467321912"><ele>147.6</ele><time>2026-05-03T13:11:49Z</time></trkpt><trkpt lat="42.0916296981265" lon="11.888905292367212"><ele>146.4</ele><time>2026-05-03T13:11:51Z</time></trkpt><trkpt lat="42.091609219008134" lon="11.888801239357258"><ele>145.2</ele><time>2026-05-03T13:11:52Z</time></trkpt><trkpt lat="42.09157892868237" lon="11.888687737895083"><ele>144.0</ele><time>2026-05-03T13:11:53Z</time></trkpt><trkpt lat="42.09153530716225" lon="11.888584429557248"><ele>146.0</ele><time>2026-05-03T13:11:54Z</time></trkpt><trkpt lat="42.09147204653758" lon="11.888454191771576"><ele>148.0</ele><time>2026-05-03T13:11:56Z</time></trkpt><trkpt lat="42.091428693670494" lon="11.888385373893204"><ele>150.0</ele><time>2026-05-03T13:11:57Z</time></trkpt><trkpt lat="42.09138355048927" lon="11.88832413030262"><ele>152.0</ele><time>2026-05-03T13:11:58Z</time></trkpt><trkpt lat="42.09128632859574" lon="11.888225817083745"><ele>154.0</ele><time>2026-05-03T13:12:00Z</time></trkpt><trkpt lat="42.09122689824922" lon="11.888179308970452"><ele>156.0</ele><time>2026-05-03T13:12:01Z</time></trkpt><trkpt lat="42.09116792965346" lon="11.888121991909951"><ele>156.0</ele><time>2026-05-03T13:12:02Z</time></trkpt><trkpt lat="42.091092940954276" lon="11.88806375723017"><ele>156.0</ele><time>2026-05-03T13:12:04Z</time></trkpt><trkpt lat="42.091041054660884" lon="11.888013109492446"><ele>156.0</ele><time>2026-05-03T13:14:53Z</time></trkpt><trkpt lat="42.09093602147897" lon="11.88800550665485"><ele>156.0</ele><time>2026-05-03T13:14:56Z</time></trkpt><trkpt lat="42.09081793112718" lon="11.888016317747342"><ele>156.0</ele><time>2026-05-03T13:14:58Z</time></trkpt><trkpt lat="42.09070232269639" lon="11.888061186209557"><ele>156.6</ele><time>2026-05-03T13:15:00Z</time></trkpt><trkpt lat="42.090607061727596" lon="11.888071261472335"><ele>157.2</ele><time>2026-05-03T13:15:02Z</time></trkpt><trkpt lat="42.09054133404514" lon="11.888083933362983"><ele>157.8</ele><time>2026-05-03T13:15:03Z</time></trkpt><trkpt lat="42.090427638963945" lon="11.888072914032296"><ele>158.4</ele><time>2026-05-03T13:15:05Z</time></trkpt><trkpt lat="42.09029514229436" lon="11.888017599694692"><ele>159.0</ele><time>2026-05-03T13:15:07Z</time></trkpt><trkpt lat="42.09022209548697" lon="11.887976090208673"><ele>159.0</ele><time>2026-05-03T13:15:08Z</time></trkpt><trkpt lat="42.09015385027217" lon="11.887925126184472"><ele>159.0</ele><time>2026-05-03T13:15:09Z</time></trkpt><trkpt lat="42.090091441809534" lon="11.887883663352605"><ele>159.0</ele><time>2026-05-03T13:15:10Z</time></trkpt><trkpt lat="42.089976638642085" lon="11.887856727319614"><ele>159.0</ele><time>2026-05-03T13:15:12Z</time></trkpt><trkpt lat="42.089886170060716" lon="11.887870993353324"><ele>159.0</ele><time>2026-05-03T13:15:14Z</time></trkpt><trkpt lat="42.089793249580545" lon="11.887900044280244"><ele>159.0</ele><time>2026-05-03T13:15:16Z</time></trkpt><trkpt lat="42.08970829620344" lon="11.887951463850115"><ele>159.0</ele><time>2026-05-03T13:15:18Z</time></trkpt><trkpt lat="42.089628502845244" lon="11.88804759366368"><ele>159.0</ele><time>2026-05-03T13:15:20Z</time></trkpt><trkpt lat="42.0895529832454" lon="11.888165390837113"><ele>159.0</ele><time>2026-05-03T13:15:22Z</time></trkpt><trkpt lat="42.089502871170495" lon="11.888243657510992"><ele>159.0</ele><time>2026-05-03T13:15:23Z</time></trkpt><trkpt lat="42.089453585453356" lon="11.88832801991103"><ele>159.0</ele><time>2026-05-03T13:15:24Z</time></trkpt><trkpt lat="42.089398880711435" lon="11.888413286206717"><ele>159.0</ele><time>2026-05-03T13:15:25Z</time></trkpt><trkpt lat="42.08933741849831" lon="11.888480738855597"><ele>159.0</ele><time>2026-05-03T13:15:26Z</time></trkpt><trkpt lat="42.08921816909878" lon="11.88857190783271"><ele>159.0</ele><time>2026-05-03T13:15:28Z</time></trkpt><trkpt lat="42.08915747008459" lon="11.888619779262564"><ele>159.0</ele><time>2026-05-03T13:15:29Z</time></trkpt><trkpt lat="42.08908105641429" lon="11.88868045530924"><ele>159.7142857142857</ele><time>2026-05-03T13:15:30Z</time></trkpt><trkpt lat="42.08901673513225" lon="11.888717678377665"><ele>160.42857142857144</ele><time>2026-05-03T13:15:31Z</time></trkpt><trkpt lat="42.088949690825366" lon="11.888760778961903"><ele>161.14285714285714</ele><time>2026-05-03T13:15:32Z</time></trkpt><trkpt lat="42.08888253810225" lon="11.888803368429098"><ele>161.85714285714283</ele><time>2026-05-03T13:15:33Z</time></trkpt><trkpt lat="42.088806792101956" lon="11.888834517055345"><ele>162.57142857142856</ele><time>2026-05-03T13:15:34Z</time></trkpt><trkpt lat="42.08874199058102" lon="11.88885710838931"><ele>163.28571428571428</ele><time>2026-05-03T13:15:35Z</time></trkpt><trkpt lat="42.08867559004434" lon="11.888881503339391"><ele>164.0</ele><time>2026-05-03T13:15:36Z</time></trkpt><trkpt lat="42.088618137526815" lon="11.888922684691348"><ele>164.0</ele><time>2026-05-03T13:15:38Z</time></trkpt><trkpt lat="42.088545454643324" lon="11.889005913102311"><ele>164.0</ele><time>2026-05-03T13:15:41Z</time></trkpt><trkpt lat="42.08849618768666" lon="11.889120502085438"><ele>164.0</ele><time>2026-05-03T13:15:43Z</time></trkpt><trkpt lat="42.08844144378231" lon="11.889246017130533"><ele>164.0</ele><time>2026-05-03T13:15:45Z</time></trkpt><trkpt lat="42.088385145581185" lon="11.889349254456127"><ele>164.0</ele><time>2026-05-03T13:15:47Z</time></trkpt><trkpt lat="42.08831551455595" lon="11.889472496618671"><ele>164.6</ele><time>2026-05-03T13:15:49Z</time></trkpt><trkpt lat="42.08826381978106" lon="11.889610376855623"><ele>165.2</ele><time>2026-05-03T13:15:51Z</time></trkpt><trkpt lat="42.08821206418556" lon="11.889717577014784"><ele>165.79999999999998</ele><time>2026-05-03T13:15:53Z</time></trkpt><trkpt lat="42.08814937386214" lon="11.88984642106503"><ele>166.39999999999998</ele><time>2026-05-03T13:15:55Z</time></trkpt><trkpt lat="42.08809061574805" lon="11.88995880207087"><ele>167.0</ele><time>2026-05-03T13:15:57Z</time></trkpt><trkpt lat="42.08804682917353" lon="11.890061082932897"><ele>168.5</ele><time>2026-05-03T13:15:59Z</time></trkpt><trkpt lat="42.08801780873558" lon="11.890140134498054"><ele>170.0</ele><time>2026-05-03T13:16:01Z</time></trkpt><trkpt lat="42.087993423000206" lon="11.890261326072055"><ele>171.5</ele><time>2026-05-03T13:16:03Z</time></trkpt><trkpt lat="42.08798806363565" lon="11.890395911613764"><ele>173.0</ele><time>2026-05-03T13:16:05Z</time></trkpt><trkpt lat="42.087973513180486" lon="11.890518001379652"><ele>174.5</ele><time>2026-05-03T13:16:07Z</time></trkpt><trkpt lat="42.08792894087146" lon="11.8905942625321"><ele>176.0</ele><time>2026-05-03T13:16:09Z</time></trkpt><trkpt lat="42.08785752415801" lon="11.890679440458905"><ele>176.0</ele><time>2026-05-03T13:16:11Z</time></trkpt><trkpt lat="42.08779878034975" lon="11.890733773041543"><ele>176.0</ele><time>2026-05-03T13:16:12Z</time></trkpt><trkpt lat="42.08774118580355" lon="11.890772007908524"><ele>176.0</ele><time>2026-05-03T13:16:13Z</time></trkpt><trkpt lat="42.08763440383903" lon="11.890821552071582"><ele>176.0</ele><time>2026-05-03T13:16:15Z</time></trkpt><trkpt lat="42.08754997388754" lon="11.890867323062988"><ele>176.0</ele><time>2026-05-03T13:16:17Z</time></trkpt><trkpt lat="42.087457426088264" lon="11.89092617280505"><ele>176.0</ele><time>2026-05-03T13:16:19Z</time></trkpt><trkpt lat="42.087352630108015" lon="11.891001217595335"><ele>176.60000000000002</ele><time>2026-05-03T13:16:21Z</time></trkpt><trkpt lat="42.08725306515522" lon="11.891072349529596"><ele>177.2</ele><time>2026-05-03T13:16:23Z</time></trkpt><trkpt lat="42.08716467646897" lon="11.891128238885694"><ele>177.8</ele><time>2026-05-03T13:16:25Z</time></trkpt><trkpt lat="42.08709280823384" lon="11.891107665694621"><ele>178.39999999999998</ele><time>2026-05-03T13:16:28Z</time></trkpt><trkpt lat="42.08708954866161" lon="11.891018271758732"><ele>179.0</ele><time>2026-05-03T13:16:33Z</time></trkpt><trkpt lat="42.08709938877328" lon="11.890879878495573"><ele>177.79999999999998</ele><time>2026-05-03T13:16:47.001Z</time></trkpt><trkpt lat="42.087103908075434" lon="11.890789649490843"><ele>176.6</ele><time>2026-05-03T13:16:48.001Z</time></trkpt><trkpt lat="42.08711351454" lon="11.890631505108486"><ele>175.4</ele><time>2026-05-03T13:16:50.001Z</time></trkpt><trkpt lat="42.08714529880544" lon="11.890478549783767"><ele>174.2</ele><time>2026-05-03T13:16:52Z</time></trkpt><trkpt lat="42.08719019532102" lon="11.890372907634932"><ele>173.0</ele><time>2026-05-03T13:16:54Z</time></trkpt><trkpt lat="42.08725454669677" lon="11.890281846192803"><ele>173.0</ele><time>2026-05-03T13:16:56Z</time></trkpt><trkpt lat="42.08728693100281" lon="11.890167025659832"><ele>173.0</ele><time>2026-05-03T13:16:58Z</time></trkpt><trkpt lat="42.08727962088192" lon="11.890015897899723"><ele>173.0</ele><time>2026-05-03T13:17:00Z</time></trkpt><trkpt lat="42.08725809745636" lon="11.889889939584439"><ele>173.0</ele><time>2026-05-03T13:17:02Z</time></trkpt><trkpt lat="42.08722848675686" lon="11.889810294335577"><ele>173.0</ele><time>2026-05-03T13:17:04Z</time></trkpt><trkpt lat="42.087170363790285" lon="11.88972522949315"><ele>171.66666666666666</ele><time>2026-05-03T13:17:06Z</time></trkpt><trkpt lat="42.087064802168605" lon="11.889638778603533"><ele>170.33333333333331</ele><time>2026-05-03T13:17:08Z</time></trkpt><trkpt lat="42.08700187937532" lon="11.889592065954217"><ele>169.0</ele><time>2026-05-03T13:17:09Z</time></trkpt><trkpt lat="42.08692796801179" lon="11.889522568477817"><ele>167.66666666666666</ele><time>2026-05-03T13:17:10Z</time></trkpt><trkpt lat="42.08686475963231" lon="11.889455372566475"><ele>166.33333333333334</ele><time>2026-05-03T13:17:11Z</time></trkpt><trkpt lat="42.08681053374551" lon="11.889389143222468"><ele>165.0</ele><time>2026-05-03T13:17:12Z</time></trkpt><trkpt lat="42.08674869426078" lon="11.889327691431737"><ele>165.0</ele><time>2026-05-03T13:17:13Z</time></trkpt><trkpt lat="42.08668825948744" lon="11.88927958691253"><ele>165.0</ele><time>2026-05-03T13:17:14Z</time></trkpt><trkpt lat="42.08661666727332" lon="11.889239783195121"><ele>165.0</ele><time>2026-05-03T13:17:15Z</time></trkpt><trkpt lat="42.086549752718966" lon="11.8892198121269"><ele>165.0</ele><time>2026-05-03T13:17:16Z</time></trkpt><trkpt lat="42.08646567075284" lon="11.889194566080059"><ele>165.0</ele><time>2026-05-03T13:17:17Z</time></trkpt><trkpt lat="42.08638441593595" lon="11.889159426349762"><ele>165.0</ele><time>2026-05-03T13:17:18Z</time></trkpt><trkpt lat="42.08630698006585" lon="11.889078390552731"><ele>162.57142857142858</ele><time>2026-05-03T13:17:20Z</time></trkpt><trkpt lat="42.08626213591633" lon="11.889010026828688"><ele>160.14285714285714</ele><time>2026-05-03T13:17:21Z</time></trkpt><trkpt lat="42.086218987290486" lon="11.888924822531868"><ele>157.71428571428572</ele><time>2026-05-03T13:17:22Z</time></trkpt><trkpt lat="42.08617042023189" lon="11.888822137256017"><ele>155.28571428571428</ele><time>2026-05-03T13:17:23Z</time></trkpt><trkpt lat="42.0861276741537" lon="11.88874017056979"><ele>152.85714285714286</ele><time>2026-05-03T13:17:24Z</time></trkpt><trkpt lat="42.08608398841767" lon="11.88866311333431"><ele>150.42857142857144</ele><time>2026-05-03T13:17:25Z</time></trkpt><trkpt lat="42.08605494728129" lon="11.888583330446352"><ele>148.0</ele><time>2026-05-03T13:17:26Z</time></trkpt><trkpt lat="42.08601973731762" lon="11.888498752493271"><ele>146.0</ele><time>2026-05-03T13:17:27Z</time></trkpt><trkpt lat="42.08599556813475" lon="11.888409741228065"><ele>144.0</ele><time>2026-05-03T13:17:28Z</time></trkpt><trkpt lat="42.085947203230894" lon="11.888255585405338"><ele>142.0</ele><time>2026-05-03T13:17:30Z</time></trkpt><trkpt lat="42.08590647796674" lon="11.888180722649219"><ele>140.0</ele><time>2026-05-03T13:17:31Z</time></trkpt><trkpt lat="42.08583171885029" lon="11.888085690864122"><ele>138.0</ele><time>2026-05-03T13:17:33Z</time></trkpt><trkpt lat="42.08572833946653" lon="11.887963347786291"><ele>136.83333333333334</ele><time>2026-05-03T13:17:35Z</time></trkpt><trkpt lat="42.08566506812731" lon="11.887905037791194"><ele>135.66666666666666</ele><time>2026-05-03T13:17:36Z</time></trkpt><trkpt lat="42.08561835231691" lon="11.887838776006292"><ele>134.5</ele><time>2026-05-03T13:17:37Z</time></trkpt><trkpt lat="42.08558095502429" lon="11.887763372623272"><ele>133.33333333333331</ele><time>2026-05-03T13:17:38Z</time></trkpt><trkpt lat="42.085540221202955" lon="11.887672488078824"><ele>132.16666666666666</ele><time>2026-05-03T13:17:39Z</time></trkpt><trkpt lat="42.085483532591525" lon="11.887552663020669"><ele>131.0</ele><time>2026-05-03T13:17:40Z</time></trkpt><trkpt lat="42.08544042789863" lon="11.887434027488895"><ele>130.2</ele><time>2026-05-03T13:17:41Z</time></trkpt><trkpt lat="42.085407626102004" lon="11.887324615202264"><ele>129.39999999999998</ele><time>2026-05-03T13:17:42Z</time></trkpt><trkpt lat="42.08536401412494" lon="11.88720981514307"><ele>128.6</ele><time>2026-05-03T13:17:43Z</time></trkpt><trkpt lat="42.085319994268296" lon="11.887100910912427"><ele>127.8</ele><time>2026-05-03T13:17:44Z</time></trkpt><trkpt lat="42.08528248008913" lon="11.886993713979821"><ele>127.0</ele><time>2026-05-03T13:17:45Z</time></trkpt><trkpt lat="42.08523969007092" lon="11.886871966820449"><ele>126.19999999999999</ele><time>2026-05-03T13:17:46Z</time></trkpt><trkpt lat="42.085203927718574" lon="11.886743326124018"><ele>125.39999999999999</ele><time>2026-05-03T13:17:47Z</time></trkpt><trkpt lat="42.085180184591195" lon="11.886609407096563"><ele>124.60000000000001</ele><time>2026-05-03T13:17:48Z</time></trkpt><trkpt lat="42.085161818371745" lon="11.886490202226112"><ele>123.80000000000001</ele><time>2026-05-03T13:17:49Z</time></trkpt><trkpt lat="42.0851410207741" lon="11.886361838028924"><ele>123.0</ele><time>2026-05-03T13:17:50Z</time></trkpt><trkpt lat="42.085122932208655" lon="11.88625088354982"><ele>123.0</ele><time>2026-05-03T13:17:51Z</time></trkpt><trkpt lat="42.08510574670906" lon="11.886110421076996"><ele>123.0</ele><time>2026-05-03T13:17:53Z</time></trkpt><trkpt lat="42.085099753971896" lon="11.886025480911856"><ele>123.0</ele><time>2026-05-03T13:17:54Z</time></trkpt><trkpt lat="42.085109664803184" lon="11.885922062300569"><ele>123.0</ele><time>2026-05-03T13:17:55Z</time></trkpt><trkpt lat="42.085117992804534" lon="11.88582531186097"><ele>123.0</ele><time>2026-05-03T13:17:56Z</time></trkpt><trkpt lat="42.08512663365843" lon="11.885715977086717"><ele>123.0</ele><time>2026-05-03T13:17:57Z</time></trkpt><trkpt lat="42.08514130895157" lon="11.88562656802091"><ele>122.33333333333333</ele><time>2026-05-03T13:17:58Z</time></trkpt><trkpt lat="42.085161276248265" lon="11.885540525090121"><ele>121.66666666666666</ele><time>2026-05-03T13:17:59Z</time></trkpt><trkpt lat="42.085189081836276" lon="11.885390878638223"><ele>121.0</ele><time>2026-05-03T13:18:01Z</time></trkpt><trkpt lat="42.08519405902552" lon="11.885293753985767"><ele>120.33333333333333</ele><time>2026-05-03T13:18:03Z</time></trkpt><trkpt lat="42.08520842261504" lon="11.885200592290918"><ele>119.66666666666666</ele><time>2026-05-03T13:18:05Z</time></trkpt><trkpt lat="42.08525409529078" lon="11.885065208553378"><ele>119.0</ele><time>2026-05-03T13:18:07Z</time></trkpt><trkpt lat="42.08523900547364" lon="11.884980992041626"><ele>117.0</ele><time>2026-05-03T13:18:10Z</time></trkpt><trkpt lat="42.08523512743782" lon="11.884869739580502"><ele>115.0</ele><time>2026-05-03T13:18:13Z</time></trkpt><trkpt lat="42.08526778151346" lon="11.884746512374877"><ele>113.0</ele><time>2026-05-03T13:18:15Z</time></trkpt><trkpt lat="42.08526558881378" lon="11.88457597129784"><ele>111.0</ele><time>2026-05-03T13:18:17Z</time></trkpt><trkpt lat="42.08520526480407" lon="11.884442206925058"><ele>109.0</ele><time>2026-05-03T13:18:19Z</time></trkpt><trkpt lat="42.085131163777575" lon="11.884351473820047"><ele>109.0</ele><time>2026-05-03T13:18:21Z</time></trkpt><trkpt lat="42.08507721323136" lon="11.884305409396156"><ele>109.0</ele><time>2026-05-03T13:18:23Z</time></trkpt><trkpt lat="42.08500983489329" lon="11.884217454401165"><ele>109.0</ele><time>2026-05-03T13:18:25Z</time></trkpt><trkpt lat="42.084946979248855" lon="11.884105579573214"><ele>109.0</ele><time>2026-05-03T13:18:27Z</time></trkpt><trkpt lat="42.08487115671186" lon="11.884002938597414"><ele>109.0</ele><time>2026-05-03T13:18:29Z</time></trkpt><trkpt lat="42.08479338910553" lon="11.883926605248195"><ele>106.50000000000001</ele><time>2026-05-03T13:18:31Z</time></trkpt><trkpt lat="42.08472940949459" lon="11.883879711400464"><ele>104.0</ele><time>2026-05-03T13:18:34Z</time></trkpt><trkpt lat="42.08467562823516" lon="11.883787321326395"><ele>101.5</ele><time>2026-05-03T13:18:37Z</time></trkpt><trkpt lat="42.08462068689243" lon="11.883701274637279"><ele>99.0</ele><time>2026-05-03T13:18:39Z</time></trkpt><trkpt lat="42.0845436299435" lon="11.883567544145844"><ele>96.5</ele><time>2026-05-03T13:18:41Z</time></trkpt><trkpt lat="42.08450074566184" lon="11.883497867424083"><ele>94.0</ele><time>2026-05-03T13:18:42Z</time></trkpt><trkpt lat="42.084451465203664" lon="11.88344434030179"><ele>93.33333333333333</ele><time>2026-05-03T13:18:43Z</time></trkpt><trkpt lat="42.08438807440869" lon="11.883396492940289"><ele>92.66666666666666</ele><time>2026-05-03T13:18:44Z</time></trkpt><trkpt lat="42.08428031549685" lon="11.883364669474316"><ele>92.0</ele><time>2026-05-03T13:18:46Z</time></trkpt><trkpt lat="42.084201394988284" lon="11.88333070373547"><ele>91.33333333333333</ele><time>2026-05-03T13:18:49Z</time></trkpt><trkpt lat="42.08416043501885" lon="11.883260456527829"><ele>90.66666666666667</ele><time>2026-05-03T13:18:51Z</time></trkpt><trkpt lat="42.08414689630613" lon="11.883174834211529"><ele>90.0</ele><time>2026-05-03T13:18:54Z</time></trkpt><trkpt lat="42.084160201418605" lon="11.883080997626713"><ele>90.0</ele><time>2026-05-03T13:18:56Z</time></trkpt><trkpt lat="42.08421439245805" lon="11.882954459237876"><ele>90.0</ele><time>2026-05-03T13:18:58Z</time></trkpt><trkpt lat="42.08422961084702" lon="11.882861218441393"><ele>90.0</ele><time>2026-05-03T13:19:00Z</time></trkpt><trkpt lat="42.08420955938905" lon="11.882765361459464"><ele>90.0</ele><time>2026-05-03T13:19:02Z</time></trkpt><trkpt lat="42.08421995131397" lon="11.882658855921235"><ele>90.0</ele><time>2026-05-03T13:19:05Z</time></trkpt><trkpt lat="42.08415321058265" lon="11.882609880333817"><ele>90.0</ele><time>2026-05-03T13:19:09Z</time></trkpt><trkpt lat="42.08413630924995" lon="11.882694053728496"><ele>90.0</ele><time>2026-05-03T13:19:38Z</time></trkpt><trkpt lat="42.084162958432216" lon="11.882791979065196"><ele>90.0</ele><time>2026-05-03T13:19:40Z</time></trkpt><trkpt lat="42.08421645847392" lon="11.882902347054005"><ele>90.0</ele><time>2026-05-03T13:19:42Z</time></trkpt><trkpt lat="42.08422080727511" lon="11.882995745822184"><ele>90.0</ele><time>2026-05-03T13:19:44Z</time></trkpt><trkpt lat="42.084173638031196" lon="11.883088219910125"><ele>90.0</ele><time>2026-05-03T13:19:46Z</time></trkpt><trkpt lat="42.08414634502047" lon="11.883205066396501"><ele>90.0</ele><time>2026-05-03T13:19:48Z</time></trkpt><trkpt lat="42.08417966008335" lon="11.883288572728285"><ele>90.0</ele><time>2026-05-03T13:19:50Z</time></trkpt><trkpt lat="42.08419807435709" lon="11.883404544565883"><ele>90.0</ele><time>2026-05-03T13:19:52Z</time></trkpt><trkpt lat="42.08418988225804" lon="11.88353663433011"><ele>90.0</ele><time>2026-05-03T13:19:54Z</time></trkpt><trkpt lat="42.084163451122095" lon="11.883618889796391"><ele>90.0</ele><time>2026-05-03T13:19:55Z</time></trkpt><trkpt lat="42.08412320872369" lon="11.883714411979195"><ele>90.0</ele><time>2026-05-03T13:19:56Z</time></trkpt><trkpt lat="42.084080185505464" lon="11.883781632996119"><ele>90.0</ele><time>2026-05-03T13:19:57Z</time></trkpt><trkpt lat="42.08402010464569" lon="11.883856019615644"><ele>89.83333333333333</ele><time>2026-05-03T13:19:58Z</time></trkpt><trkpt lat="42.083965611514465" lon="11.88391748232527"><ele>89.66666666666667</ele><time>2026-05-03T13:19:59Z</time></trkpt><trkpt lat="42.08390235164223" lon="11.883962750734565"><ele>89.5</ele><time>2026-05-03T13:20:00Z</time></trkpt><trkpt lat="42.0838365894427" lon="11.883994475309377"><ele>89.33333333333334</ele><time>2026-05-03T13:20:01Z</time></trkpt><trkpt lat="42.08375760636493" lon="11.884046863840362"><ele>89.16666666666667</ele><time>2026-05-03T13:20:02Z</time></trkpt><trkpt lat="42.083668276351965" lon="11.884107960741417"><ele>89.0</ele><time>2026-05-03T13:20:03Z</time></trkpt><trkpt lat="42.08357527873317" lon="11.884171733938608"><ele>89.0</ele><time>2026-05-03T13:20:04Z</time></trkpt><trkpt lat="42.08349954075092" lon="11.88422541270682"><ele>89.0</ele><time>2026-05-03T13:20:05Z</time></trkpt><trkpt lat="42.08341935877572" lon="11.884280225930434"><ele>89.0</ele><time>2026-05-03T13:20:06Z</time></trkpt><trkpt lat="42.083334131871844" lon="11.884352509724135"><ele>89.0</ele><time>2026-05-03T13:20:07Z</time></trkpt><trkpt lat="42.083241363636645" lon="11.884427644015428"><ele>89.0</ele><time>2026-05-03T13:20:08Z</time></trkpt><trkpt lat="42.0831409743521" lon="11.88449244489577"><ele>88.4</ele><time>2026-05-03T13:20:09Z</time></trkpt><trkpt lat="42.08303193012744" lon="11.884561507419594"><ele>87.80000000000001</ele><time>2026-05-03T13:20:10Z</time></trkpt><trkpt lat="42.08292963721211" lon="11.884632807988055"><ele>87.19999999999999</ele><time>2026-05-03T13:20:11Z</time></trkpt><trkpt lat="42.082838938793024" lon="11.8846999618903"><ele>86.6</ele><time>2026-05-03T13:20:12Z</time></trkpt><trkpt lat="42.082763593439665" lon="11.884766020575798"><ele>86.0</ele><time>2026-05-03T13:20:13Z</time></trkpt><trkpt lat="42.082673761509334" lon="11.884839068745757"><ele>86.0</ele><time>2026-05-03T13:20:14Z</time></trkpt><trkpt lat="42.08261453242897" lon="11.884896450105847"><ele>86.0</ele><time>2026-05-03T13:20:15Z</time></trkpt><trkpt lat="42.08256239626157" lon="11.884944228007729"><ele>86.0</ele><time>2026-05-03T13:20:16Z</time></trkpt><trkpt lat="42.082508896658325" lon="11.885037426188811"><ele>86.0</ele><time>2026-05-03T13:20:18Z</time></trkpt><trkpt lat="42.08248572384056" lon="11.885141669847146"><ele>86.0</ele><time>2026-05-03T13:20:20Z</time></trkpt><trkpt lat="42.082404661352406" lon="11.885190604484873"><ele>86.0</ele><time>2026-05-03T13:20:22Z</time></trkpt><trkpt lat="42.082339937808264" lon="11.88518010644331"><ele>85.66666666666667</ele><time>2026-05-03T13:20:23Z</time></trkpt><trkpt lat="42.08227238242057" lon="11.885156860306013"><ele>85.33333333333334</ele><time>2026-05-03T13:20:24Z</time></trkpt><trkpt lat="42.08219794552771" lon="11.885168937609045"><ele>85.0</ele><time>2026-05-03T13:20:25Z</time></trkpt><trkpt lat="42.08211569024741" lon="11.885194096235084"><ele>84.66666666666667</ele><time>2026-05-03T13:20:26Z</time></trkpt><trkpt lat="42.08202258799088" lon="11.885228035646389"><ele>84.33333333333333</ele><time>2026-05-03T13:20:27Z</time></trkpt><trkpt lat="42.081934012700486" lon="11.885259060430252"><ele>84.0</ele><time>2026-05-03T13:20:28Z</time></trkpt><trkpt lat="42.081853673380984" lon="11.885291786700137"><ele>84.0</ele><time>2026-05-03T13:20:29Z</time></trkpt><trkpt lat="42.08178000290111" lon="11.885327182977614"><ele>84.0</ele><time>2026-05-03T13:20:30Z</time></trkpt><trkpt lat="42.081711062219554" lon="11.885364638576906"><ele>84.0</ele><time>2026-05-03T13:20:31Z</time></trkpt><trkpt lat="42.08164328695161" lon="11.885413613817432"><ele>84.0</ele><time>2026-05-03T13:20:32Z</time></trkpt><trkpt lat="42.0815738772238" lon="11.885468493227162"><ele>84.0</ele><time>2026-05-03T13:20:33Z</time></trkpt><trkpt lat="42.081506119808054" lon="11.885522797831838"><ele>84.0</ele><time>2026-05-03T13:20:34Z</time></trkpt><trkpt lat="42.08143072219763" lon="11.885591365946242"><ele>84.2</ele><time>2026-05-03T13:20:35Z</time></trkpt><trkpt lat="42.081356535479145" lon="11.885675406779695"><ele>84.4</ele><time>2026-05-03T13:20:36Z</time></trkpt><trkpt lat="42.081289518154485" lon="11.885757154872222"><ele>84.6</ele><time>2026-05-03T13:20:37Z</time></trkpt><trkpt lat="42.081223786616555" lon="11.885826650203267"><ele>84.8</ele><time>2026-05-03T13:20:38Z</time></trkpt><trkpt lat="42.081166605377575" lon="11.885892942816682"><ele>85.0</ele><time>2026-05-03T13:20:39Z</time></trkpt><trkpt lat="42.081060657038705" lon="11.88600970492036"><ele>84.33333333333333</ele><time>2026-05-03T13:20:41Z</time></trkpt><trkpt lat="42.08097425666691" lon="11.8861439431028"><ele>83.66666666666666</ele><time>2026-05-03T13:20:43Z</time></trkpt><trkpt lat="42.080938151361764" lon="11.886235989094093"><ele>83.0</ele><time>2026-05-03T13:20:44Z</time></trkpt><trkpt lat="42.08090578663901" lon="11.886335635279583"><ele>82.33333333333333</ele><time>2026-05-03T13:20:45Z</time></trkpt><trkpt lat="42.08087682639428" lon="11.886420325850256"><ele>81.66666666666667</ele><time>2026-05-03T13:20:46Z</time></trkpt><trkpt lat="42.080847791812865" lon="11.886498674576227"><ele>81.0</ele><time>2026-05-03T13:20:47Z</time></trkpt><trkpt lat="42.08079784204195" lon="11.886587378170175"><ele>80.6</ele><time>2026-05-03T13:20:49Z</time></trkpt><trkpt lat="42.08071862576503" lon="11.886633791222529"><ele>80.19999999999999</ele><time>2026-05-03T13:20:52Z</time></trkpt><trkpt lat="42.08063091531034" lon="11.886653870992202"><ele>79.80000000000001</ele><time>2026-05-03T13:20:54Z</time></trkpt><trkpt lat="42.08056116016331" lon="11.88672953529347"><ele>79.4</ele><time>2026-05-03T13:20:56Z</time></trkpt><trkpt lat="42.08048949277569" lon="11.886821795097841"><ele>79.0</ele><time>2026-05-03T13:20:58Z</time></trkpt><trkpt lat="42.08039427713388" lon="11.886849468676226"><ele>79.0</ele><time>2026-05-03T13:21:01Z</time></trkpt><trkpt lat="42.08031778647094" lon="11.886861290855023"><ele>79.0</ele><time>2026-05-03T13:21:03Z</time></trkpt><trkpt lat="42.08020514286662" lon="11.886843709916459"><ele>79.0</ele><time>2026-05-03T13:21:05Z</time></trkpt><trkpt lat="42.080099945306436" lon="11.886867373800323"><ele>79.0</ele><time>2026-05-03T13:21:07Z</time></trkpt><trkpt lat="42.08000456475367" lon="11.88690704444816"><ele>79.0</ele><time>2026-05-03T13:21:09Z</time></trkpt><trkpt lat="42.07993805529309" lon="11.886862225847185"><ele>78.5</ele><time>2026-05-03T13:21:12Z</time></trkpt><trkpt lat="42.07986280109379" lon="11.88684408034659"><ele>78.0</ele><time>2026-05-03T13:21:22Z</time></trkpt><trkpt lat="42.07978763189341" lon="11.886792841877101"><ele>77.5</ele><time>2026-05-03T13:21:26Z</time></trkpt><trkpt lat="42.079740088818895" lon="11.88672921184933"><ele>77.0</ele><time>2026-05-03T13:21:29Z</time></trkpt><trkpt lat="42.07967641098035" lon="11.886656353807531"><ele>76.5</ele><time>2026-05-03T13:21:31Z</time></trkpt><trkpt lat="42.07957068740363" lon="11.886624275079182"><ele>76.0</ele><time>2026-05-03T13:21:33Z</time></trkpt><trkpt lat="42.079448165735094" lon="11.886626414790745"><ele>76.0</ele><time>2026-05-03T13:21:35Z</time></trkpt><trkpt lat="42.07932007978619" lon="11.886610175289528"><ele>76.0</ele><time>2026-05-03T13:21:37Z</time></trkpt><trkpt lat="42.07924113724132" lon="11.886589782264318"><ele>76.0</ele><time>2026-05-03T13:21:38Z</time></trkpt><trkpt lat="42.079177888772634" lon="11.886559446054186"><ele>76.0</ele><time>2026-05-03T13:21:39Z</time></trkpt><trkpt lat="42.07908176242716" lon="11.886498335863518"><ele>76.0</ele><time>2026-05-03T13:21:41Z</time></trkpt><trkpt lat="42.07898895971108" lon="11.886404158665583"><ele>76.33333333333333</ele><time>2026-05-03T13:21:43Z</time></trkpt><trkpt lat="42.07893909815993" lon="11.886340265756639"><ele>76.66666666666666</ele><time>2026-05-03T13:21:44Z</time></trkpt><trkpt lat="42.07889965567302" lon="11.88627215675091"><ele>77.0</ele><time>2026-05-03T13:21:45Z</time></trkpt><trkpt lat="42.07886086374097" lon="11.886200664934357"><ele>77.33333333333333</ele><time>2026-05-03T13:21:46Z</time></trkpt><trkpt lat="42.078808360863675" lon="11.886148149192152"><ele>77.66666666666667</ele><time>2026-05-03T13:21:47Z</time></trkpt><trkpt lat="42.07873240237899" lon="11.886016265380627"><ele>78.0</ele><time>2026-05-03T13:21:49Z</time></trkpt><trkpt lat="42.0786972658125" lon="11.885938231024097"><ele>77.16666666666667</ele><time>2026-05-03T13:21:50Z</time></trkpt><trkpt lat="42.078644251162515" lon="11.885874151102271"><ele>76.33333333333333</ele><time>2026-05-03T13:21:51Z</time></trkpt><trkpt lat="42.07859508726437" lon="11.885796560265874"><ele>75.5</ele><time>2026-05-03T13:21:52Z</time></trkpt><trkpt lat="42.078539119806955" lon="11.885723477242353"><ele>74.66666666666666</ele><time>2026-05-03T13:21:53Z</time></trkpt><trkpt lat="42.078474187913805" lon="11.88565150918753"><ele>73.83333333333333</ele><time>2026-05-03T13:21:54Z</time></trkpt><trkpt lat="42.078391353286726" lon="11.88556933500008"><ele>73.0</ele><time>2026-05-03T13:21:55Z</time></trkpt><trkpt lat="42.07832059970992" lon="11.885497216105701"><ele>73.6</ele><time>2026-05-03T13:21:56Z</time></trkpt><trkpt lat="42.078237399729225" lon="11.885409186777256"><ele>74.19999999999999</ele><time>2026-05-03T13:21:57Z</time></trkpt><trkpt lat="42.07815385488808" lon="11.885326079322864"><ele>74.8</ele><time>2026-05-03T13:21:58Z</time></trkpt><trkpt lat="42.07807633424321" lon="11.885251085562398"><ele>75.39999999999999</ele><time>2026-05-03T13:21:59Z</time></trkpt><trkpt lat="42.07800881900704" lon="11.88518099585456"><ele>76.0</ele><time>2026-05-03T13:22:00Z</time></trkpt><trkpt lat="42.077941454942916" lon="11.88510579059526"><ele>76.16666666666666</ele><time>2026-05-03T13:22:01Z</time></trkpt><trkpt lat="42.077857865532714" lon="11.885043997244956"><ele>76.33333333333333</ele><time>2026-05-03T13:22:02Z</time></trkpt><trkpt lat="42.07778631325193" lon="11.884994554867191"><ele>76.5</ele><time>2026-05-03T13:22:03Z</time></trkpt><trkpt lat="42.07771462211596" lon="11.884959446299586"><ele>76.66666666666667</ele><time>2026-05-03T13:22:04Z</time></trkpt><trkpt lat="42.077586593033566" lon="11.884921763030484"><ele>76.83333333333334</ele><time>2026-05-03T13:22:06Z</time></trkpt><trkpt lat="42.077524900796554" lon="11.884904019311406"><ele>77.0</ele><time>2026-05-03T13:22:07Z</time></trkpt><trkpt lat="42.077462246549906" lon="11.88485834116349"><ele>77.0</ele><time>2026-05-03T13:22:08Z</time></trkpt><trkpt lat="42.07739082427006" lon="11.884817275431244"><ele>77.0</ele><time>2026-05-03T13:22:09Z</time></trkpt><trkpt lat="42.07731978455653" lon="11.884775446291282"><ele>77.0</ele><time>2026-05-03T13:22:10Z</time></trkpt><trkpt lat="42.077243246542615" lon="11.884750254715474"><ele>77.0</ele><time>2026-05-03T13:22:11Z</time></trkpt><trkpt lat="42.07717678547898" lon="11.88476069433419"><ele>77.0</ele><time>2026-05-03T13:22:12Z</time></trkpt><trkpt lat="42.077061077216214" lon="11.884806041538898"><ele>77.0</ele><time>2026-05-03T13:22:14Z</time></trkpt><trkpt lat="42.07695561969262" lon="11.88483421306688"><ele>77.0</ele><time>2026-05-03T13:22:16Z</time></trkpt><trkpt lat="42.07689184912927" lon="11.884853814330803"><ele>77.0</ele><time>2026-05-03T13:22:17Z</time></trkpt><trkpt lat="42.07682671920708" lon="11.88486435960208"><ele>77.0</ele><time>2026-05-03T13:22:18Z</time></trkpt><trkpt lat="42.0767051073197" lon="11.884841928606756"><ele>77.0</ele><time>2026-05-03T13:22:20Z</time></trkpt><trkpt lat="42.076634627616926" lon="11.884811156092903"><ele>77.0</ele><time>2026-05-03T13:22:21Z</time></trkpt><trkpt lat="42.07655873386289" lon="11.884779491031765"><ele>77.0</ele><time>2026-05-03T13:22:22Z</time></trkpt><trkpt lat="42.076474222064526" lon="11.884757403514097"><ele>76.8</ele><time>2026-05-03T13:22:23Z</time></trkpt><trkpt lat="42.07638981495298" lon="11.884727421402062"><ele>76.6</ele><time>2026-05-03T13:22:24Z</time></trkpt><trkpt lat="42.07626810682384" lon="11.884683675067443"><ele>76.39999999999999</ele><time>2026-05-03T13:22:26Z</time></trkpt><trkpt lat="42.076192400135916" lon="11.884658655775507"><ele>76.2</ele><time>2026-05-03T13:22:27Z</time></trkpt><trkpt lat="42.07610989005831" lon="11.884641503493778"><ele>76.0</ele><time>2026-05-03T13:22:28Z</time></trkpt><trkpt lat="42.07603106524891" lon="11.884616764092282"><ele>76.0</ele><time>2026-05-03T13:22:29Z</time></trkpt><trkpt lat="42.07595021656973" lon="11.884581174565227"><ele>76.0</ele><time>2026-05-03T13:22:30Z</time></trkpt><trkpt lat="42.07586006123117" lon="11.884558365534692"><ele>76.0</ele><time>2026-05-03T13:22:31Z</time></trkpt><trkpt lat="42.07577043194122" lon="11.884554399313723"><ele>76.0</ele><time>2026-05-03T13:22:32Z</time></trkpt><trkpt lat="42.07566359137762" lon="11.88455986773704"><ele>76.0</ele><time>2026-05-03T13:22:33Z</time></trkpt><trkpt lat="42.07556556457907" lon="11.884540603482423"><ele>76.5</ele><time>2026-05-03T13:22:34Z</time></trkpt><trkpt lat="42.075467694728076" lon="11.884512630300728"><ele>77.0</ele><time>2026-05-03T13:22:35Z</time></trkpt><trkpt lat="42.07537727015164" lon="11.884492719408938"><ele>77.5</ele><time>2026-05-03T13:22:36Z</time></trkpt><trkpt lat="42.07529167765646" lon="11.884479210811628"><ele>78.0</ele><time>2026-05-03T13:22:37Z</time></trkpt><trkpt lat="42.07522095287621" lon="11.88448966071014"><ele>78.5</ele><time>2026-05-03T13:22:38Z</time></trkpt><trkpt lat="42.07515480272489" lon="11.884499631665415"><ele>79.0</ele><time>2026-05-03T13:22:39Z</time></trkpt><trkpt lat="42.07507877106133" lon="11.884502766625202"><ele>79.0</ele><time>2026-05-03T13:22:40Z</time></trkpt><trkpt lat="42.07499112000286" lon="11.884499841912897"><ele>79.0</ele><time>2026-05-03T13:22:41Z</time></trkpt><trkpt lat="42.074903606780175" lon="11.88448257865998"><ele>79.0</ele><time>2026-05-03T13:22:42Z</time></trkpt><trkpt lat="42.07481465020061" lon="11.88447694802583"><ele>79.0</ele><time>2026-05-03T13:22:43Z</time></trkpt><trkpt lat="42.07472279816522" lon="11.884452392530212"><ele>79.0</ele><time>2026-05-03T13:22:44Z</time></trkpt><trkpt lat="42.07463789071262" lon="11.884417505570926"><ele>79.0</ele><time>2026-05-03T13:22:45Z</time></trkpt><trkpt lat="42.0745568196131" lon="11.884377163915005"><ele>79.2</ele><time>2026-05-03T13:22:46Z</time></trkpt><trkpt lat="42.07447760063331" lon="11.884328706513747"><ele>79.4</ele><time>2026-05-03T13:22:47Z</time></trkpt><trkpt lat="42.074396909220994" lon="11.884305365506634"><ele>79.6</ele><time>2026-05-03T13:22:48Z</time></trkpt><trkpt lat="42.07430654744531" lon="11.884289541168819"><ele>79.8</ele><time>2026-05-03T13:22:49Z</time></trkpt><trkpt lat="42.074205583862145" lon="11.88426910205485"><ele>80.0</ele><time>2026-05-03T13:22:50Z</time></trkpt><trkpt lat="42.07410937754783" lon="11.884238857159769"><ele>78.4</ele><time>2026-05-03T13:22:51Z</time></trkpt><trkpt lat="42.074003856358" lon="11.884200581652166"><ele>76.8</ele><time>2026-05-03T13:22:52Z</time></trkpt><trkpt lat="42.07390940184541" lon="11.884168842794015"><ele>75.2</ele><time>2026-05-03T13:22:53Z</time></trkpt><trkpt lat="42.073823356478094" lon="11.884151701077998"><ele>73.6</ele><time>2026-05-03T13:22:54Z</time></trkpt><trkpt lat="42.07373440425244" lon="11.884147998258129"><ele>72.0</ele><time>2026-05-03T13:22:55Z</time></trkpt><trkpt lat="42.0736682545562" lon="11.88416261208906"><ele>72.00000000000001</ele><time>2026-05-03T13:22:56Z</time></trkpt><trkpt lat="42.07359547008243" lon="11.884192909939912"><ele>72.0</ele><time>2026-05-03T13:22:57Z</time></trkpt><trkpt lat="42.073531641827046" lon="11.884196673218277"><ele>72.0</ele><time>2026-05-03T13:22:58Z</time></trkpt><trkpt lat="42.07346753232243" lon="11.884180774138038"><ele>72.0</ele><time>2026-05-03T13:22:59Z</time></trkpt><trkpt lat="42.07339741730337" lon="11.88416979248572"><ele>72.0</ele><time>2026-05-03T13:23:00Z</time></trkpt><trkpt lat="42.07332402950889" lon="11.88417891746446"><ele>72.00000000000001</ele><time>2026-05-03T13:23:01Z</time></trkpt><trkpt lat="42.07323269444168" lon="11.884205929132891"><ele>72.0</ele><time>2026-05-03T13:23:02Z</time></trkpt><trkpt lat="42.07316702065042" lon="11.884235964256462"><ele>71.66666666666667</ele><time>2026-05-03T13:23:03Z</time></trkpt><trkpt lat="42.073101330113566" lon="11.884275496762697"><ele>71.33333333333333</ele><time>2026-05-03T13:23:04Z</time></trkpt><trkpt lat="42.07303788317544" lon="11.884297213465898"><ele>71.0</ele><time>2026-05-03T13:23:05Z</time></trkpt><trkpt lat="42.07295530268432" lon="11.884314044866466"><ele>70.66666666666666</ele><time>2026-05-03T13:23:06Z</time></trkpt><trkpt lat="42.072875288151174" lon="11.884310683413092"><ele>70.33333333333333</ele><time>2026-05-03T13:23:07Z</time></trkpt><trkpt lat="42.07279880680232" lon="11.884291009131518"><ele>70.0</ele><time>2026-05-03T13:23:08Z</time></trkpt><trkpt lat="42.07271965743867" lon="11.884269457721203"><ele>70.5</ele><time>2026-05-03T13:23:09Z</time></trkpt><trkpt lat="42.072638557974756" lon="11.88426181278525"><ele>71.0</ele><time>2026-05-03T13:23:10Z</time></trkpt><trkpt lat="42.07256164694804" lon="11.884257881867454"><ele>71.5</ele><time>2026-05-03T13:23:11Z</time></trkpt><trkpt lat="42.072485263032874" lon="11.884258938982468"><ele>72.0</ele><time>2026-05-03T13:23:12Z</time></trkpt><trkpt lat="42.07240918847533" lon="11.884265149005866"><ele>72.5</ele><time>2026-05-03T13:23:13Z</time></trkpt><trkpt lat="42.07234015561712" lon="11.884264914605847"><ele>73.0</ele><time>2026-05-03T13:23:14Z</time></trkpt><trkpt lat="42.07226628740713" lon="11.884255520343562"><ele>71.71428571428571</ele><time>2026-05-03T13:23:15Z</time></trkpt><trkpt lat="42.0721950707152" lon="11.88426839409727"><ele>70.42857142857143</ele><time>2026-05-03T13:23:16Z</time></trkpt><trkpt lat="42.07212695716603" lon="11.884286104852393"><ele>69.14285714285714</ele><time>2026-05-03T13:23:17Z</time></trkpt><trkpt lat="42.072064709194265" lon="11.884306341801713"><ele>67.85714285714286</ele><time>2026-05-03T13:23:18Z</time></trkpt><trkpt lat="42.07199891902276" lon="11.8843244978417"><ele>66.57142857142857</ele><time>2026-05-03T13:23:19Z</time></trkpt><trkpt lat="42.07193927254707" lon="11.884352484918223"><ele>65.28571428571428</ele><time>2026-05-03T13:23:20Z</time></trkpt><trkpt lat="42.07185767461819" lon="11.884414225588433"><ele>64.0</ele><time>2026-05-03T13:23:22Z</time></trkpt><trkpt lat="42.071792723147986" lon="11.884476950858481"><ele>63.99999999999999</ele><time>2026-05-03T13:23:25Z</time></trkpt><trkpt lat="42.071738472208835" lon="11.884547505488836"><ele>64.0</ele><time>2026-05-03T13:24:21Z</time></trkpt><trkpt lat="42.07167464524297" lon="11.884607401714392"><ele>64.0</ele><time>2026-05-03T13:24:25Z</time></trkpt><trkpt lat="42.07159934353481" lon="11.884586582871181"><ele>64.0</ele><time>2026-05-03T13:24:41.999Z</time></trkpt><trkpt lat="42.07152034709788" lon="11.884586368285143"><ele>63.99999999999999</ele><time>2026-05-03T13:24:43.999Z</time></trkpt><trkpt lat="42.07145614613706" lon="11.884583648646917"><ele>64.0</ele><time>2026-05-03T13:24:44.999Z</time></trkpt><trkpt lat="42.0713783445257" lon="11.884580808433887"><ele>63.666666666666664</ele><time>2026-05-03T13:24:45.999Z</time></trkpt><trkpt lat="42.07128056253505" lon="11.884573780426175"><ele>63.33333333333333</ele><time>2026-05-03T13:24:47.999Z</time></trkpt><trkpt lat="42.071201033676026" lon="11.884572031191755"><ele>63.0</ele><time>2026-05-03T13:24:48.999Z</time></trkpt><trkpt lat="42.0711385386466" lon="11.88458329169865"><ele>62.66666666666667</ele><time>2026-05-03T13:24:49.999Z</time></trkpt><trkpt lat="42.0710771352525" lon="11.88460539840096"><ele>62.333333333333336</ele><time>2026-05-03T13:24:50.999Z</time></trkpt><trkpt lat="42.07101729387557" lon="11.884654250636595"><ele>62.0</ele><time>2026-05-03T13:24:51.999Z</time></trkpt><trkpt lat="42.07090780755233" lon="11.88470034224393"><ele>62.0</ele><time>2026-05-03T13:24:53.999Z</time></trkpt><trkpt lat="42.07079057680617" lon="11.884713191593804"><ele>62.0</ele><time>2026-05-03T13:24:55.999Z</time></trkpt><trkpt lat="42.07066507967131" lon="11.88471745308843"><ele>62.0</ele><time>2026-05-03T13:24:57.999Z</time></trkpt><trkpt lat="42.07058694031256" lon="11.884703737800924"><ele>62.0</ele><time>2026-05-03T13:24:58.999Z</time></trkpt><trkpt lat="42.070499230337205" lon="11.884699423045193"><ele>62.0</ele><time>2026-05-03T13:25:00Z</time></trkpt><trkpt lat="42.070405077975" lon="11.884688035773964"><ele>62.0</ele><time>2026-05-03T13:25:01Z</time></trkpt><trkpt lat="42.07031505573893" lon="11.884636990949929"><ele>62.0</ele><time>2026-05-03T13:25:02Z</time></trkpt><trkpt lat="42.07022061304642" lon="11.884629641751362"><ele>62.0</ele><time>2026-05-03T13:25:03Z</time></trkpt><trkpt lat="42.07013245650392" lon="11.88462278171833"><ele>62.0</ele><time>2026-05-03T13:25:04Z</time></trkpt><trkpt lat="42.07006002664458" lon="11.884617746551749"><ele>62.0</ele><time>2026-05-03T13:25:05Z</time></trkpt><trkpt lat="42.06994594427823" lon="11.884629500860088"><ele>61.333333333333336</ele><time>2026-05-03T13:25:07Z</time></trkpt><trkpt lat="42.06983108640701" lon="11.884632572119227"><ele>60.66666666666667</ele><time>2026-05-03T13:25:09Z</time></trkpt><trkpt lat="42.06976517005326" lon="11.88463177495753"><ele>60.0</ele><time>2026-05-03T13:25:10Z</time></trkpt><trkpt lat="42.06970290842431" lon="11.884605013480314"><ele>59.33333333333333</ele><time>2026-05-03T13:25:11Z</time></trkpt><trkpt lat="42.069636467474425" lon="11.884595303200294"><ele>58.666666666666664</ele><time>2026-05-03T13:25:12Z</time></trkpt><trkpt lat="42.06953482010452" lon="11.884555884219099"><ele>58.0</ele><time>2026-05-03T13:25:14Z</time></trkpt><trkpt lat="42.06944625350349" lon="11.884505592925233"><ele>58.0</ele><time>2026-05-03T13:25:16Z</time></trkpt><trkpt lat="42.069362613364184" lon="11.884427876534016"><ele>58.0</ele><time>2026-05-03T13:25:18Z</time></trkpt><trkpt lat="42.06926748414317" lon="11.88434018544789"><ele>58.0</ele><time>2026-05-03T13:25:20Z</time></trkpt><trkpt lat="42.069152790364996" lon="11.884303605019648"><ele>58.0</ele><time>2026-05-03T13:25:22Z</time></trkpt><trkpt lat="42.06903122762789" lon="11.884290708508107"><ele>57.49999999999999</ele><time>2026-05-03T13:25:24Z</time></trkpt><trkpt lat="42.06895802701441" lon="11.884298233644923"><ele>57.0</ele><time>2026-05-03T13:25:25Z</time></trkpt><trkpt lat="42.06888502251875" lon="11.884305152034273"><ele>56.5</ele><time>2026-05-03T13:25:26Z</time></trkpt><trkpt lat="42.06882168379825" lon="11.884307984671405"><ele>56.0</ele><time>2026-05-03T13:25:27Z</time></trkpt><trkpt lat="42.06873694825246" lon="11.88431261018836"><ele>55.49999999999999</ele><time>2026-05-03T13:25:28Z</time></trkpt><trkpt lat="42.068643435595135" lon="11.88431304617128"><ele>55.0</ele><time>2026-05-03T13:25:29Z</time></trkpt><trkpt lat="42.06854474160861" lon="11.88429876927788"><ele>55.0</ele><time>2026-05-03T13:25:30Z</time></trkpt><trkpt lat="42.06843484402249" lon="11.884272013288841"><ele>55.0</ele><time>2026-05-03T13:25:31Z</time></trkpt><trkpt lat="42.06830717568162" lon="11.884234349773866"><ele>55.0</ele><time>2026-05-03T13:25:32Z</time></trkpt><trkpt lat="42.06818245165052" lon="11.884196830747838"><ele>55.0</ele><time>2026-05-03T13:25:33Z</time></trkpt><trkpt lat="42.06805989531784" lon="11.884164098276718"><ele>55.25</ele><time>2026-05-03T13:25:34Z</time></trkpt><trkpt lat="42.06792893978013" lon="11.884129661622882"><ele>55.5</ele><time>2026-05-03T13:25:35Z</time></trkpt><trkpt lat="42.067798174178265" lon="11.8840875428383"><ele>55.75</ele><time>2026-05-03T13:25:36Z</time></trkpt><trkpt lat="42.06767571124914" lon="11.884053255641128"><ele>56.0</ele><time>2026-05-03T13:25:37Z</time></trkpt><trkpt lat="42.067561128673034" lon="11.884026771350882"><ele>56.0</ele><time>2026-05-03T13:25:38Z</time></trkpt><trkpt lat="42.06746709663227" lon="11.884006799619112"><ele>55.99999999999999</ele><time>2026-05-03T13:25:39Z</time></trkpt><trkpt lat="42.067370237310634" lon="11.883987992079062"><ele>55.99999999999999</ele><time>2026-05-03T13:25:40Z</time></trkpt><trkpt lat="42.0672629996022" lon="11.883968348081217"><ele>56.0</ele><time>2026-05-03T13:25:41Z</time></trkpt><trkpt lat="42.06716022666167" lon="11.883949161964614"><ele>56.0</ele><time>2026-05-03T13:25:42Z</time></trkpt><trkpt lat="42.06707776130662" lon="11.883933395742252"><ele>55.8</ele><time>2026-05-03T13:25:43Z</time></trkpt><trkpt lat="42.067014783053445" lon="11.883923286609905"><ele>55.599999999999994</ele><time>2026-05-03T13:25:44Z</time></trkpt><trkpt lat="42.0669243435926" lon="11.883933804285988"><ele>55.4</ele><time>2026-05-03T13:25:46Z</time></trkpt><trkpt lat="42.066860726267336" lon="11.883927657931906"><ele>55.2</ele><time>2026-05-03T13:25:56Z</time></trkpt><trkpt lat="42.06670821661622" lon="11.883950605379002"><ele>55.0</ele><time>2026-05-03T13:25:58Z</time></trkpt><trkpt lat="42.0666066150594" lon="11.883980649915491"><ele>55.0</ele><time>2026-05-03T13:25:59Z</time></trkpt><trkpt lat="42.06649973455979" lon="11.883999692573003"><ele>55.0</ele><time>2026-05-03T13:26:00Z</time></trkpt><trkpt lat="42.066385331947075" lon="11.884056627313294"><ele>55.0</ele><time>2026-05-03T13:26:01Z</time></trkpt><trkpt lat="42.06626162057481" lon="11.88410014606366"><ele>55.0</ele><time>2026-05-03T13:26:02Z</time></trkpt><trkpt lat="42.06613673636232" lon="11.884122505557945"><ele>55.0</ele><time>2026-05-03T13:26:03Z</time></trkpt><trkpt lat="42.06600635998405" lon="11.884190965400961"><ele>55.0</ele><time>2026-05-03T13:26:04Z</time></trkpt><trkpt lat="42.065899334687096" lon="11.884229091122368"><ele>55.0</ele><time>2026-05-03T13:26:05Z</time></trkpt><trkpt lat="42.06576907872807" lon="11.884266658642648"><ele>55.0</ele><time>2026-05-03T13:26:06Z</time></trkpt><trkpt lat="42.06563778390153" lon="11.884319617483383"><ele>54.2</ele><time>2026-05-03T13:26:07Z</time></trkpt><trkpt lat="42.065505807164044" lon="11.88434582792236"><ele>53.4</ele><time>2026-05-03T13:26:08Z</time></trkpt><trkpt lat="42.06540978097121" lon="11.88439763179447"><ele>52.599999999999994</ele><time>2026-05-03T13:26:09Z</time></trkpt><trkpt lat="42.065322354629785" lon="11.884428437872753"><ele>51.8</ele><time>2026-05-03T13:26:10Z</time></trkpt><trkpt lat="42.06525040911558" lon="11.884457285087866"><ele>51.0</ele><time>2026-05-03T13:26:11Z</time></trkpt><trkpt lat="42.06514501350952" lon="11.884498209052111"><ele>51.0</ele><time>2026-05-03T13:26:13Z</time></trkpt><trkpt lat="42.06506298418589" lon="11.884507270853629"><ele>51.0</ele><time>2026-05-03T13:26:15Z</time></trkpt><trkpt lat="42.06498714329985" lon="11.88453394556718"><ele>51.0</ele><time>2026-05-03T13:26:17Z</time></trkpt><trkpt lat="42.06491450225728" lon="11.884566903824405"><ele>51.0</ele><time>2026-05-03T13:26:19Z</time></trkpt><trkpt lat="42.064851171326325" lon="11.884595253943942"><ele>51.0</ele><time>2026-05-03T13:49:02Z</time></trkpt><trkpt lat="42.06478394327998" lon="11.884615499590842"><ele>51.0</ele><time>2026-05-03T13:49:04Z</time></trkpt><trkpt lat="42.064712510678724" lon="11.88464709840866"><ele>51.0</ele><time>2026-05-03T13:49:06Z</time></trkpt><trkpt lat="42.06461272707581" lon="11.884677422692706"><ele>50.199999999999996</ele><time>2026-05-03T13:49:08Z</time></trkpt><trkpt lat="42.06450228165866" lon="11.884706342644877"><ele>49.4</ele><time>2026-05-03T13:49:10Z</time></trkpt><trkpt lat="42.06437529246682" lon="11.884740798357827"><ele>48.6</ele><time>2026-05-03T13:49:12Z</time></trkpt><trkpt lat="42.06430369902184" lon="11.884760252587501"><ele>47.8</ele><time>2026-05-03T13:49:13Z</time></trkpt><trkpt lat="42.064232755769005" lon="11.88476935412548"><ele>47.0</ele><time>2026-05-03T13:49:14Z</time></trkpt><trkpt lat="42.06416425362758" lon="11.884784786746955"><ele>47.0</ele><time>2026-05-03T13:49:15Z</time></trkpt><trkpt lat="42.064089757943556" lon="11.884803217534278"><ele>47.0</ele><time>2026-05-03T13:49:16Z</time></trkpt><trkpt lat="42.064013751352604" lon="11.884821506683748"><ele>47.0</ele><time>2026-05-03T13:49:17Z</time></trkpt><trkpt lat="42.063928639570186" lon="11.884841965512322"><ele>47.0</ele><time>2026-05-03T13:49:18Z</time></trkpt><trkpt lat="42.06384341072882" lon="11.884857206204035"><ele>47.0</ele><time>2026-05-03T13:49:19Z</time></trkpt><trkpt lat="42.06375846739774" lon="11.884879683675509"><ele>47.0</ele><time>2026-05-03T13:49:20Z</time></trkpt><trkpt lat="42.063676154146506" lon="11.884888622822746"><ele>47.0</ele><time>2026-05-03T13:49:20.999Z</time></trkpt><trkpt lat="42.06359279246992" lon="11.884903266433684"><ele>47.0</ele><time>2026-05-03T13:49:21.999Z</time></trkpt><trkpt lat="42.06350728057775" lon="11.884910204206712"><ele>47.0</ele><time>2026-05-03T13:49:22.999Z</time></trkpt><trkpt lat="42.06342172595066" lon="11.884917431405368"><ele>47.0</ele><time>2026-05-03T13:49:23.999Z</time></trkpt><trkpt lat="42.06333402751878" lon="11.884921712722738"><ele>47.0</ele><time>2026-05-03T13:49:24.999Z</time></trkpt><trkpt lat="42.06324814127888" lon="11.884917473767485"><ele>47.0</ele><time>2026-05-03T13:49:25.999Z</time></trkpt><trkpt lat="42.06316632161934" lon="11.884906625880399"><ele>46.666666666666664</ele><time>2026-05-03T13:49:26.999Z</time></trkpt><trkpt lat="42.063084806658765" lon="11.884889476797575"><ele>46.33333333333333</ele><time>2026-05-03T13:49:27.999Z</time></trkpt><trkpt lat="42.06300158532988" lon="11.884875603180587"><ele>46.0</ele><time>2026-05-03T13:49:28.999Z</time></trkpt><trkpt lat="42.06291732540058" lon="11.884857878206667"><ele>45.666666666666664</ele><time>2026-05-03T13:49:29.999Z</time></trkpt><trkpt lat="42.06283399172517" lon="11.88484182234136"><ele>45.333333333333336</ele><time>2026-05-03T13:49:30.999Z</time></trkpt><trkpt lat="42.06275190812838" lon="11.884829715402464"><ele>45.0</ele><time>2026-05-03T13:49:31.999Z</time></trkpt><trkpt lat="42.06266651435347" lon="11.884813461665955"><ele>45.0</ele><time>2026-05-03T13:49:32.999Z</time></trkpt><trkpt lat="42.06258612480289" lon="11.884774115064214"><ele>45.0</ele><time>2026-05-03T13:49:33.999Z</time></trkpt><trkpt lat="42.0625080052503" lon="11.88475644697825"><ele>45.0</ele><time>2026-05-03T13:49:34.999Z</time></trkpt><trkpt lat="42.06243630519655" lon="11.884740993550569"><ele>45.0</ele><time>2026-05-03T13:49:35.999Z</time></trkpt><trkpt lat="42.06236317669834" lon="11.884746426889713"><ele>45.0</ele><time>2026-05-03T13:49:36.999Z</time></trkpt><trkpt lat="42.062286538325786" lon="11.88472172763393"><ele>45.0</ele><time>2026-05-03T13:49:37.999Z</time></trkpt><trkpt lat="42.06221936501657" lon="11.884674531915453"><ele>46.0</ele><time>2026-05-03T13:49:38.999Z</time></trkpt><trkpt lat="42.062141392894326" lon="11.88465413341091"><ele>47.0</ele><time>2026-05-03T13:49:39.999Z</time></trkpt><trkpt lat="42.0620777907148" lon="11.884586461871168"><ele>48.0</ele><time>2026-05-03T13:49:40.999Z</time></trkpt><trkpt lat="42.06200830841565" lon="11.884531033181025"><ele>49.0</ele><time>2026-05-03T13:49:41.999Z</time></trkpt><trkpt lat="42.06193765332026" lon="11.884473633143273"><ele>50.0</ele><time>2026-05-03T13:49:42.999Z</time></trkpt><trkpt lat="42.06185573637452" lon="11.884405427191274"><ele>51.0</ele><time>2026-05-03T13:49:43.999Z</time></trkpt><trkpt lat="42.0617631374878" lon="11.884355512354196"><ele>51.0</ele><time>2026-05-03T13:49:44.999Z</time></trkpt><trkpt lat="42.061685387774375" lon="11.884290479457226"><ele>51.0</ele><time>2026-05-03T13:49:45.999Z</time></trkpt><trkpt lat="42.061605831796875" lon="11.884231685591063"><ele>51.0</ele><time>2026-05-03T13:49:46.999Z</time></trkpt><trkpt lat="42.061521090642515" lon="11.884169143706155"><ele>51.0</ele><time>2026-05-03T13:49:47.999Z</time></trkpt><trkpt lat="42.0614337002918" lon="11.884104571598233"><ele>51.0</ele><time>2026-05-03T13:49:48.999Z</time></trkpt><trkpt lat="42.061345183527415" lon="11.88404289475478"><ele>49.0</ele><time>2026-05-03T13:49:49.999Z</time></trkpt><trkpt lat="42.06125369281023" lon="11.883980095754943"><ele>47.0</ele><time>2026-05-03T13:49:50.999Z</time></trkpt><trkpt lat="42.06115999735669" lon="11.883930208485065"><ele>45.0</ele><time>2026-05-03T13:49:51.999Z</time></trkpt><trkpt lat="42.06107189180947" lon="11.883866024045771"><ele>43.0</ele><time>2026-05-03T13:49:52.999Z</time></trkpt><trkpt lat="42.06097941506341" lon="11.883815959448551"><ele>41.0</ele><time>2026-05-03T13:49:53.999Z</time></trkpt><trkpt lat="42.06088710097072" lon="11.88376661588971"><ele>41.0</ele><time>2026-05-03T13:49:54.999Z</time></trkpt><trkpt lat="42.06080113861424" lon="11.883722830119787"><ele>41.0</ele><time>2026-05-03T13:49:55.999Z</time></trkpt><trkpt lat="42.06072284993256" lon="11.88368309656858"><ele>41.0</ele><time>2026-05-03T13:49:56.999Z</time></trkpt><trkpt lat="42.06065363639452" lon="11.883649172372888"><ele>41.0</ele><time>2026-05-03T13:49:57.999Z</time></trkpt><trkpt lat="42.06055021260191" lon="11.883619223814698"><ele>41.0</ele><time>2026-05-03T13:49:59.999Z</time></trkpt><trkpt lat="42.060484552772444" lon="11.883562036334471"><ele>41.0</ele><time>2026-05-03T13:50:01.999Z</time></trkpt><trkpt lat="42.060394550654216" lon="11.883525602786003"><ele>40.8</ele><time>2026-05-03T13:50:03.999Z</time></trkpt><trkpt lat="42.06030087460342" lon="11.88349091843284"><ele>40.599999999999994</ele><time>2026-05-03T13:50:05.999Z</time></trkpt><trkpt lat="42.06019781045221" lon="11.883434399025877"><ele>40.4</ele><time>2026-05-03T13:50:06.999Z</time></trkpt><trkpt lat="42.06012230731811" lon="11.883395973203116"><ele>40.2</ele><time>2026-05-03T13:50:07.999Z</time></trkpt><trkpt lat="42.06004334568598" lon="11.883364204962593"><ele>40.0</ele><time>2026-05-03T13:50:08.999Z</time></trkpt><trkpt lat="42.059967201458505" lon="11.883320931949784"><ele>39.66666666666667</ele><time>2026-05-03T13:50:09.999Z</time></trkpt><trkpt lat="42.05989548747395" lon="11.883284123134628"><ele>39.333333333333336</ele><time>2026-05-03T13:50:11Z</time></trkpt><trkpt lat="42.059824081615275" lon="11.883247801192315"><ele>39.0</ele><time>2026-05-03T13:50:12Z</time></trkpt><trkpt lat="42.05975425879985" lon="11.88321327836117"><ele>38.666666666666664</ele><time>2026-05-03T13:50:13Z</time></trkpt><trkpt lat="42.059682672460774" lon="11.883208817611438"><ele>38.33333333333333</ele><time>2026-05-03T13:50:14Z</time></trkpt><trkpt lat="42.05960609498014" lon="11.8832224979066"><ele>38.0</ele><time>2026-05-03T13:50:15Z</time></trkpt><trkpt lat="42.05952555868547" lon="11.88324903858113"><ele>38.0</ele><time>2026-05-03T13:50:16Z</time></trkpt><trkpt lat="42.05944317962708" lon="11.883283138529098"><ele>38.0</ele><time>2026-05-03T13:50:17Z</time></trkpt><trkpt lat="42.05935921411075" lon="11.883318809367394"><ele>38.0</ele><time>2026-05-03T13:50:18Z</time></trkpt><trkpt lat="42.05926775938191" lon="11.883350343352838"><ele>38.0</ele><time>2026-05-03T13:50:19Z</time></trkpt><trkpt lat="42.05917512835778" lon="11.883379921841048"><ele>38.0</ele><time>2026-05-03T13:50:20Z</time></trkpt><trkpt lat="42.059079674474766" lon="11.883413451219877"><ele>37.6</ele><time>2026-05-03T13:50:21Z</time></trkpt><trkpt lat="42.05897036352914" lon="11.883449831041238"><ele>37.199999999999996</ele><time>2026-05-03T13:50:22Z</time></trkpt><trkpt lat="42.0588683295145" lon="11.883482359303779"><ele>36.8</ele><time>2026-05-03T13:50:23Z</time></trkpt><trkpt lat="42.05876760549192" lon="11.883510460293238"><ele>36.4</ele><time>2026-05-03T13:50:24Z</time></trkpt><trkpt lat="42.05866029902093" lon="11.88354874121875"><ele>36.0</ele><time>2026-05-03T13:50:25Z</time></trkpt><trkpt lat="42.058553455262135" lon="11.883592262821624"><ele>36.0</ele><time>2026-05-03T13:50:26Z</time></trkpt><trkpt lat="42.058449624346345" lon="11.883628864128776"><ele>36.0</ele><time>2026-05-03T13:50:27Z</time></trkpt><trkpt lat="42.058351022651" lon="11.883663093029982"><ele>36.0</ele><time>2026-05-03T13:50:28Z</time></trkpt><trkpt lat="42.05825472858082" lon="11.883693393963016"><ele>36.0</ele><time>2026-05-03T13:50:29Z</time></trkpt><trkpt lat="42.058148641184765" lon="11.883725749528404"><ele>36.0</ele><time>2026-05-03T13:50:30Z</time></trkpt><trkpt lat="42.05804429484807" lon="11.883759113725715"><ele>35.4</ele><time>2026-05-03T13:50:31Z</time></trkpt><trkpt lat="42.05794143201901" lon="11.88378675186802"><ele>34.8</ele><time>2026-05-03T13:50:32Z</time></trkpt><trkpt lat="42.05784069874305" lon="11.88381943791559"><ele>34.199999999999996</ele><time>2026-05-03T13:50:33Z</time></trkpt><trkpt lat="42.05773889205597" lon="11.883854452813248"><ele>33.6</ele><time>2026-05-03T13:50:34Z</time></trkpt><trkpt lat="42.057636198467975" lon="11.883888348538779"><ele>33.0</ele><time>2026-05-03T13:50:35Z</time></trkpt><trkpt lat="42.05752903343374" lon="11.883921379837291"><ele>32.666666666666664</ele><time>2026-05-03T13:50:36Z</time></trkpt><trkpt lat="42.05742489019617" lon="11.88395423356429"><ele>32.333333333333336</ele><time>2026-05-03T13:50:37Z</time></trkpt><trkpt lat="42.05732768766692" lon="11.883993438154203"><ele>32.0</ele><time>2026-05-03T13:50:38Z</time></trkpt><trkpt lat="42.05723816312404" lon="11.884017839237119"><ele>31.666666666666668</ele><time>2026-05-03T13:50:39Z</time></trkpt><trkpt lat="42.05716321631242" lon="11.884040447345916"><ele>31.333333333333336</ele><time>2026-05-03T13:50:40Z</time></trkpt><trkpt lat="42.05709373008967" lon="11.884063537696196"><ele>31.0</ele><time>2026-05-03T13:50:41Z</time></trkpt><trkpt lat="42.05702061200788" lon="11.884095301405672"><ele>31.000000000000004</ele><time>2026-05-03T13:50:42Z</time></trkpt><trkpt lat="42.056951859419726" lon="11.88411971458213"><ele>31.0</ele><time>2026-05-03T13:50:43Z</time></trkpt><trkpt lat="42.05688404815042" lon="11.884139243384157"><ele>31.0</ele><time>2026-05-03T13:50:44Z</time></trkpt><trkpt lat="42.05681126764752" lon="11.884161773631433"><ele>31.0</ele><time>2026-05-03T13:50:45Z</time></trkpt><trkpt lat="42.05672781020188" lon="11.884190605603692"><ele>31.000000000000004</ele><time>2026-05-03T13:50:46Z</time></trkpt><trkpt lat="42.05664214480957" lon="11.884219827054626"><ele>31.0</ele><time>2026-05-03T13:50:47Z</time></trkpt><trkpt lat="42.05655445016633" lon="11.884248544455483"><ele>31.000000000000004</ele><time>2026-05-03T13:50:48Z</time></trkpt><trkpt lat="42.0564641656328" lon="11.884275406098494"><ele>31.0</ele><time>2026-05-03T13:50:49Z</time></trkpt><trkpt lat="42.05637309454851" lon="11.884308089392329"><ele>31.0</ele><time>2026-05-03T13:50:50Z</time></trkpt><trkpt lat="42.0562857689232" lon="11.884339110789298"><ele>31.0</ele><time>2026-05-03T13:50:51Z</time></trkpt><trkpt lat="42.056210397934485" lon="11.884366171222563"><ele>31.000000000000004</ele><time>2026-05-03T13:50:52Z</time></trkpt><trkpt lat="42.05613359225645" lon="11.884386807680498"><ele>31.0</ele><time>2026-05-03T13:50:53Z</time></trkpt><trkpt lat="42.056057141661995" lon="11.884405844716715"><ele>31.000000000000004</ele><time>2026-05-03T13:50:54Z</time></trkpt><trkpt lat="42.055982611300486" lon="11.884424342131018"><ele>31.0</ele><time>2026-05-03T13:50:55Z</time></trkpt><trkpt lat="42.055910411334985" lon="11.88445427952111"><ele>31.0</ele><time>2026-05-03T13:50:56Z</time></trkpt><trkpt lat="42.05583062948832" lon="11.884487215830637"><ele>31.0</ele><time>2026-05-03T13:50:57Z</time></trkpt><trkpt lat="42.05574701334848" lon="11.884519705034732"><ele>31.000000000000004</ele><time>2026-05-03T13:50:58Z</time></trkpt><trkpt lat="42.05566146200381" lon="11.884547413996238"><ele>31.0</ele><time>2026-05-03T13:50:59Z</time></trkpt><trkpt lat="42.05558066565869" lon="11.884570390955812"><ele>31.000000000000004</ele><time>2026-05-03T13:51:00Z</time></trkpt><trkpt lat="42.05549622278115" lon="11.884600267630892"><ele>31.0</ele><time>2026-05-03T13:51:01Z</time></trkpt><trkpt lat="42.055420239664414" lon="11.88463127869598"><ele>31.0</ele><time>2026-05-03T13:51:02Z</time></trkpt><trkpt lat="42.05534384139086" lon="11.884660083573674"><ele>31.0</ele><time>2026-05-03T13:51:03Z</time></trkpt><trkpt lat="42.05527190217358" lon="11.884675742939185"><ele>31.000000000000004</ele><time>2026-05-03T13:51:04Z</time></trkpt><trkpt lat="42.05520225441831" lon="11.884694931558602"><ele>31.0</ele><time>2026-05-03T13:51:05Z</time></trkpt><trkpt lat="42.05512924885512" lon="11.88472173506313"><ele>31.000000000000004</ele><time>2026-05-03T13:51:06Z</time></trkpt><trkpt lat="42.05505269341232" lon="11.884748324544026"><ele>31.0</ele><time>2026-05-03T13:51:07Z</time></trkpt><trkpt lat="42.05497372940548" lon="11.884776239700008"><ele>31.0</ele><time>2026-05-03T13:51:08Z</time></trkpt><trkpt lat="42.05488979522025" lon="11.884799747790362"><ele>31.0</ele><time>2026-05-03T13:51:09Z</time></trkpt><trkpt lat="42.05480606796507" lon="11.884822847362967"><ele>31.000000000000004</ele><time>2026-05-03T13:51:10Z</time></trkpt><trkpt lat="42.05472238556018" lon="11.88484828253259"><ele>31.0</ele><time>2026-05-03T13:51:11Z</time></trkpt><trkpt lat="42.054636152980144" lon="11.88487718423609"><ele>30.833333333333336</ele><time>2026-05-03T13:51:12Z</time></trkpt><trkpt lat="42.054550878387936" lon="11.884905320966116"><ele>30.666666666666668</ele><time>2026-05-03T13:51:12.999Z</time></trkpt><trkpt lat="42.0544656641294" lon="11.884934805141956"><ele>30.5</ele><time>2026-05-03T13:51:13.999Z</time></trkpt><trkpt lat="42.054379946074285" lon="11.884965778424256"><ele>30.333333333333336</ele><time>2026-05-03T13:51:14.999Z</time></trkpt><trkpt lat="42.05429813580374" lon="11.88498850838446"><ele>30.166666666666668</ele><time>2026-05-03T13:51:15.999Z</time></trkpt><trkpt lat="42.05421170401774" lon="11.885015637602542"><ele>30.0</ele><time>2026-05-03T13:51:16.999Z</time></trkpt><trkpt lat="42.054122811086074" lon="11.88504507625295"><ele>30.4</ele><time>2026-05-03T13:51:17.999Z</time></trkpt><trkpt lat="42.05403408000872" lon="11.885074939038837"><ele>30.8</ele><time>2026-05-03T13:51:18.999Z</time></trkpt><trkpt lat="42.053940593366974" lon="11.885108876057698"><ele>31.200000000000003</ele><time>2026-05-03T13:51:19.999Z</time></trkpt><trkpt lat="42.05385041120409" lon="11.885148182540519"><ele>31.6</ele><time>2026-05-03T13:51:20.999Z</time></trkpt><trkpt lat="42.05376513795008" lon="11.885176171580795"><ele>32.0</ele><time>2026-05-03T13:51:21.999Z</time></trkpt><trkpt lat="42.053676813154425" lon="11.885195612312208"><ele>31.166666666666664</ele><time>2026-05-03T13:51:22.999Z</time></trkpt><trkpt lat="42.05358956778976" lon="11.885218775535662"><ele>30.333333333333332</ele><time>2026-05-03T13:51:23.999Z</time></trkpt><trkpt lat="42.05350444594207" lon="11.885228052346287"><ele>29.5</ele><time>2026-05-03T13:51:24.999Z</time></trkpt><trkpt lat="42.05342435483909" lon="11.88523234772362"><ele>28.666666666666664</ele><time>2026-05-03T13:51:25.999Z</time></trkpt><trkpt lat="42.05334265559" lon="11.885229620631296"><ele>27.833333333333332</ele><time>2026-05-03T13:51:26.999Z</time></trkpt><trkpt lat="42.05326561319716" lon="11.88522442281113"><ele>27.0</ele><time>2026-05-03T13:51:27.999Z</time></trkpt><trkpt lat="42.05319012606417" lon="11.885183186581147"><ele>27.0</ele><time>2026-05-03T13:51:28.999Z</time></trkpt><trkpt lat="42.053115563738075" lon="11.88515955580188"><ele>27.0</ele><time>2026-05-03T13:51:29.999Z</time></trkpt><trkpt lat="42.053034192615144" lon="11.885148235432402"><ele>27.0</ele><time>2026-05-03T13:51:30.999Z</time></trkpt><trkpt lat="42.05295180279816" lon="11.885113496752245"><ele>27.0</ele><time>2026-05-03T13:51:31.999Z</time></trkpt><trkpt lat="42.052863106829335" lon="11.885081394826898"><ele>27.0</ele><time>2026-05-03T13:51:32.999Z</time></trkpt><trkpt lat="42.052774146208556" lon="11.885051221417584"><ele>27.0</ele><time>2026-05-03T13:51:33.999Z</time></trkpt><trkpt lat="42.05268454267851" lon="11.885019959954015"><ele>27.0</ele><time>2026-05-03T13:51:34.999Z</time></trkpt><trkpt lat="42.05260176659807" lon="11.884990887116961"><ele>27.0</ele><time>2026-05-03T13:51:35.999Z</time></trkpt><trkpt lat="42.05251435288739" lon="11.884963849686219"><ele>27.0</ele><time>2026-05-03T13:51:36.999Z</time></trkpt><trkpt lat="42.0524349638029" lon="11.884943141820061"><ele>27.0</ele><time>2026-05-03T13:51:37.999Z</time></trkpt><trkpt lat="42.05234695094028" lon="11.88493542142308"><ele>27.0</ele><time>2026-05-03T13:51:38.999Z</time></trkpt><trkpt lat="42.05225375787192" lon="11.884937184274014"><ele>27.0</ele><time>2026-05-03T13:51:39.999Z</time></trkpt><trkpt lat="42.05215939740887" lon="11.884950079729077"><ele>26.6</ele><time>2026-05-03T13:51:40.999Z</time></trkpt><trkpt lat="42.052069104387684" lon="11.884970700711559"><ele>26.200000000000003</ele><time>2026-05-03T13:51:41.999Z</time></trkpt><trkpt lat="42.05197446110157" lon="11.88498869681443"><ele>25.8</ele><time>2026-05-03T13:51:42.999Z</time></trkpt><trkpt lat="42.05187710824623" lon="11.885005357768687"><ele>25.4</ele><time>2026-05-03T13:51:43.999Z</time></trkpt><trkpt lat="42.05178269158701" lon="11.885018770558263"><ele>25.0</ele><time>2026-05-03T13:51:44.999Z</time></trkpt><trkpt lat="42.051686985428184" lon="11.885033388268827"><ele>24.833333333333336</ele><time>2026-05-03T13:51:45.999Z</time></trkpt><trkpt lat="42.05159160958147" lon="11.88504621794806"><ele>24.666666666666668</ele><time>2026-05-03T13:51:46.999Z</time></trkpt><trkpt lat="42.051501032640836" lon="11.885063090134125"><ele>24.5</ele><time>2026-05-03T13:51:47.999Z</time></trkpt><trkpt lat="42.051410525603345" lon="11.885080299067084"><ele>24.333333333333336</ele><time>2026-05-03T13:51:48.999Z</time></trkpt><trkpt lat="42.05132506735649" lon="11.885088523440686"><ele>24.166666666666668</ele><time>2026-05-03T13:51:49.999Z</time></trkpt><trkpt lat="42.051241536321896" lon="11.885096259330027"><ele>24.0</ele><time>2026-05-03T13:51:50.999Z</time></trkpt><trkpt lat="42.051160167133055" lon="11.88510605596175"><ele>23.833333333333332</ele><time>2026-05-03T13:51:51.999Z</time></trkpt><trkpt lat="42.05108583986124" lon="11.885127517554963"><ele>23.666666666666668</ele><time>2026-05-03T13:51:52.999Z</time></trkpt><trkpt lat="42.05101576786512" lon="11.885145100055245"><ele>23.5</ele><time>2026-05-03T13:51:53.999Z</time></trkpt><trkpt lat="42.05093915744883" lon="11.88516002328406"><ele>23.333333333333336</ele><time>2026-05-03T13:51:54.999Z</time></trkpt><trkpt lat="42.05086051877436" lon="11.885173707336342"><ele>23.166666666666668</ele><time>2026-05-03T13:51:55.999Z</time></trkpt><trkpt lat="42.0507787869052" lon="11.88517923530019"><ele>23.0</ele><time>2026-05-03T13:51:56.999Z</time></trkpt><trkpt lat="42.050705059543965" lon="11.885174252641134"><ele>23.0</ele><time>2026-05-03T13:51:57.999Z</time></trkpt><trkpt lat="42.05063436208079" lon="11.885166608133408"><ele>23.0</ele><time>2026-05-03T13:51:58.999Z</time></trkpt><trkpt lat="42.05055450609666" lon="11.885158735920134"><ele>23.0</ele><time>2026-05-03T13:51:59.999Z</time></trkpt><trkpt lat="42.05047991021332" lon="11.885143494624566"><ele>23.0</ele><time>2026-05-03T13:52:00.999Z</time></trkpt><trkpt lat="42.05040177086498" lon="11.885117922054075"><ele>23.0</ele><time>2026-05-03T13:52:01.999Z</time></trkpt><trkpt lat="42.05031292920743" lon="11.8850928994094"><ele>23.0</ele><time>2026-05-03T13:52:02.999Z</time></trkpt><trkpt lat="42.05023181788735" lon="11.885045484841811"><ele>23.2</ele><time>2026-05-03T13:52:03.999Z</time></trkpt><trkpt lat="42.05014011693373" lon="11.885012688731129"><ele>23.4</ele><time>2026-05-03T13:52:04.999Z</time></trkpt><trkpt lat="42.05004678945364" lon="11.884981342725817"><ele>23.599999999999998</ele><time>2026-05-03T13:52:05.999Z</time></trkpt><trkpt lat="42.04995160759988" lon="11.884950385247809"><ele>23.799999999999997</ele><time>2026-05-03T13:52:06.999Z</time></trkpt><trkpt lat="42.04986475267424" lon="11.884922136018512"><ele>24.0</ele><time>2026-05-03T13:52:07.999Z</time></trkpt><trkpt lat="42.04977798709292" lon="11.884903399786031"><ele>23.0</ele><time>2026-05-03T13:52:08.999Z</time></trkpt><trkpt lat="42.04969114394801" lon="11.884879980855054"><ele>22.0</ele><time>2026-05-03T13:52:09.999Z</time></trkpt><trkpt lat="42.04959915361907" lon="11.884851134902185"><ele>21.0</ele><time>2026-05-03T13:52:10.999Z</time></trkpt><trkpt lat="42.049504940899894" lon="11.884821381651335"><ele>20.0</ele><time>2026-05-03T13:52:11.999Z</time></trkpt><trkpt lat="42.049410984632566" lon="11.88478966882789"><ele>19.0</ele><time>2026-05-03T13:52:12.999Z</time></trkpt><trkpt lat="42.04932061347358" lon="11.884759496193508"><ele>19.0</ele><time>2026-05-03T13:52:13.999Z</time></trkpt><trkpt lat="42.04922945653539" lon="11.88473275080288"><ele>19.0</ele><time>2026-05-03T13:52:14.999Z</time></trkpt><trkpt lat="42.04913741369682" lon="11.884706075478746"><ele>19.0</ele><time>2026-05-03T13:52:16Z</time></trkpt><trkpt lat="42.04904192855243" lon="11.884672220431488"><ele>19.0</ele><time>2026-05-03T13:52:17Z</time></trkpt><trkpt lat="42.048943917722" lon="11.884637106248094"><ele>19.0</ele><time>2026-05-03T13:52:18Z</time></trkpt><trkpt lat="42.04884274503759" lon="11.884606667407944"><ele>18.599999999999998</ele><time>2026-05-03T13:52:19Z</time></trkpt><trkpt lat="42.0487417276127" lon="11.884573572660337"><ele>18.2</ele><time>2026-05-03T13:52:20Z</time></trkpt><trkpt lat="42.048635797115764" lon="11.884541301519501"><ele>17.799999999999997</ele><time>2026-05-03T13:52:21Z</time></trkpt><trkpt lat="42.04853256900184" lon="11.884504546468856"><ele>17.4</ele><time>2026-05-03T13:52:22Z</time></trkpt><trkpt lat="42.04842720425877" lon="11.88447274875116"><ele>17.0</ele><time>2026-05-03T13:52:23Z</time></trkpt><trkpt lat="42.048312496302174" lon="11.88443236382554"><ele>16.75</ele><time>2026-05-03T13:52:24Z</time></trkpt><trkpt lat="42.04819229924646" lon="11.884396937331639"><ele>16.5</ele><time>2026-05-03T13:52:25Z</time></trkpt><trkpt lat="42.04807335574831" lon="11.884357257813276"><ele>16.25</ele><time>2026-05-03T13:52:26Z</time></trkpt><trkpt lat="42.04795907456796" lon="11.884324685448563"><ele>16.0</ele><time>2026-05-03T13:52:27Z</time></trkpt><trkpt lat="42.0478477658657" lon="11.884288533831365"><ele>16.0</ele><time>2026-05-03T13:52:28Z</time></trkpt><trkpt lat="42.047742503571655" lon="11.8842541750877"><ele>16.0</ele><time>2026-05-03T13:52:29Z</time></trkpt><trkpt lat="42.04764021113808" lon="11.884218430260727"><ele>16.0</ele><time>2026-05-03T13:52:30Z</time></trkpt><trkpt lat="42.0475364241186" lon="11.88418337258176"><ele>16.0</ele><time>2026-05-03T13:52:31Z</time></trkpt><trkpt lat="42.04743279187679" lon="11.88415004653952"><ele>16.0</ele><time>2026-05-03T13:52:32Z</time></trkpt><trkpt lat="42.04732619934989" lon="11.884118808739546"><ele>16.0</ele><time>2026-05-03T13:52:33Z</time></trkpt><trkpt lat="42.047219115676306" lon="11.88408749689043"><ele>16.0</ele><time>2026-05-03T13:52:34Z</time></trkpt><trkpt lat="42.04711027734488" lon="11.884069110493517"><ele>16.0</ele><time>2026-05-03T13:52:35Z</time></trkpt><trkpt lat="42.0469999069756" lon="11.884071858640397"><ele>16.0</ele><time>2026-05-03T13:52:36Z</time></trkpt><trkpt lat="42.04688899833517" lon="11.884083439172446"><ele>16.0</ele><time>2026-05-03T13:52:37Z</time></trkpt><trkpt lat="42.046777458269915" lon="11.88409039528118"><ele>16.0</ele><time>2026-05-03T13:52:38Z</time></trkpt><trkpt lat="42.04666727410564" lon="11.88410902632678"><ele>16.0</ele><time>2026-05-03T13:52:39Z</time></trkpt><trkpt lat="42.046558856047916" lon="11.884112394532178"><ele>16.0</ele><time>2026-05-03T13:52:40Z</time></trkpt><trkpt lat="42.04645991922111" lon="11.884094700721262"><ele>16.0</ele><time>2026-05-03T13:52:41Z</time></trkpt><trkpt lat="42.04636511454942" lon="11.884053675643514"><ele>16.0</ele><time>2026-05-03T13:52:42Z</time></trkpt><trkpt lat="42.04627619092205" lon="11.884002033769036"><ele>13.0</ele><time>2026-05-03T13:52:43Z</time></trkpt><trkpt lat="42.04618470257213" lon="11.883947659756755"><ele>13.0</ele><time>2026-05-03T13:52:44Z</time></trkpt></trkseg></trk></gpx>